<?xml version="1.0" encoding="UTF-8" standalone="no" ?>
<gpx xmlns="http://www.topografix.com/GPX/1/1" xmlns:xsi="http://www.w3.org/2001/XMLSchema-instance" xsi:schemaLocation="http://www.topografix.com/GPX/1/1 http://www.topografix.com/GPX/1/1/gpx.xsd" version="1.1" creator="VisuGPX - https://www.visugpx.com">
  <metadata>
    <name>2019.08.21</name>
    <desc><![CDATA[Houlgate, Cabourg, Merville-Franceville, Villers sur mer]]></desc>
  </metadata>
  <trk>
    <name><![CDATA[2019.08.21 Houlgate, Cabourg, Merville-Franceville, Villers sur mer]]></name>
    <trkseg>
      <trkpt lat="49.30968" lon="-0.01919">
        <ele>125.59</ele>
        <time>2019-08-21T07:50:20Z</time>
      </trkpt>
      <trkpt lat="49.30966" lon="-0.01922">
        <ele>123.67</ele>
        <time>2019-08-21T07:50:21Z</time>
      </trkpt>
      <trkpt lat="49.30951" lon="-0.01943">
        <ele>115.5</ele>
        <time>2019-08-21T07:50:28Z</time>
      </trkpt>
      <trkpt lat="49.3093" lon="-0.01971">
        <ele>111.65</ele>
        <time>2019-08-21T07:50:40Z</time>
      </trkpt>
      <trkpt lat="49.30913" lon="-0.01973">
        <ele>110.69</ele>
        <time>2019-08-21T07:50:45Z</time>
      </trkpt>
      <trkpt lat="49.30909" lon="-0.01973">
        <ele>110.69</ele>
        <time>2019-08-21T07:50:46Z</time>
      </trkpt>
      <trkpt lat="49.30896" lon="-0.01975">
        <ele>110.21</ele>
        <time>2019-08-21T07:50:49Z</time>
      </trkpt>
      <trkpt lat="49.30892" lon="-0.01975">
        <ele>110.21</ele>
        <time>2019-08-21T07:50:50Z</time>
      </trkpt>
      <trkpt lat="49.30861" lon="-0.01981">
        <ele>107.32</ele>
        <time>2019-08-21T07:51:01Z</time>
      </trkpt>
      <trkpt lat="49.30859" lon="-0.01986">
        <ele>107.32</ele>
        <time>2019-08-21T07:51:02Z</time>
      </trkpt>
      <trkpt lat="49.30859" lon="-0.01992">
        <ele>106.84</ele>
        <time>2019-08-21T07:51:03Z</time>
      </trkpt>
      <trkpt lat="49.30858" lon="-0.01999">
        <ele>106.84</ele>
        <time>2019-08-21T07:51:04Z</time>
      </trkpt>
      <trkpt lat="49.30857" lon="-0.02006">
        <ele>106.36</ele>
        <time>2019-08-21T07:51:05Z</time>
      </trkpt>
      <trkpt lat="49.30855" lon="-0.02013">
        <ele>106.36</ele>
        <time>2019-08-21T07:51:06Z</time>
      </trkpt>
      <trkpt lat="49.3085" lon="-0.02034">
        <ele>105.88</ele>
        <time>2019-08-21T07:51:09Z</time>
      </trkpt>
      <trkpt lat="49.30848" lon="-0.02041">
        <ele>105.88</ele>
        <time>2019-08-21T07:51:10Z</time>
      </trkpt>
      <trkpt lat="49.30843" lon="-0.02062">
        <ele>105.4</ele>
        <time>2019-08-21T07:51:13Z</time>
      </trkpt>
      <trkpt lat="49.30841" lon="-0.02068">
        <ele>105.4</ele>
        <time>2019-08-21T07:51:14Z</time>
      </trkpt>
      <trkpt lat="49.30835" lon="-0.02095">
        <ele>104.92</ele>
        <time>2019-08-21T07:51:18Z</time>
      </trkpt>
      <trkpt lat="49.30834" lon="-0.02102">
        <ele>104.92</ele>
        <time>2019-08-21T07:51:19Z</time>
      </trkpt>
      <trkpt lat="49.30826" lon="-0.02141">
        <ele>105.4</ele>
        <time>2019-08-21T07:51:26Z</time>
      </trkpt>
      <trkpt lat="49.30836" lon="-0.02135">
        <ele>122.22</ele>
        <time>2019-08-21T07:51:38Z</time>
      </trkpt>
      <trkpt lat="49.30832" lon="-0.02149">
        <ele>124.63</ele>
        <time>2019-08-21T07:51:56Z</time>
      </trkpt>
      <trkpt lat="49.30811" lon="-0.02238">
        <ele>124.63</ele>
        <time>2019-08-21T07:52:10Z</time>
      </trkpt>
      <trkpt lat="49.30809" lon="-0.02245">
        <ele>124.63</ele>
        <time>2019-08-21T07:52:11Z</time>
      </trkpt>
      <trkpt lat="49.30789" lon="-0.02323">
        <ele>125.59</ele>
        <time>2019-08-21T07:52:22Z</time>
      </trkpt>
      <trkpt lat="49.30754" lon="-0.0245">
        <ele>127.03</ele>
        <time>2019-08-21T07:52:40Z</time>
      </trkpt>
      <trkpt lat="49.30752" lon="-0.02457">
        <ele>127.03</ele>
        <time>2019-08-21T07:52:41Z</time>
      </trkpt>
      <trkpt lat="49.30751" lon="-0.02465">
        <ele>127.03</ele>
        <time>2019-08-21T07:52:42Z</time>
      </trkpt>
      <trkpt lat="49.30742" lon="-0.02503">
        <ele>127.03</ele>
        <time>2019-08-21T07:52:47Z</time>
      </trkpt>
      <trkpt lat="49.3074" lon="-0.0251">
        <ele>127.51</ele>
        <time>2019-08-21T07:52:48Z</time>
      </trkpt>
      <trkpt lat="49.30737" lon="-0.02517">
        <ele>127.51</ele>
        <time>2019-08-21T07:52:49Z</time>
      </trkpt>
      <trkpt lat="49.30711" lon="-0.02625">
        <ele>127.99</ele>
        <time>2019-08-21T07:53:03Z</time>
      </trkpt>
      <trkpt lat="49.30708" lon="-0.0264">
        <ele>127.99</ele>
        <time>2019-08-21T07:53:05Z</time>
      </trkpt>
      <trkpt lat="49.30707" lon="-0.02648">
        <ele>127.99</ele>
        <time>2019-08-21T07:53:06Z</time>
      </trkpt>
      <trkpt lat="49.30706" lon="-0.02657">
        <ele>128.47</ele>
        <time>2019-08-21T07:53:07Z</time>
      </trkpt>
      <trkpt lat="49.30705" lon="-0.02665">
        <ele>128.47</ele>
        <time>2019-08-21T07:53:08Z</time>
      </trkpt>
      <trkpt lat="49.30702" lon="-0.02672">
        <ele>128.47</ele>
        <time>2019-08-21T07:53:09Z</time>
      </trkpt>
      <trkpt lat="49.307" lon="-0.0268">
        <ele>128.95</ele>
        <time>2019-08-21T07:53:10Z</time>
      </trkpt>
      <trkpt lat="49.30698" lon="-0.02688">
        <ele>128.95</ele>
        <time>2019-08-21T07:53:11Z</time>
      </trkpt>
      <trkpt lat="49.30696" lon="-0.02696">
        <ele>128.95</ele>
        <time>2019-08-21T07:53:12Z</time>
      </trkpt>
      <trkpt lat="49.30667" lon="-0.02823">
        <ele>128.95</ele>
        <time>2019-08-21T07:53:27Z</time>
      </trkpt>
      <trkpt lat="49.30624" lon="-0.02985">
        <ele>128.95</ele>
        <time>2019-08-21T07:53:44Z</time>
      </trkpt>
      <trkpt lat="49.30614" lon="-0.0302">
        <ele>128.47</ele>
        <time>2019-08-21T07:53:48Z</time>
      </trkpt>
      <trkpt lat="49.30614" lon="-0.03027">
        <ele>127.99</ele>
        <time>2019-08-21T07:53:49Z</time>
      </trkpt>
      <trkpt lat="49.30616" lon="-0.03035">
        <ele>127.99</ele>
        <time>2019-08-21T07:53:50Z</time>
      </trkpt>
      <trkpt lat="49.30618" lon="-0.03041">
        <ele>127.99</ele>
        <time>2019-08-21T07:53:51Z</time>
      </trkpt>
      <trkpt lat="49.30622" lon="-0.03045">
        <ele>127.51</ele>
        <time>2019-08-21T07:53:52Z</time>
      </trkpt>
      <trkpt lat="49.30628" lon="-0.03048">
        <ele>127.03</ele>
        <time>2019-08-21T07:53:53Z</time>
      </trkpt>
      <trkpt lat="49.30633" lon="-0.0305">
        <ele>126.55</ele>
        <time>2019-08-21T07:53:54Z</time>
      </trkpt>
      <trkpt lat="49.30715" lon="-0.03086">
        <ele>124.15</ele>
        <time>2019-08-21T07:54:08Z</time>
      </trkpt>
      <trkpt lat="49.30721" lon="-0.03091">
        <ele>124.15</ele>
        <time>2019-08-21T07:54:09Z</time>
      </trkpt>
      <trkpt lat="49.30725" lon="-0.03099">
        <ele>124.15</ele>
        <time>2019-08-21T07:54:10Z</time>
      </trkpt>
      <trkpt lat="49.30727" lon="-0.03108">
        <ele>124.15</ele>
        <time>2019-08-21T07:54:11Z</time>
      </trkpt>
      <trkpt lat="49.30728" lon="-0.03117">
        <ele>124.15</ele>
        <time>2019-08-21T07:54:12Z</time>
      </trkpt>
      <trkpt lat="49.30738" lon="-0.03262">
        <ele>123.67</ele>
        <time>2019-08-21T07:54:27Z</time>
      </trkpt>
      <trkpt lat="49.30736" lon="-0.0335">
        <ele>124.15</ele>
        <time>2019-08-21T07:54:35Z</time>
      </trkpt>
      <trkpt lat="49.30739" lon="-0.03409">
        <ele>123.19</ele>
        <time>2019-08-21T07:54:40Z</time>
      </trkpt>
      <trkpt lat="49.30744" lon="-0.03593">
        <ele>121.74</ele>
        <time>2019-08-21T07:54:56Z</time>
      </trkpt>
      <trkpt lat="49.30747" lon="-0.03628">
        <ele>121.74</ele>
        <time>2019-08-21T07:54:59Z</time>
      </trkpt>
      <trkpt lat="49.30749" lon="-0.03639">
        <ele>121.74</ele>
        <time>2019-08-21T07:55:00Z</time>
      </trkpt>
      <trkpt lat="49.30792" lon="-0.038">
        <ele>121.26</ele>
        <time>2019-08-21T07:55:15Z</time>
      </trkpt>
      <trkpt lat="49.30788" lon="-0.03924">
        <ele>120.3</ele>
        <time>2019-08-21T07:55:26Z</time>
      </trkpt>
      <trkpt lat="49.30768" lon="-0.04086">
        <ele>119.82</ele>
        <time>2019-08-21T07:55:41Z</time>
      </trkpt>
      <trkpt lat="49.30766" lon="-0.04119">
        <ele>119.82</ele>
        <time>2019-08-21T07:55:44Z</time>
      </trkpt>
      <trkpt lat="49.30759" lon="-0.0424">
        <ele>118.38</ele>
        <time>2019-08-21T07:55:55Z</time>
      </trkpt>
      <trkpt lat="49.30745" lon="-0.04333">
        <ele>117.42</ele>
        <time>2019-08-21T07:56:03Z</time>
      </trkpt>
      <trkpt lat="49.30742" lon="-0.04344">
        <ele>117.42</ele>
        <time>2019-08-21T07:56:04Z</time>
      </trkpt>
      <trkpt lat="49.30698" lon="-0.04465">
        <ele>116.46</ele>
        <time>2019-08-21T07:56:16Z</time>
      </trkpt>
      <trkpt lat="49.3067" lon="-0.04649">
        <ele>115.01</ele>
        <time>2019-08-21T07:56:32Z</time>
      </trkpt>
      <trkpt lat="49.30638" lon="-0.04787">
        <ele>113.57</ele>
        <time>2019-08-21T07:56:45Z</time>
      </trkpt>
      <trkpt lat="49.3062" lon="-0.04956">
        <ele>110.21</ele>
        <time>2019-08-21T07:56:59Z</time>
      </trkpt>
      <trkpt lat="49.30611" lon="-0.05107">
        <ele>108.29</ele>
        <time>2019-08-21T07:57:13Z</time>
      </trkpt>
      <trkpt lat="49.30596" lon="-0.05261">
        <ele>108.77</ele>
        <time>2019-08-21T07:57:29Z</time>
      </trkpt>
      <trkpt lat="49.30575" lon="-0.05437">
        <ele>109.73</ele>
        <time>2019-08-21T07:57:46Z</time>
      </trkpt>
      <trkpt lat="49.30528" lon="-0.05613">
        <ele>107.32</ele>
        <time>2019-08-21T07:58:02Z</time>
      </trkpt>
      <trkpt lat="49.30482" lon="-0.05747">
        <ele>106.36</ele>
        <time>2019-08-21T07:58:15Z</time>
      </trkpt>
      <trkpt lat="49.30478" lon="-0.05755">
        <ele>106.36</ele>
        <time>2019-08-21T07:58:16Z</time>
      </trkpt>
      <trkpt lat="49.30473" lon="-0.05762">
        <ele>106.36</ele>
        <time>2019-08-21T07:58:17Z</time>
      </trkpt>
      <trkpt lat="49.30468" lon="-0.05766">
        <ele>106.84</ele>
        <time>2019-08-21T07:58:18Z</time>
      </trkpt>
      <trkpt lat="49.30462" lon="-0.05768">
        <ele>107.32</ele>
        <time>2019-08-21T07:58:19Z</time>
      </trkpt>
      <trkpt lat="49.30457" lon="-0.05769">
        <ele>107.32</ele>
        <time>2019-08-21T07:58:20Z</time>
      </trkpt>
      <trkpt lat="49.30452" lon="-0.05769">
        <ele>108.29</ele>
        <time>2019-08-21T07:58:21Z</time>
      </trkpt>
      <trkpt lat="49.30447" lon="-0.05768">
        <ele>108.29</ele>
        <time>2019-08-21T07:58:22Z</time>
      </trkpt>
      <trkpt lat="49.30442" lon="-0.05767">
        <ele>108.77</ele>
        <time>2019-08-21T07:58:23Z</time>
      </trkpt>
      <trkpt lat="49.3038" lon="-0.05742">
        <ele>110.69</ele>
        <time>2019-08-21T07:58:34Z</time>
      </trkpt>
      <trkpt lat="49.30354" lon="-0.05729">
        <ele>111.17</ele>
        <time>2019-08-21T07:58:39Z</time>
      </trkpt>
      <trkpt lat="49.30333" lon="-0.05721">
        <ele>111.65</ele>
        <time>2019-08-21T07:58:43Z</time>
      </trkpt>
      <trkpt lat="49.30316" lon="-0.05715">
        <ele>111.65</ele>
        <time>2019-08-21T07:58:46Z</time>
      </trkpt>
      <trkpt lat="49.30299" lon="-0.05713">
        <ele>111.65</ele>
        <time>2019-08-21T07:58:49Z</time>
      </trkpt>
      <trkpt lat="49.3025" lon="-0.05722">
        <ele>110.21</ele>
        <time>2019-08-21T07:58:54Z</time>
      </trkpt>
      <trkpt lat="49.30205" lon="-0.05755">
        <ele>110.21</ele>
        <time>2019-08-21T07:59:01Z</time>
      </trkpt>
      <trkpt lat="49.30191" lon="-0.05773">
        <ele>110.21</ele>
        <time>2019-08-21T07:59:04Z</time>
      </trkpt>
      <trkpt lat="49.30155" lon="-0.05861">
        <ele>112.61</ele>
        <time>2019-08-21T07:59:16Z</time>
      </trkpt>
      <trkpt lat="49.30146" lon="-0.05996">
        <ele>113.57</ele>
        <time>2019-08-21T07:59:29Z</time>
      </trkpt>
      <trkpt lat="49.3014" lon="-0.06175">
        <ele>112.13</ele>
        <time>2019-08-21T07:59:41Z</time>
      </trkpt>
      <trkpt lat="49.30133" lon="-0.06382">
        <ele>109.25</ele>
        <time>2019-08-21T07:59:53Z</time>
      </trkpt>
      <trkpt lat="49.30151" lon="-0.06534">
        <ele>107.81</ele>
        <time>2019-08-21T08:00:01Z</time>
      </trkpt>
      <trkpt lat="49.30209" lon="-0.06708">
        <ele>103.96</ele>
        <time>2019-08-21T08:00:12Z</time>
      </trkpt>
      <trkpt lat="49.30263" lon="-0.06818">
        <ele>102.04</ele>
        <time>2019-08-21T08:00:20Z</time>
      </trkpt>
      <trkpt lat="49.30273" lon="-0.06826">
        <ele>102.04</ele>
        <time>2019-08-21T08:00:21Z</time>
      </trkpt>
      <trkpt lat="49.30283" lon="-0.06831">
        <ele>102.04</ele>
        <time>2019-08-21T08:00:22Z</time>
      </trkpt>
      <trkpt lat="49.30334" lon="-0.06851">
        <ele>101.08</ele>
        <time>2019-08-21T08:00:27Z</time>
      </trkpt>
      <trkpt lat="49.30344" lon="-0.06852">
        <ele>101.08</ele>
        <time>2019-08-21T08:00:28Z</time>
      </trkpt>
      <trkpt lat="49.30414" lon="-0.06845">
        <ele>101.08</ele>
        <time>2019-08-21T08:00:34Z</time>
      </trkpt>
      <trkpt lat="49.30426" lon="-0.06848">
        <ele>101.08</ele>
        <time>2019-08-21T08:00:35Z</time>
      </trkpt>
      <trkpt lat="49.30436" lon="-0.06852">
        <ele>100.6</ele>
        <time>2019-08-21T08:00:36Z</time>
      </trkpt>
      <trkpt lat="49.30444" lon="-0.06859">
        <ele>100.6</ele>
        <time>2019-08-21T08:00:37Z</time>
      </trkpt>
      <trkpt lat="49.3045" lon="-0.06869">
        <ele>100.11</ele>
        <time>2019-08-21T08:00:38Z</time>
      </trkpt>
      <trkpt lat="49.30452" lon="-0.06882">
        <ele>99.15</ele>
        <time>2019-08-21T08:00:39Z</time>
      </trkpt>
      <trkpt lat="49.30449" lon="-0.06895">
        <ele>97.71</ele>
        <time>2019-08-21T08:00:40Z</time>
      </trkpt>
      <trkpt lat="49.30442" lon="-0.06908">
        <ele>97.71</ele>
        <time>2019-08-21T08:00:41Z</time>
      </trkpt>
      <trkpt lat="49.30433" lon="-0.06917">
        <ele>97.23</ele>
        <time>2019-08-21T08:00:42Z</time>
      </trkpt>
      <trkpt lat="49.30423" lon="-0.06926">
        <ele>96.75</ele>
        <time>2019-08-21T08:00:43Z</time>
      </trkpt>
      <trkpt lat="49.3031" lon="-0.07007">
        <ele>94.83</ele>
        <time>2019-08-21T08:00:53Z</time>
      </trkpt>
      <trkpt lat="49.30266" lon="-0.07028">
        <ele>93.39</ele>
        <time>2019-08-21T08:00:57Z</time>
      </trkpt>
      <trkpt lat="49.30233" lon="-0.07033">
        <ele>91.94</ele>
        <time>2019-08-21T08:01:00Z</time>
      </trkpt>
      <trkpt lat="49.30189" lon="-0.07025">
        <ele>90.02</ele>
        <time>2019-08-21T08:01:04Z</time>
      </trkpt>
      <trkpt lat="49.30177" lon="-0.07026">
        <ele>90.02</ele>
        <time>2019-08-21T08:01:05Z</time>
      </trkpt>
      <trkpt lat="49.30165" lon="-0.07029">
        <ele>89.54</ele>
        <time>2019-08-21T08:01:06Z</time>
      </trkpt>
      <trkpt lat="49.30128" lon="-0.07047">
        <ele>89.06</ele>
        <time>2019-08-21T08:01:09Z</time>
      </trkpt>
      <trkpt lat="49.30116" lon="-0.07057">
        <ele>89.06</ele>
        <time>2019-08-21T08:01:10Z</time>
      </trkpt>
      <trkpt lat="49.30104" lon="-0.07068">
        <ele>88.58</ele>
        <time>2019-08-21T08:01:11Z</time>
      </trkpt>
      <trkpt lat="49.30094" lon="-0.07082">
        <ele>88.58</ele>
        <time>2019-08-21T08:01:12Z</time>
      </trkpt>
      <trkpt lat="49.30085" lon="-0.07097">
        <ele>88.58</ele>
        <time>2019-08-21T08:01:13Z</time>
      </trkpt>
      <trkpt lat="49.30078" lon="-0.07112">
        <ele>88.1</ele>
        <time>2019-08-21T08:01:14Z</time>
      </trkpt>
      <trkpt lat="49.30073" lon="-0.07128">
        <ele>87.62</ele>
        <time>2019-08-21T08:01:15Z</time>
      </trkpt>
      <trkpt lat="49.30071" lon="-0.07144">
        <ele>87.62</ele>
        <time>2019-08-21T08:01:16Z</time>
      </trkpt>
      <trkpt lat="49.30071" lon="-0.07158">
        <ele>86.66</ele>
        <time>2019-08-21T08:01:17Z</time>
      </trkpt>
      <trkpt lat="49.30073" lon="-0.0717">
        <ele>86.18</ele>
        <time>2019-08-21T08:01:18Z</time>
      </trkpt>
      <trkpt lat="49.30077" lon="-0.0718">
        <ele>85.69</ele>
        <time>2019-08-21T08:01:19Z</time>
      </trkpt>
      <trkpt lat="49.30081" lon="-0.07187">
        <ele>85.21</ele>
        <time>2019-08-21T08:01:20Z</time>
      </trkpt>
      <trkpt lat="49.30086" lon="-0.07194">
        <ele>84.73</ele>
        <time>2019-08-21T08:01:21Z</time>
      </trkpt>
      <trkpt lat="49.30091" lon="-0.07203">
        <ele>84.25</ele>
        <time>2019-08-21T08:01:22Z</time>
      </trkpt>
      <trkpt lat="49.30096" lon="-0.07211">
        <ele>83.77</ele>
        <time>2019-08-21T08:01:23Z</time>
      </trkpt>
      <trkpt lat="49.30101" lon="-0.07219">
        <ele>83.29</ele>
        <time>2019-08-21T08:01:24Z</time>
      </trkpt>
      <trkpt lat="49.30108" lon="-0.07226">
        <ele>82.81</ele>
        <time>2019-08-21T08:01:25Z</time>
      </trkpt>
      <trkpt lat="49.30115" lon="-0.07233">
        <ele>81.85</ele>
        <time>2019-08-21T08:01:26Z</time>
      </trkpt>
      <trkpt lat="49.30122" lon="-0.07239">
        <ele>81.37</ele>
        <time>2019-08-21T08:01:27Z</time>
      </trkpt>
      <trkpt lat="49.3013" lon="-0.07245">
        <ele>80.41</ele>
        <time>2019-08-21T08:01:28Z</time>
      </trkpt>
      <trkpt lat="49.30139" lon="-0.07253">
        <ele>79.45</ele>
        <time>2019-08-21T08:01:29Z</time>
      </trkpt>
      <trkpt lat="49.3023" lon="-0.07339">
        <ele>71.27</ele>
        <time>2019-08-21T08:01:39Z</time>
      </trkpt>
      <trkpt lat="49.30285" lon="-0.07388">
        <ele>67.43</ele>
        <time>2019-08-21T08:01:46Z</time>
      </trkpt>
      <trkpt lat="49.30295" lon="-0.07397">
        <ele>66.95</ele>
        <time>2019-08-21T08:01:48Z</time>
      </trkpt>
      <trkpt lat="49.303" lon="-0.07397">
        <ele>65.99</ele>
        <time>2019-08-21T08:01:49Z</time>
      </trkpt>
      <trkpt lat="49.30307" lon="-0.0739">
        <ele>63.1</ele>
        <time>2019-08-21T08:01:50Z</time>
      </trkpt>
      <trkpt lat="49.30314" lon="-0.07384">
        <ele>60.22</ele>
        <time>2019-08-21T08:01:51Z</time>
      </trkpt>
      <trkpt lat="49.30321" lon="-0.07381">
        <ele>59.26</ele>
        <time>2019-08-21T08:01:52Z</time>
      </trkpt>
      <trkpt lat="49.30327" lon="-0.07382">
        <ele>58.78</ele>
        <time>2019-08-21T08:01:53Z</time>
      </trkpt>
      <trkpt lat="49.30333" lon="-0.07384">
        <ele>58.3</ele>
        <time>2019-08-21T08:01:54Z</time>
      </trkpt>
      <trkpt lat="49.30345" lon="-0.07391">
        <ele>57.82</ele>
        <time>2019-08-21T08:01:56Z</time>
      </trkpt>
      <trkpt lat="49.30369" lon="-0.07416">
        <ele>55.89</ele>
        <time>2019-08-21T08:02:00Z</time>
      </trkpt>
      <trkpt lat="49.30376" lon="-0.07424">
        <ele>55.41</ele>
        <time>2019-08-21T08:02:01Z</time>
      </trkpt>
      <trkpt lat="49.30379" lon="-0.07433">
        <ele>54.93</ele>
        <time>2019-08-21T08:02:02Z</time>
      </trkpt>
      <trkpt lat="49.30383" lon="-0.07452">
        <ele>53.97</ele>
        <time>2019-08-21T08:02:04Z</time>
      </trkpt>
      <trkpt lat="49.30387" lon="-0.07459">
        <ele>53.01</ele>
        <time>2019-08-21T08:02:05Z</time>
      </trkpt>
      <trkpt lat="49.30392" lon="-0.07463">
        <ele>52.53</ele>
        <time>2019-08-21T08:02:06Z</time>
      </trkpt>
      <trkpt lat="49.30418" lon="-0.07486">
        <ele>48.68</ele>
        <time>2019-08-21T08:02:14Z</time>
      </trkpt>
      <trkpt lat="49.30426" lon="-0.07494">
        <ele>47.72</ele>
        <time>2019-08-21T08:02:16Z</time>
      </trkpt>
      <trkpt lat="49.30431" lon="-0.07499">
        <ele>47.72</ele>
        <time>2019-08-21T08:02:17Z</time>
      </trkpt>
      <trkpt lat="49.30458" lon="-0.0751">
        <ele>37.15</ele>
        <time>2019-08-21T08:02:24Z</time>
      </trkpt>
      <trkpt lat="49.30459" lon="-0.07514">
        <ele>36.67</ele>
        <time>2019-08-21T08:02:25Z</time>
      </trkpt>
      <trkpt lat="49.3046" lon="-0.07519">
        <ele>35.71</ele>
        <time>2019-08-21T08:02:26Z</time>
      </trkpt>
      <trkpt lat="49.30461" lon="-0.07526">
        <ele>35.71</ele>
        <time>2019-08-21T08:02:27Z</time>
      </trkpt>
      <trkpt lat="49.30461" lon="-0.07548">
        <ele>34.74</ele>
        <time>2019-08-21T08:02:30Z</time>
      </trkpt>
      <trkpt lat="49.30459" lon="-0.07556">
        <ele>34.26</ele>
        <time>2019-08-21T08:02:31Z</time>
      </trkpt>
      <trkpt lat="49.30418" lon="-0.07661">
        <ele>22.73</ele>
        <time>2019-08-21T08:02:43Z</time>
      </trkpt>
      <trkpt lat="49.30405" lon="-0.07698">
        <ele>19.84</ele>
        <time>2019-08-21T08:02:47Z</time>
      </trkpt>
      <trkpt lat="49.30371" lon="-0.07778">
        <ele>15.52</ele>
        <time>2019-08-21T08:02:57Z</time>
      </trkpt>
      <trkpt lat="49.30356" lon="-0.0781">
        <ele>15.04</ele>
        <time>2019-08-21T08:03:02Z</time>
      </trkpt>
      <trkpt lat="49.30352" lon="-0.07822">
        <ele>15.04</ele>
        <time>2019-08-21T08:03:04Z</time>
      </trkpt>
      <trkpt lat="49.30339" lon="-0.07852">
        <ele>15.52</ele>
        <time>2019-08-21T08:03:09Z</time>
      </trkpt>
      <trkpt lat="49.30308" lon="-0.07928">
        <ele>15.04</ele>
        <time>2019-08-21T08:03:20Z</time>
      </trkpt>
      <trkpt lat="49.30289" lon="-0.07962">
        <ele>14.56</ele>
        <time>2019-08-21T08:03:26Z</time>
      </trkpt>
      <trkpt lat="49.30286" lon="-0.07964">
        <ele>14.08</ele>
        <time>2019-08-21T08:03:27Z</time>
      </trkpt>
      <trkpt lat="49.30283" lon="-0.07963">
        <ele>13.6</ele>
        <time>2019-08-21T08:03:28Z</time>
      </trkpt>
      <trkpt lat="49.30279" lon="-0.07962">
        <ele>13.6</ele>
        <time>2019-08-21T08:03:29Z</time>
      </trkpt>
      <trkpt lat="49.30277" lon="-0.07959">
        <ele>13.12</ele>
        <time>2019-08-21T08:03:30Z</time>
      </trkpt>
      <trkpt lat="49.30275" lon="-0.07956">
        <ele>12.63</ele>
        <time>2019-08-21T08:03:31Z</time>
      </trkpt>
      <trkpt lat="49.30273" lon="-0.07954">
        <ele>12.63</ele>
        <time>2019-08-21T08:03:32Z</time>
      </trkpt>
      <trkpt lat="49.30268" lon="-0.0795">
        <ele>11.67</ele>
        <time>2019-08-21T08:03:38Z</time>
      </trkpt>
      <trkpt lat="49.30267" lon="-0.07954">
        <ele>11.67</ele>
        <time>2019-08-21T08:03:39Z</time>
      </trkpt>
      <trkpt lat="49.30247" lon="-0.08018">
        <ele>8.31</ele>
        <time>2019-08-21T08:03:48Z</time>
      </trkpt>
      <trkpt lat="49.30247" lon="-0.08025">
        <ele>8.31</ele>
        <time>2019-08-21T08:03:49Z</time>
      </trkpt>
      <trkpt lat="49.30245" lon="-0.08033">
        <ele>8.31</ele>
        <time>2019-08-21T08:03:50Z</time>
      </trkpt>
      <trkpt lat="49.30241" lon="-0.08041">
        <ele>7.83</ele>
        <time>2019-08-21T08:03:51Z</time>
      </trkpt>
      <trkpt lat="49.30238" lon="-0.08048">
        <ele>7.35</ele>
        <time>2019-08-21T08:03:52Z</time>
      </trkpt>
      <trkpt lat="49.30234" lon="-0.08055">
        <ele>7.35</ele>
        <time>2019-08-21T08:03:53Z</time>
      </trkpt>
      <trkpt lat="49.3023" lon="-0.08062">
        <ele>6.87</ele>
        <time>2019-08-21T08:03:54Z</time>
      </trkpt>
      <trkpt lat="49.30189" lon="-0.08171">
        <ele>5.42</ele>
        <time>2019-08-21T08:04:07Z</time>
      </trkpt>
      <trkpt lat="49.30185" lon="-0.08178">
        <ele>4.94</ele>
        <time>2019-08-21T08:04:08Z</time>
      </trkpt>
      <trkpt lat="49.3018" lon="-0.08185">
        <ele>4.94</ele>
        <time>2019-08-21T08:04:09Z</time>
      </trkpt>
      <trkpt lat="49.30176" lon="-0.08191">
        <ele>4.94</ele>
        <time>2019-08-21T08:04:10Z</time>
      </trkpt>
      <trkpt lat="49.30172" lon="-0.08198">
        <ele>4.46</ele>
        <time>2019-08-21T08:04:11Z</time>
      </trkpt>
      <trkpt lat="49.30167" lon="-0.08203">
        <ele>4.46</ele>
        <time>2019-08-21T08:04:12Z</time>
      </trkpt>
      <trkpt lat="49.30162" lon="-0.08208">
        <ele>4.46</ele>
        <time>2019-08-21T08:04:13Z</time>
      </trkpt>
      <trkpt lat="49.30077" lon="-0.08293">
        <ele>5.42</ele>
        <time>2019-08-21T08:04:30Z</time>
      </trkpt>
      <trkpt lat="49.3" lon="-0.08372">
        <ele>5.42</ele>
        <time>2019-08-21T08:04:46Z</time>
      </trkpt>
      <trkpt lat="49.2999" lon="-0.08379">
        <ele>5.91</ele>
        <time>2019-08-21T08:04:48Z</time>
      </trkpt>
      <trkpt lat="49.29969" lon="-0.08393">
        <ele>6.87</ele>
        <time>2019-08-21T08:04:52Z</time>
      </trkpt>
      <trkpt lat="49.29965" lon="-0.08399">
        <ele>6.39</ele>
        <time>2019-08-21T08:04:53Z</time>
      </trkpt>
      <trkpt lat="49.29952" lon="-0.08419">
        <ele>5.91</ele>
        <time>2019-08-21T08:04:56Z</time>
      </trkpt>
      <trkpt lat="49.29947" lon="-0.08424">
        <ele>5.91</ele>
        <time>2019-08-21T08:04:57Z</time>
      </trkpt>
      <trkpt lat="49.29915" lon="-0.08461">
        <ele>5.91</ele>
        <time>2019-08-21T08:05:07Z</time>
      </trkpt>
      <trkpt lat="49.29914" lon="-0.08463">
        <ele>5.91</ele>
        <time>2019-08-21T08:05:29Z</time>
      </trkpt>
      <trkpt lat="49.2991" lon="-0.08466">
        <ele>4.94</ele>
        <time>2019-08-21T08:05:47Z</time>
      </trkpt>
      <trkpt lat="49.29909" lon="-0.08467">
        <ele>4.94</ele>
        <time>2019-08-21T08:05:48Z</time>
      </trkpt>
      <trkpt lat="49.29908" lon="-0.08469">
        <ele>4.94</ele>
        <time>2019-08-21T08:05:49Z</time>
      </trkpt>
      <trkpt lat="49.29906" lon="-0.08473">
        <ele>4.94</ele>
        <time>2019-08-21T08:05:52Z</time>
      </trkpt>
      <trkpt lat="49.29905" lon="-0.08474">
        <ele>4.94</ele>
        <time>2019-08-21T08:05:53Z</time>
      </trkpt>
      <trkpt lat="49.29904" lon="-0.08475">
        <ele>5.91</ele>
        <time>2019-08-21T08:06:05Z</time>
      </trkpt>
      <trkpt lat="49.29904" lon="-0.08475">
        <ele>6.39</ele>
        <time>2019-08-21T08:06:10Z</time>
      </trkpt>
      <trkpt lat="49.29902" lon="-0.08475">
        <ele>6.39</ele>
        <time>2019-08-21T08:06:11Z</time>
      </trkpt>
      <trkpt lat="49.299" lon="-0.08476">
        <ele>6.39</ele>
        <time>2019-08-21T08:06:12Z</time>
      </trkpt>
      <trkpt lat="49.29897" lon="-0.08478">
        <ele>6.39</ele>
        <time>2019-08-21T08:06:13Z</time>
      </trkpt>
      <trkpt lat="49.29894" lon="-0.0848">
        <ele>6.39</ele>
        <time>2019-08-21T08:06:14Z</time>
      </trkpt>
      <trkpt lat="49.2989" lon="-0.08483">
        <ele>5.91</ele>
        <time>2019-08-21T08:06:15Z</time>
      </trkpt>
      <trkpt lat="49.29886" lon="-0.08486">
        <ele>5.91</ele>
        <time>2019-08-21T08:06:16Z</time>
      </trkpt>
      <trkpt lat="49.29872" lon="-0.08501">
        <ele>4.46</ele>
        <time>2019-08-21T08:06:19Z</time>
      </trkpt>
      <trkpt lat="49.2979" lon="-0.08587">
        <ele>3.5</ele>
        <time>2019-08-21T08:06:35Z</time>
      </trkpt>
      <trkpt lat="49.29731" lon="-0.08648">
        <ele>2.54</ele>
        <time>2019-08-21T08:06:46Z</time>
      </trkpt>
      <trkpt lat="49.2962" lon="-0.08742">
        <ele>1.58</ele>
        <time>2019-08-21T08:07:06Z</time>
      </trkpt>
      <trkpt lat="49.29587" lon="-0.0877">
        <ele>1.58</ele>
        <time>2019-08-21T08:07:12Z</time>
      </trkpt>
      <trkpt lat="49.29529" lon="-0.08846">
        <ele>1.58</ele>
        <time>2019-08-21T08:07:24Z</time>
      </trkpt>
      <trkpt lat="49.2948" lon="-0.08969">
        <ele>3.5</ele>
        <time>2019-08-21T08:07:39Z</time>
      </trkpt>
      <trkpt lat="49.29471" lon="-0.08993">
        <ele>3.98</ele>
        <time>2019-08-21T08:07:42Z</time>
      </trkpt>
      <trkpt lat="49.2944" lon="-0.0905">
        <ele>3.5</ele>
        <time>2019-08-21T08:07:50Z</time>
      </trkpt>
      <trkpt lat="49.29437" lon="-0.09058">
        <ele>3.5</ele>
        <time>2019-08-21T08:07:51Z</time>
      </trkpt>
      <trkpt lat="49.29401" lon="-0.09166">
        <ele>3.5</ele>
        <time>2019-08-21T08:08:03Z</time>
      </trkpt>
      <trkpt lat="49.29396" lon="-0.09174">
        <ele>3.02</ele>
        <time>2019-08-21T08:08:04Z</time>
      </trkpt>
      <trkpt lat="49.29391" lon="-0.0918">
        <ele>3.5</ele>
        <time>2019-08-21T08:08:05Z</time>
      </trkpt>
      <trkpt lat="49.29303" lon="-0.09278">
        <ele>3.5</ele>
        <time>2019-08-21T08:08:21Z</time>
      </trkpt>
      <trkpt lat="49.29298" lon="-0.09284">
        <ele>3.5</ele>
        <time>2019-08-21T08:08:22Z</time>
      </trkpt>
      <trkpt lat="49.29295" lon="-0.09291">
        <ele>3.5</ele>
        <time>2019-08-21T08:08:23Z</time>
      </trkpt>
      <trkpt lat="49.29293" lon="-0.093">
        <ele>3.02</ele>
        <time>2019-08-21T08:08:24Z</time>
      </trkpt>
      <trkpt lat="49.29292" lon="-0.0931">
        <ele>2.54</ele>
        <time>2019-08-21T08:08:25Z</time>
      </trkpt>
      <trkpt lat="49.29293" lon="-0.09319">
        <ele>3.02</ele>
        <time>2019-08-21T08:08:26Z</time>
      </trkpt>
      <trkpt lat="49.29293" lon="-0.09329">
        <ele>3.5</ele>
        <time>2019-08-21T08:08:27Z</time>
      </trkpt>
      <trkpt lat="49.29295" lon="-0.09369">
        <ele>3.5</ele>
        <time>2019-08-21T08:08:31Z</time>
      </trkpt>
      <trkpt lat="49.29294" lon="-0.09379">
        <ele>3.5</ele>
        <time>2019-08-21T08:08:32Z</time>
      </trkpt>
      <trkpt lat="49.29292" lon="-0.09388">
        <ele>3.5</ele>
        <time>2019-08-21T08:08:33Z</time>
      </trkpt>
      <trkpt lat="49.2929" lon="-0.09397">
        <ele>3.5</ele>
        <time>2019-08-21T08:08:34Z</time>
      </trkpt>
      <trkpt lat="49.29286" lon="-0.09406">
        <ele>3.98</ele>
        <time>2019-08-21T08:08:35Z</time>
      </trkpt>
      <trkpt lat="49.29282" lon="-0.09413">
        <ele>3.98</ele>
        <time>2019-08-21T08:08:36Z</time>
      </trkpt>
      <trkpt lat="49.29278" lon="-0.09421">
        <ele>3.98</ele>
        <time>2019-08-21T08:08:37Z</time>
      </trkpt>
      <trkpt lat="49.29273" lon="-0.09428">
        <ele>3.98</ele>
        <time>2019-08-21T08:08:38Z</time>
      </trkpt>
      <trkpt lat="49.29198" lon="-0.09511">
        <ele>3.98</ele>
        <time>2019-08-21T08:08:52Z</time>
      </trkpt>
      <trkpt lat="49.29103" lon="-0.09621">
        <ele>3.98</ele>
        <time>2019-08-21T08:09:11Z</time>
      </trkpt>
      <trkpt lat="49.29102" lon="-0.09628">
        <ele>3.98</ele>
        <time>2019-08-21T08:09:12Z</time>
      </trkpt>
      <trkpt lat="49.29103" lon="-0.09636">
        <ele>3.98</ele>
        <time>2019-08-21T08:09:13Z</time>
      </trkpt>
      <trkpt lat="49.29105" lon="-0.09643">
        <ele>3.5</ele>
        <time>2019-08-21T08:09:14Z</time>
      </trkpt>
      <trkpt lat="49.29108" lon="-0.0965">
        <ele>3.02</ele>
        <time>2019-08-21T08:09:15Z</time>
      </trkpt>
      <trkpt lat="49.2911" lon="-0.09659">
        <ele>3.02</ele>
        <time>2019-08-21T08:09:16Z</time>
      </trkpt>
      <trkpt lat="49.29112" lon="-0.09668">
        <ele>2.54</ele>
        <time>2019-08-21T08:09:17Z</time>
      </trkpt>
      <trkpt lat="49.29112" lon="-0.09677">
        <ele>2.54</ele>
        <time>2019-08-21T08:09:18Z</time>
      </trkpt>
      <trkpt lat="49.29111" lon="-0.09686">
        <ele>2.06</ele>
        <time>2019-08-21T08:09:19Z</time>
      </trkpt>
      <trkpt lat="49.29108" lon="-0.09695">
        <ele>2.06</ele>
        <time>2019-08-21T08:09:20Z</time>
      </trkpt>
      <trkpt lat="49.29101" lon="-0.09723">
        <ele>2.06</ele>
        <time>2019-08-21T08:09:23Z</time>
      </trkpt>
      <trkpt lat="49.29101" lon="-0.09732">
        <ele>1.58</ele>
        <time>2019-08-21T08:09:24Z</time>
      </trkpt>
      <trkpt lat="49.29101" lon="-0.09742">
        <ele>1.58</ele>
        <time>2019-08-21T08:09:25Z</time>
      </trkpt>
      <trkpt lat="49.29101" lon="-0.09752">
        <ele>1.1</ele>
        <time>2019-08-21T08:09:26Z</time>
      </trkpt>
      <trkpt lat="49.29103" lon="-0.09761">
        <ele>0.62</ele>
        <time>2019-08-21T08:09:27Z</time>
      </trkpt>
      <trkpt lat="49.29105" lon="-0.09771">
        <ele>0.62</ele>
        <time>2019-08-21T08:09:28Z</time>
      </trkpt>
      <trkpt lat="49.2913" lon="-0.09881">
        <ele>-1.79</ele>
        <time>2019-08-21T08:09:40Z</time>
      </trkpt>
      <trkpt lat="49.29139" lon="-0.09925">
        <ele>-1.79</ele>
        <time>2019-08-21T08:09:45Z</time>
      </trkpt>
      <trkpt lat="49.2914" lon="-0.09933">
        <ele>-1.79</ele>
        <time>2019-08-21T08:09:46Z</time>
      </trkpt>
      <trkpt lat="49.29144" lon="-0.09957">
        <ele>-1.79</ele>
        <time>2019-08-21T08:09:49Z</time>
      </trkpt>
      <trkpt lat="49.29144" lon="-0.09965">
        <ele>-1.79</ele>
        <time>2019-08-21T08:09:50Z</time>
      </trkpt>
      <trkpt lat="49.29142" lon="-0.10001">
        <ele>-1.3</ele>
        <time>2019-08-21T08:09:54Z</time>
      </trkpt>
      <trkpt lat="49.2914" lon="-0.10009">
        <ele>-0.82</ele>
        <time>2019-08-21T08:09:55Z</time>
      </trkpt>
      <trkpt lat="49.29138" lon="-0.10017">
        <ele>-0.82</ele>
        <time>2019-08-21T08:09:56Z</time>
      </trkpt>
      <trkpt lat="49.29136" lon="-0.10023">
        <ele>-0.34</ele>
        <time>2019-08-21T08:09:57Z</time>
      </trkpt>
      <trkpt lat="49.29132" lon="-0.1003">
        <ele>-0.34</ele>
        <time>2019-08-21T08:09:58Z</time>
      </trkpt>
      <trkpt lat="49.29083" lon="-0.10109">
        <ele>0.62</ele>
        <time>2019-08-21T08:10:10Z</time>
      </trkpt>
      <trkpt lat="49.29018" lon="-0.1019">
        <ele>1.1</ele>
        <time>2019-08-21T08:10:23Z</time>
      </trkpt>
      <trkpt lat="49.28978" lon="-0.10249">
        <ele>1.58</ele>
        <time>2019-08-21T08:10:32Z</time>
      </trkpt>
      <trkpt lat="49.28974" lon="-0.10257">
        <ele>1.58</ele>
        <time>2019-08-21T08:10:33Z</time>
      </trkpt>
      <trkpt lat="49.28967" lon="-0.10273">
        <ele>2.06</ele>
        <time>2019-08-21T08:10:35Z</time>
      </trkpt>
      <trkpt lat="49.28963" lon="-0.1028">
        <ele>1.58</ele>
        <time>2019-08-21T08:10:36Z</time>
      </trkpt>
      <trkpt lat="49.28932" lon="-0.10325">
        <ele>1.1</ele>
        <time>2019-08-21T08:10:43Z</time>
      </trkpt>
      <trkpt lat="49.28861" lon="-0.10396">
        <ele>2.06</ele>
        <time>2019-08-21T08:10:57Z</time>
      </trkpt>
      <trkpt lat="49.28851" lon="-0.10408">
        <ele>1.58</ele>
        <time>2019-08-21T08:10:59Z</time>
      </trkpt>
      <trkpt lat="49.28785" lon="-0.10521">
        <ele>3.5</ele>
        <time>2019-08-21T08:11:15Z</time>
      </trkpt>
      <trkpt lat="49.28769" lon="-0.10558">
        <ele>3.5</ele>
        <time>2019-08-21T08:11:20Z</time>
      </trkpt>
      <trkpt lat="49.28767" lon="-0.10567">
        <ele>3.98</ele>
        <time>2019-08-21T08:11:21Z</time>
      </trkpt>
      <trkpt lat="49.28762" lon="-0.10585">
        <ele>3.98</ele>
        <time>2019-08-21T08:11:23Z</time>
      </trkpt>
      <trkpt lat="49.28759" lon="-0.10593">
        <ele>3.98</ele>
        <time>2019-08-21T08:11:24Z</time>
      </trkpt>
      <trkpt lat="49.28755" lon="-0.10601">
        <ele>3.98</ele>
        <time>2019-08-21T08:11:25Z</time>
      </trkpt>
      <trkpt lat="49.28693" lon="-0.10708">
        <ele>4.46</ele>
        <time>2019-08-21T08:11:40Z</time>
      </trkpt>
      <trkpt lat="49.28683" lon="-0.10719">
        <ele>4.46</ele>
        <time>2019-08-21T08:11:42Z</time>
      </trkpt>
      <trkpt lat="49.28677" lon="-0.10724">
        <ele>4.46</ele>
        <time>2019-08-21T08:11:43Z</time>
      </trkpt>
      <trkpt lat="49.28672" lon="-0.10728">
        <ele>4.46</ele>
        <time>2019-08-21T08:11:44Z</time>
      </trkpt>
      <trkpt lat="49.28665" lon="-0.10731">
        <ele>4.94</ele>
        <time>2019-08-21T08:11:45Z</time>
      </trkpt>
      <trkpt lat="49.28659" lon="-0.10734">
        <ele>4.94</ele>
        <time>2019-08-21T08:11:46Z</time>
      </trkpt>
      <trkpt lat="49.28653" lon="-0.10737">
        <ele>4.94</ele>
        <time>2019-08-21T08:11:47Z</time>
      </trkpt>
      <trkpt lat="49.28647" lon="-0.1074">
        <ele>4.46</ele>
        <time>2019-08-21T08:11:48Z</time>
      </trkpt>
      <trkpt lat="49.28642" lon="-0.10745">
        <ele>4.94</ele>
        <time>2019-08-21T08:11:49Z</time>
      </trkpt>
      <trkpt lat="49.28627" lon="-0.10761">
        <ele>4.94</ele>
        <time>2019-08-21T08:11:52Z</time>
      </trkpt>
      <trkpt lat="49.28623" lon="-0.10768">
        <ele>4.94</ele>
        <time>2019-08-21T08:11:53Z</time>
      </trkpt>
      <trkpt lat="49.28619" lon="-0.10776">
        <ele>4.94</ele>
        <time>2019-08-21T08:11:54Z</time>
      </trkpt>
      <trkpt lat="49.28616" lon="-0.10785">
        <ele>4.94</ele>
        <time>2019-08-21T08:11:55Z</time>
      </trkpt>
      <trkpt lat="49.28613" lon="-0.10793">
        <ele>5.42</ele>
        <time>2019-08-21T08:11:56Z</time>
      </trkpt>
      <trkpt lat="49.2861" lon="-0.10802">
        <ele>5.42</ele>
        <time>2019-08-21T08:11:57Z</time>
      </trkpt>
      <trkpt lat="49.28606" lon="-0.10809">
        <ele>4.94</ele>
        <time>2019-08-21T08:11:58Z</time>
      </trkpt>
      <trkpt lat="49.28601" lon="-0.10815">
        <ele>4.94</ele>
        <time>2019-08-21T08:11:59Z</time>
      </trkpt>
      <trkpt lat="49.28595" lon="-0.10818">
        <ele>4.94</ele>
        <time>2019-08-21T08:12:00Z</time>
      </trkpt>
      <trkpt lat="49.2859" lon="-0.10821">
        <ele>4.94</ele>
        <time>2019-08-21T08:12:01Z</time>
      </trkpt>
      <trkpt lat="49.28544" lon="-0.10846">
        <ele>5.91</ele>
        <time>2019-08-21T08:12:09Z</time>
      </trkpt>
      <trkpt lat="49.28541" lon="-0.10854">
        <ele>5.42</ele>
        <time>2019-08-21T08:12:10Z</time>
      </trkpt>
      <trkpt lat="49.28541" lon="-0.10863">
        <ele>5.42</ele>
        <time>2019-08-21T08:12:11Z</time>
      </trkpt>
      <trkpt lat="49.28542" lon="-0.10871">
        <ele>5.42</ele>
        <time>2019-08-21T08:12:12Z</time>
      </trkpt>
      <trkpt lat="49.28543" lon="-0.10879">
        <ele>5.42</ele>
        <time>2019-08-21T08:12:13Z</time>
      </trkpt>
      <trkpt lat="49.28543" lon="-0.10887">
        <ele>4.94</ele>
        <time>2019-08-21T08:12:14Z</time>
      </trkpt>
      <trkpt lat="49.28542" lon="-0.10894">
        <ele>4.94</ele>
        <time>2019-08-21T08:12:15Z</time>
      </trkpt>
      <trkpt lat="49.2854" lon="-0.10898">
        <ele>4.94</ele>
        <time>2019-08-21T08:12:16Z</time>
      </trkpt>
      <trkpt lat="49.28538" lon="-0.10902">
        <ele>4.46</ele>
        <time>2019-08-21T08:12:17Z</time>
      </trkpt>
      <trkpt lat="49.28535" lon="-0.10905">
        <ele>4.46</ele>
        <time>2019-08-21T08:12:18Z</time>
      </trkpt>
      <trkpt lat="49.28532" lon="-0.10907">
        <ele>4.46</ele>
        <time>2019-08-21T08:12:19Z</time>
      </trkpt>
      <trkpt lat="49.28529" lon="-0.1091">
        <ele>4.94</ele>
        <time>2019-08-21T08:12:20Z</time>
      </trkpt>
      <trkpt lat="49.28528" lon="-0.10915">
        <ele>4.46</ele>
        <time>2019-08-21T08:12:21Z</time>
      </trkpt>
      <trkpt lat="49.28527" lon="-0.10922">
        <ele>4.94</ele>
        <time>2019-08-21T08:12:22Z</time>
      </trkpt>
      <trkpt lat="49.28527" lon="-0.1093">
        <ele>4.46</ele>
        <time>2019-08-21T08:12:23Z</time>
      </trkpt>
      <trkpt lat="49.28527" lon="-0.10936">
        <ele>4.46</ele>
        <time>2019-08-21T08:12:24Z</time>
      </trkpt>
      <trkpt lat="49.28528" lon="-0.10942">
        <ele>4.94</ele>
        <time>2019-08-21T08:12:25Z</time>
      </trkpt>
      <trkpt lat="49.28529" lon="-0.10947">
        <ele>4.94</ele>
        <time>2019-08-21T08:12:26Z</time>
      </trkpt>
      <trkpt lat="49.2853" lon="-0.1095">
        <ele>4.94</ele>
        <time>2019-08-21T08:12:27Z</time>
      </trkpt>
      <trkpt lat="49.2853" lon="-0.10952">
        <ele>4.94</ele>
        <time>2019-08-21T08:12:28Z</time>
      </trkpt>
      <trkpt lat="49.28531" lon="-0.10956">
        <ele>4.94</ele>
        <time>2019-08-21T08:12:31Z</time>
      </trkpt>
      <trkpt lat="49.28532" lon="-0.10958">
        <ele>4.94</ele>
        <time>2019-08-21T08:12:32Z</time>
      </trkpt>
      <trkpt lat="49.2854" lon="-0.11008">
        <ele>4.46</ele>
        <time>2019-08-21T08:12:42Z</time>
      </trkpt>
      <trkpt lat="49.28551" lon="-0.11057">
        <ele>5.42</ele>
        <time>2019-08-21T08:12:51Z</time>
      </trkpt>
      <trkpt lat="49.2857" lon="-0.11129">
        <ele>6.39</ele>
        <time>2019-08-21T08:13:04Z</time>
      </trkpt>
      <trkpt lat="49.28573" lon="-0.11136">
        <ele>6.87</ele>
        <time>2019-08-21T08:13:11Z</time>
      </trkpt>
      <trkpt lat="49.28579" lon="-0.11162">
        <ele>8.31</ele>
        <time>2019-08-21T08:13:27Z</time>
      </trkpt>
      <trkpt lat="49.2858" lon="-0.11179">
        <ele>8.31</ele>
        <time>2019-08-21T08:13:42Z</time>
      </trkpt>
      <trkpt lat="49.28581" lon="-0.1118">
        <ele>8.79</ele>
        <time>2019-08-21T08:14:05Z</time>
      </trkpt>
      <trkpt lat="49.28581" lon="-0.11185">
        <ele>8.79</ele>
        <time>2019-08-21T08:14:22Z</time>
      </trkpt>
      <trkpt lat="49.28581" lon="-0.11187">
        <ele>8.79</ele>
        <time>2019-08-21T08:14:23Z</time>
      </trkpt>
      <trkpt lat="49.28585" lon="-0.11205">
        <ele>8.31</ele>
        <time>2019-08-21T08:14:37Z</time>
      </trkpt>
      <trkpt lat="49.28587" lon="-0.11225">
        <ele>9.27</ele>
        <time>2019-08-21T08:14:52Z</time>
      </trkpt>
      <trkpt lat="49.28588" lon="-0.1123">
        <ele>9.27</ele>
        <time>2019-08-21T08:15:09Z</time>
      </trkpt>
      <trkpt lat="49.28591" lon="-0.11249">
        <ele>9.75</ele>
        <time>2019-08-21T08:15:24Z</time>
      </trkpt>
      <trkpt lat="49.286" lon="-0.11249">
        <ele>9.75</ele>
        <time>2019-08-21T08:15:37Z</time>
      </trkpt>
      <trkpt lat="49.286" lon="-0.11249">
        <ele>8.79</ele>
        <time>2019-08-21T08:16:06Z</time>
      </trkpt>
      <trkpt lat="49.286" lon="-0.11249">
        <ele>8.79</ele>
        <time>2019-08-21T08:16:26Z</time>
      </trkpt>
      <trkpt lat="49.28603" lon="-0.11267">
        <ele>7.83</ele>
        <time>2019-08-21T08:16:31Z</time>
      </trkpt>
      <trkpt lat="49.28606" lon="-0.11273">
        <ele>7.35</ele>
        <time>2019-08-21T08:16:32Z</time>
      </trkpt>
      <trkpt lat="49.28608" lon="-0.1128">
        <ele>7.35</ele>
        <time>2019-08-21T08:16:33Z</time>
      </trkpt>
      <trkpt lat="49.28611" lon="-0.11293">
        <ele>6.87</ele>
        <time>2019-08-21T08:16:35Z</time>
      </trkpt>
      <trkpt lat="49.28613" lon="-0.11307">
        <ele>6.39</ele>
        <time>2019-08-21T08:16:37Z</time>
      </trkpt>
      <trkpt lat="49.28615" lon="-0.11314">
        <ele>6.39</ele>
        <time>2019-08-21T08:16:38Z</time>
      </trkpt>
      <trkpt lat="49.28617" lon="-0.11322">
        <ele>6.39</ele>
        <time>2019-08-21T08:16:39Z</time>
      </trkpt>
      <trkpt lat="49.28632" lon="-0.11365">
        <ele>5.91</ele>
        <time>2019-08-21T08:16:45Z</time>
      </trkpt>
      <trkpt lat="49.28634" lon="-0.11373">
        <ele>5.91</ele>
        <time>2019-08-21T08:16:46Z</time>
      </trkpt>
      <trkpt lat="49.28636" lon="-0.1138">
        <ele>5.91</ele>
        <time>2019-08-21T08:16:47Z</time>
      </trkpt>
      <trkpt lat="49.28675" lon="-0.11504">
        <ele>7.35</ele>
        <time>2019-08-21T08:17:03Z</time>
      </trkpt>
      <trkpt lat="49.28691" lon="-0.11611">
        <ele>8.79</ele>
        <time>2019-08-21T08:17:15Z</time>
      </trkpt>
      <trkpt lat="49.28693" lon="-0.11651">
        <ele>8.79</ele>
        <time>2019-08-21T08:17:23Z</time>
      </trkpt>
      <trkpt lat="49.28694" lon="-0.11654">
        <ele>7.83</ele>
        <time>2019-08-21T08:17:25Z</time>
      </trkpt>
      <trkpt lat="49.28695" lon="-0.11655">
        <ele>7.83</ele>
        <time>2019-08-21T08:17:26Z</time>
      </trkpt>
      <trkpt lat="49.28696" lon="-0.11657">
        <ele>7.35</ele>
        <time>2019-08-21T08:17:27Z</time>
      </trkpt>
      <trkpt lat="49.28696" lon="-0.1166">
        <ele>7.35</ele>
        <time>2019-08-21T08:17:28Z</time>
      </trkpt>
      <trkpt lat="49.28698" lon="-0.11662">
        <ele>6.87</ele>
        <time>2019-08-21T08:17:29Z</time>
      </trkpt>
      <trkpt lat="49.287" lon="-0.11663">
        <ele>6.87</ele>
        <time>2019-08-21T08:17:30Z</time>
      </trkpt>
      <trkpt lat="49.28703" lon="-0.11662">
        <ele>6.39</ele>
        <time>2019-08-21T08:17:31Z</time>
      </trkpt>
      <trkpt lat="49.28706" lon="-0.11662">
        <ele>6.39</ele>
        <time>2019-08-21T08:17:32Z</time>
      </trkpt>
      <trkpt lat="49.28753" lon="-0.11654">
        <ele>3.5</ele>
        <time>2019-08-21T08:17:41Z</time>
      </trkpt>
      <trkpt lat="49.28794" lon="-0.11652">
        <ele>3.02</ele>
        <time>2019-08-21T08:17:48Z</time>
      </trkpt>
      <trkpt lat="49.2881" lon="-0.11652">
        <ele>3.02</ele>
        <time>2019-08-21T08:17:54Z</time>
      </trkpt>
      <trkpt lat="49.28833" lon="-0.1165">
        <ele>3.5</ele>
        <time>2019-08-21T08:18:05Z</time>
      </trkpt>
      <trkpt lat="49.28876" lon="-0.11643">
        <ele>3.02</ele>
        <time>2019-08-21T08:18:14Z</time>
      </trkpt>
      <trkpt lat="49.28881" lon="-0.11644">
        <ele>3.02</ele>
        <time>2019-08-21T08:18:15Z</time>
      </trkpt>
      <trkpt lat="49.28916" lon="-0.11635">
        <ele>0.62</ele>
        <time>2019-08-21T08:18:24Z</time>
      </trkpt>
      <trkpt lat="49.2892" lon="-0.11633">
        <ele>0.62</ele>
        <time>2019-08-21T08:18:25Z</time>
      </trkpt>
      <trkpt lat="49.28924" lon="-0.11633">
        <ele>0.62</ele>
        <time>2019-08-21T08:18:26Z</time>
      </trkpt>
      <trkpt lat="49.28961" lon="-0.11625">
        <ele>2.06</ele>
        <time>2019-08-21T08:18:34Z</time>
      </trkpt>
      <trkpt lat="49.28975" lon="-0.11623">
        <ele>2.54</ele>
        <time>2019-08-21T08:18:37Z</time>
      </trkpt>
      <trkpt lat="49.28984" lon="-0.11623">
        <ele>2.54</ele>
        <time>2019-08-21T08:18:39Z</time>
      </trkpt>
      <trkpt lat="49.28989" lon="-0.11622">
        <ele>3.02</ele>
        <time>2019-08-21T08:18:40Z</time>
      </trkpt>
      <trkpt lat="49.28993" lon="-0.1162">
        <ele>2.54</ele>
        <time>2019-08-21T08:18:41Z</time>
      </trkpt>
      <trkpt lat="49.28996" lon="-0.11619">
        <ele>2.54</ele>
        <time>2019-08-21T08:18:42Z</time>
      </trkpt>
      <trkpt lat="49.29" lon="-0.11619">
        <ele>2.54</ele>
        <time>2019-08-21T08:18:43Z</time>
      </trkpt>
      <trkpt lat="49.29005" lon="-0.11619">
        <ele>2.54</ele>
        <time>2019-08-21T08:18:44Z</time>
      </trkpt>
      <trkpt lat="49.29009" lon="-0.11618">
        <ele>2.54</ele>
        <time>2019-08-21T08:18:45Z</time>
      </trkpt>
      <trkpt lat="49.29013" lon="-0.11617">
        <ele>2.54</ele>
        <time>2019-08-21T08:18:46Z</time>
      </trkpt>
      <trkpt lat="49.29028" lon="-0.11615">
        <ele>2.54</ele>
        <time>2019-08-21T08:18:49Z</time>
      </trkpt>
      <trkpt lat="49.29038" lon="-0.11614">
        <ele>2.06</ele>
        <time>2019-08-21T08:18:51Z</time>
      </trkpt>
      <trkpt lat="49.29043" lon="-0.11613">
        <ele>2.54</ele>
        <time>2019-08-21T08:18:52Z</time>
      </trkpt>
      <trkpt lat="49.29048" lon="-0.11611">
        <ele>2.54</ele>
        <time>2019-08-21T08:18:53Z</time>
      </trkpt>
      <trkpt lat="49.29052" lon="-0.11611">
        <ele>2.54</ele>
        <time>2019-08-21T08:18:54Z</time>
      </trkpt>
      <trkpt lat="49.29057" lon="-0.1161">
        <ele>3.02</ele>
        <time>2019-08-21T08:18:55Z</time>
      </trkpt>
      <trkpt lat="49.29061" lon="-0.11609">
        <ele>3.02</ele>
        <time>2019-08-21T08:18:56Z</time>
      </trkpt>
      <trkpt lat="49.29065" lon="-0.11609">
        <ele>3.02</ele>
        <time>2019-08-21T08:18:57Z</time>
      </trkpt>
      <trkpt lat="49.29069" lon="-0.11609">
        <ele>3.02</ele>
        <time>2019-08-21T08:18:58Z</time>
      </trkpt>
      <trkpt lat="49.29074" lon="-0.11608">
        <ele>3.5</ele>
        <time>2019-08-21T08:18:59Z</time>
      </trkpt>
      <trkpt lat="49.2913" lon="-0.11597">
        <ele>-2.75</ele>
        <time>2019-08-21T08:19:12Z</time>
      </trkpt>
      <trkpt lat="49.29132" lon="-0.11599">
        <ele>-3.71</ele>
        <time>2019-08-21T08:19:14Z</time>
      </trkpt>
      <trkpt lat="49.29134" lon="-0.11599">
        <ele>-4.67</ele>
        <time>2019-08-21T08:19:15Z</time>
      </trkpt>
      <trkpt lat="49.29135" lon="-0.11599">
        <ele>-5.15</ele>
        <time>2019-08-21T08:19:16Z</time>
      </trkpt>
      <trkpt lat="49.29146" lon="-0.11597">
        <ele>-11.4</ele>
        <time>2019-08-21T08:19:27Z</time>
      </trkpt>
      <trkpt lat="49.29154" lon="-0.11592">
        <ele>-16.69</ele>
        <time>2019-08-21T08:19:32Z</time>
      </trkpt>
      <trkpt lat="49.29155" lon="-0.11591">
        <ele>-17.17</ele>
        <time>2019-08-21T08:19:33Z</time>
      </trkpt>
      <trkpt lat="49.29158" lon="-0.11589">
        <ele>-18.13</ele>
        <time>2019-08-21T08:19:34Z</time>
      </trkpt>
      <trkpt lat="49.2916" lon="-0.11587">
        <ele>-19.09</ele>
        <time>2019-08-21T08:19:35Z</time>
      </trkpt>
      <trkpt lat="49.29162" lon="-0.11585">
        <ele>-20.53</ele>
        <time>2019-08-21T08:19:36Z</time>
      </trkpt>
      <trkpt lat="49.29165" lon="-0.11584">
        <ele>-21.49</ele>
        <time>2019-08-21T08:19:37Z</time>
      </trkpt>
      <trkpt lat="49.29177" lon="-0.11581">
        <ele>-23.9</ele>
        <time>2019-08-21T08:19:41Z</time>
      </trkpt>
      <trkpt lat="49.29179" lon="-0.11582">
        <ele>-24.86</ele>
        <time>2019-08-21T08:19:42Z</time>
      </trkpt>
      <trkpt lat="49.29181" lon="-0.11582">
        <ele>-25.34</ele>
        <time>2019-08-21T08:19:43Z</time>
      </trkpt>
      <trkpt lat="49.29195" lon="-0.11584">
        <ele>-22.93</ele>
        <time>2019-08-21T08:19:47Z</time>
      </trkpt>
      <trkpt lat="49.29198" lon="-0.11586">
        <ele>-20.05</ele>
        <time>2019-08-21T08:19:48Z</time>
      </trkpt>
      <trkpt lat="49.29202" lon="-0.11587">
        <ele>-18.13</ele>
        <time>2019-08-21T08:19:49Z</time>
      </trkpt>
      <trkpt lat="49.29214" lon="-0.11582">
        <ele>-9.48</ele>
        <time>2019-08-21T08:19:57Z</time>
      </trkpt>
      <trkpt lat="49.29229" lon="-0.11581">
        <ele>-5.63</ele>
        <time>2019-08-21T08:20:04Z</time>
      </trkpt>
      <trkpt lat="49.29231" lon="-0.11581">
        <ele>-4.67</ele>
        <time>2019-08-21T08:20:05Z</time>
      </trkpt>
      <trkpt lat="49.29233" lon="-0.11579">
        <ele>-3.71</ele>
        <time>2019-08-21T08:20:06Z</time>
      </trkpt>
      <trkpt lat="49.29235" lon="-0.11577">
        <ele>-3.23</ele>
        <time>2019-08-21T08:20:07Z</time>
      </trkpt>
      <trkpt lat="49.29237" lon="-0.11574">
        <ele>-2.75</ele>
        <time>2019-08-21T08:20:08Z</time>
      </trkpt>
      <trkpt lat="49.29238" lon="-0.1157">
        <ele>-2.27</ele>
        <time>2019-08-21T08:20:09Z</time>
      </trkpt>
      <trkpt lat="49.29239" lon="-0.11565">
        <ele>-1.79</ele>
        <time>2019-08-21T08:20:10Z</time>
      </trkpt>
      <trkpt lat="49.29246" lon="-0.11545">
        <ele>0.14</ele>
        <time>2019-08-21T08:20:14Z</time>
      </trkpt>
      <trkpt lat="49.29249" lon="-0.11539">
        <ele>0.62</ele>
        <time>2019-08-21T08:20:15Z</time>
      </trkpt>
      <trkpt lat="49.29251" lon="-0.11534">
        <ele>0.62</ele>
        <time>2019-08-21T08:20:16Z</time>
      </trkpt>
      <trkpt lat="49.29255" lon="-0.11529">
        <ele>1.1</ele>
        <time>2019-08-21T08:20:17Z</time>
      </trkpt>
      <trkpt lat="49.29259" lon="-0.11526">
        <ele>1.1</ele>
        <time>2019-08-21T08:20:18Z</time>
      </trkpt>
      <trkpt lat="49.29264" lon="-0.11526">
        <ele>1.58</ele>
        <time>2019-08-21T08:20:19Z</time>
      </trkpt>
      <trkpt lat="49.29269" lon="-0.11526">
        <ele>1.58</ele>
        <time>2019-08-21T08:20:20Z</time>
      </trkpt>
      <trkpt lat="49.29274" lon="-0.11526">
        <ele>2.06</ele>
        <time>2019-08-21T08:20:21Z</time>
      </trkpt>
      <trkpt lat="49.29279" lon="-0.11525">
        <ele>2.54</ele>
        <time>2019-08-21T08:20:22Z</time>
      </trkpt>
      <trkpt lat="49.29289" lon="-0.1152">
        <ele>2.54</ele>
        <time>2019-08-21T08:20:24Z</time>
      </trkpt>
      <trkpt lat="49.29294" lon="-0.11517">
        <ele>2.54</ele>
        <time>2019-08-21T08:20:25Z</time>
      </trkpt>
      <trkpt lat="49.29299" lon="-0.11514">
        <ele>2.54</ele>
        <time>2019-08-21T08:20:26Z</time>
      </trkpt>
      <trkpt lat="49.29304" lon="-0.1151">
        <ele>3.02</ele>
        <time>2019-08-21T08:20:27Z</time>
      </trkpt>
      <trkpt lat="49.29309" lon="-0.11505">
        <ele>3.02</ele>
        <time>2019-08-21T08:20:28Z</time>
      </trkpt>
      <trkpt lat="49.29314" lon="-0.11501">
        <ele>3.02</ele>
        <time>2019-08-21T08:20:29Z</time>
      </trkpt>
      <trkpt lat="49.29319" lon="-0.11499">
        <ele>3.02</ele>
        <time>2019-08-21T08:20:30Z</time>
      </trkpt>
      <trkpt lat="49.29324" lon="-0.11499">
        <ele>3.02</ele>
        <time>2019-08-21T08:20:31Z</time>
      </trkpt>
      <trkpt lat="49.29341" lon="-0.11501">
        <ele>3.5</ele>
        <time>2019-08-21T08:20:34Z</time>
      </trkpt>
      <trkpt lat="49.29346" lon="-0.11503">
        <ele>3.5</ele>
        <time>2019-08-21T08:20:35Z</time>
      </trkpt>
      <trkpt lat="49.29351" lon="-0.11506">
        <ele>3.98</ele>
        <time>2019-08-21T08:20:36Z</time>
      </trkpt>
      <trkpt lat="49.29355" lon="-0.11509">
        <ele>3.98</ele>
        <time>2019-08-21T08:20:37Z</time>
      </trkpt>
      <trkpt lat="49.29359" lon="-0.11512">
        <ele>3.98</ele>
        <time>2019-08-21T08:20:38Z</time>
      </trkpt>
      <trkpt lat="49.29363" lon="-0.11516">
        <ele>3.98</ele>
        <time>2019-08-21T08:20:39Z</time>
      </trkpt>
      <trkpt lat="49.29366" lon="-0.11519">
        <ele>3.98</ele>
        <time>2019-08-21T08:20:40Z</time>
      </trkpt>
      <trkpt lat="49.29372" lon="-0.11523">
        <ele>4.46</ele>
        <time>2019-08-21T08:20:42Z</time>
      </trkpt>
      <trkpt lat="49.29375" lon="-0.11522">
        <ele>4.46</ele>
        <time>2019-08-21T08:20:43Z</time>
      </trkpt>
      <trkpt lat="49.29377" lon="-0.1152">
        <ele>4.46</ele>
        <time>2019-08-21T08:20:44Z</time>
      </trkpt>
      <trkpt lat="49.29386" lon="-0.11494">
        <ele>5.42</ele>
        <time>2019-08-21T08:20:49Z</time>
      </trkpt>
      <trkpt lat="49.29396" lon="-0.11456">
        <ele>4.46</ele>
        <time>2019-08-21T08:20:57Z</time>
      </trkpt>
      <trkpt lat="49.29397" lon="-0.11455">
        <ele>4.46</ele>
        <time>2019-08-21T08:20:58Z</time>
      </trkpt>
      <trkpt lat="49.29397" lon="-0.11452">
        <ele>3.98</ele>
        <time>2019-08-21T08:20:59Z</time>
      </trkpt>
      <trkpt lat="49.29397" lon="-0.1145">
        <ele>3.98</ele>
        <time>2019-08-21T08:21:00Z</time>
      </trkpt>
      <trkpt lat="49.29395" lon="-0.1145">
        <ele>4.46</ele>
        <time>2019-08-21T08:21:01Z</time>
      </trkpt>
      <trkpt lat="49.29394" lon="-0.1145">
        <ele>4.46</ele>
        <time>2019-08-21T08:21:02Z</time>
      </trkpt>
      <trkpt lat="49.29392" lon="-0.11451">
        <ele>4.46</ele>
        <time>2019-08-21T08:21:03Z</time>
      </trkpt>
      <trkpt lat="49.29392" lon="-0.11453">
        <ele>3.98</ele>
        <time>2019-08-21T08:21:04Z</time>
      </trkpt>
      <trkpt lat="49.29393" lon="-0.11456">
        <ele>3.98</ele>
        <time>2019-08-21T08:21:05Z</time>
      </trkpt>
      <trkpt lat="49.29393" lon="-0.1146">
        <ele>3.98</ele>
        <time>2019-08-21T08:21:06Z</time>
      </trkpt>
      <trkpt lat="49.29393" lon="-0.11465">
        <ele>3.98</ele>
        <time>2019-08-21T08:21:07Z</time>
      </trkpt>
      <trkpt lat="49.29392" lon="-0.1147">
        <ele>4.46</ele>
        <time>2019-08-21T08:21:08Z</time>
      </trkpt>
      <trkpt lat="49.29389" lon="-0.11488">
        <ele>4.46</ele>
        <time>2019-08-21T08:21:11Z</time>
      </trkpt>
      <trkpt lat="49.29388" lon="-0.11493">
        <ele>3.98</ele>
        <time>2019-08-21T08:21:12Z</time>
      </trkpt>
      <trkpt lat="49.29387" lon="-0.11498">
        <ele>3.98</ele>
        <time>2019-08-21T08:21:13Z</time>
      </trkpt>
      <trkpt lat="49.29376" lon="-0.11526">
        <ele>4.94</ele>
        <time>2019-08-21T08:21:20Z</time>
      </trkpt>
      <trkpt lat="49.29374" lon="-0.11529">
        <ele>4.94</ele>
        <time>2019-08-21T08:21:21Z</time>
      </trkpt>
      <trkpt lat="49.29373" lon="-0.11533">
        <ele>4.94</ele>
        <time>2019-08-21T08:21:22Z</time>
      </trkpt>
      <trkpt lat="49.29372" lon="-0.11537">
        <ele>3.98</ele>
        <time>2019-08-21T08:21:23Z</time>
      </trkpt>
      <trkpt lat="49.29371" lon="-0.11542">
        <ele>3.98</ele>
        <time>2019-08-21T08:21:24Z</time>
      </trkpt>
      <trkpt lat="49.29371" lon="-0.11546">
        <ele>3.5</ele>
        <time>2019-08-21T08:21:25Z</time>
      </trkpt>
      <trkpt lat="49.29371" lon="-0.1155">
        <ele>3.02</ele>
        <time>2019-08-21T08:21:26Z</time>
      </trkpt>
      <trkpt lat="49.29371" lon="-0.11553">
        <ele>2.54</ele>
        <time>2019-08-21T08:21:27Z</time>
      </trkpt>
      <trkpt lat="49.29358" lon="-0.11593">
        <ele>-0.34</ele>
        <time>2019-08-21T08:21:39Z</time>
      </trkpt>
      <trkpt lat="49.29348" lon="-0.116">
        <ele>0.62</ele>
        <time>2019-08-21T08:21:42Z</time>
      </trkpt>
      <trkpt lat="49.29335" lon="-0.11605">
        <ele>1.58</ele>
        <time>2019-08-21T08:21:45Z</time>
      </trkpt>
      <trkpt lat="49.29332" lon="-0.1161">
        <ele>1.58</ele>
        <time>2019-08-21T08:21:46Z</time>
      </trkpt>
      <trkpt lat="49.29332" lon="-0.11616">
        <ele>1.1</ele>
        <time>2019-08-21T08:21:47Z</time>
      </trkpt>
      <trkpt lat="49.29332" lon="-0.11622">
        <ele>1.1</ele>
        <time>2019-08-21T08:21:48Z</time>
      </trkpt>
      <trkpt lat="49.29333" lon="-0.11626">
        <ele>1.1</ele>
        <time>2019-08-21T08:21:49Z</time>
      </trkpt>
      <trkpt lat="49.29334" lon="-0.11629">
        <ele>1.1</ele>
        <time>2019-08-21T08:21:50Z</time>
      </trkpt>
      <trkpt lat="49.29334" lon="-0.11635">
        <ele>1.58</ele>
        <time>2019-08-21T08:21:51Z</time>
      </trkpt>
      <trkpt lat="49.29334" lon="-0.11641">
        <ele>1.58</ele>
        <time>2019-08-21T08:21:52Z</time>
      </trkpt>
      <trkpt lat="49.29335" lon="-0.11648">
        <ele>1.58</ele>
        <time>2019-08-21T08:21:53Z</time>
      </trkpt>
      <trkpt lat="49.29336" lon="-0.11654">
        <ele>2.06</ele>
        <time>2019-08-21T08:21:54Z</time>
      </trkpt>
      <trkpt lat="49.29338" lon="-0.1166">
        <ele>1.58</ele>
        <time>2019-08-21T08:21:55Z</time>
      </trkpt>
      <trkpt lat="49.29342" lon="-0.11683">
        <ele>1.58</ele>
        <time>2019-08-21T08:21:59Z</time>
      </trkpt>
      <trkpt lat="49.29342" lon="-0.1169">
        <ele>1.58</ele>
        <time>2019-08-21T08:22:00Z</time>
      </trkpt>
      <trkpt lat="49.29341" lon="-0.11697">
        <ele>1.58</ele>
        <time>2019-08-21T08:22:01Z</time>
      </trkpt>
      <trkpt lat="49.29318" lon="-0.11821">
        <ele>2.06</ele>
        <time>2019-08-21T08:22:15Z</time>
      </trkpt>
      <trkpt lat="49.29293" lon="-0.11945">
        <ele>3.98</ele>
        <time>2019-08-21T08:22:28Z</time>
      </trkpt>
      <trkpt lat="49.29268" lon="-0.12069">
        <ele>4.94</ele>
        <time>2019-08-21T08:22:42Z</time>
      </trkpt>
      <trkpt lat="49.29263" lon="-0.12086">
        <ele>5.42</ele>
        <time>2019-08-21T08:22:44Z</time>
      </trkpt>
      <trkpt lat="49.29261" lon="-0.12095">
        <ele>5.42</ele>
        <time>2019-08-21T08:22:45Z</time>
      </trkpt>
      <trkpt lat="49.2926" lon="-0.12104">
        <ele>5.91</ele>
        <time>2019-08-21T08:22:46Z</time>
      </trkpt>
      <trkpt lat="49.29258" lon="-0.12122">
        <ele>6.87</ele>
        <time>2019-08-21T08:22:48Z</time>
      </trkpt>
      <trkpt lat="49.29235" lon="-0.12235">
        <ele>9.75</ele>
        <time>2019-08-21T08:23:01Z</time>
      </trkpt>
      <trkpt lat="49.29216" lon="-0.12335">
        <ele>9.27</ele>
        <time>2019-08-21T08:23:12Z</time>
      </trkpt>
      <trkpt lat="49.29212" lon="-0.12353">
        <ele>8.79</ele>
        <time>2019-08-21T08:23:14Z</time>
      </trkpt>
      <trkpt lat="49.29208" lon="-0.1237">
        <ele>8.79</ele>
        <time>2019-08-21T08:23:16Z</time>
      </trkpt>
      <trkpt lat="49.29193" lon="-0.12433">
        <ele>8.31</ele>
        <time>2019-08-21T08:23:24Z</time>
      </trkpt>
      <trkpt lat="49.29189" lon="-0.12437">
        <ele>7.83</ele>
        <time>2019-08-21T08:23:25Z</time>
      </trkpt>
      <trkpt lat="49.29185" lon="-0.12438">
        <ele>7.83</ele>
        <time>2019-08-21T08:23:26Z</time>
      </trkpt>
      <trkpt lat="49.29179" lon="-0.12437">
        <ele>7.83</ele>
        <time>2019-08-21T08:23:27Z</time>
      </trkpt>
      <trkpt lat="49.29174" lon="-0.12435">
        <ele>7.83</ele>
        <time>2019-08-21T08:23:28Z</time>
      </trkpt>
      <trkpt lat="49.29124" lon="-0.12423">
        <ele>7.83</ele>
        <time>2019-08-21T08:23:37Z</time>
      </trkpt>
      <trkpt lat="49.29119" lon="-0.12426">
        <ele>7.83</ele>
        <time>2019-08-21T08:23:38Z</time>
      </trkpt>
      <trkpt lat="49.29117" lon="-0.12431">
        <ele>7.83</ele>
        <time>2019-08-21T08:23:39Z</time>
      </trkpt>
      <trkpt lat="49.29115" lon="-0.12438">
        <ele>7.83</ele>
        <time>2019-08-21T08:23:40Z</time>
      </trkpt>
      <trkpt lat="49.29114" lon="-0.12445">
        <ele>7.83</ele>
        <time>2019-08-21T08:23:41Z</time>
      </trkpt>
      <trkpt lat="49.29112" lon="-0.12451">
        <ele>8.31</ele>
        <time>2019-08-21T08:23:42Z</time>
      </trkpt>
      <trkpt lat="49.29095" lon="-0.1253">
        <ele>9.75</ele>
        <time>2019-08-21T08:23:52Z</time>
      </trkpt>
      <trkpt lat="49.29094" lon="-0.12538">
        <ele>10.23</ele>
        <time>2019-08-21T08:23:53Z</time>
      </trkpt>
      <trkpt lat="49.29092" lon="-0.12586">
        <ele>10.71</ele>
        <time>2019-08-21T08:23:59Z</time>
      </trkpt>
      <trkpt lat="49.29093" lon="-0.12594">
        <ele>10.71</ele>
        <time>2019-08-21T08:24:00Z</time>
      </trkpt>
      <trkpt lat="49.29094" lon="-0.12602">
        <ele>11.19</ele>
        <time>2019-08-21T08:24:01Z</time>
      </trkpt>
      <trkpt lat="49.29097" lon="-0.12617">
        <ele>11.67</ele>
        <time>2019-08-21T08:24:03Z</time>
      </trkpt>
      <trkpt lat="49.29099" lon="-0.12625">
        <ele>11.67</ele>
        <time>2019-08-21T08:24:04Z</time>
      </trkpt>
      <trkpt lat="49.29103" lon="-0.12651">
        <ele>11.19</ele>
        <time>2019-08-21T08:24:07Z</time>
      </trkpt>
      <trkpt lat="49.29102" lon="-0.1266">
        <ele>10.71</ele>
        <time>2019-08-21T08:24:08Z</time>
      </trkpt>
      <trkpt lat="49.29101" lon="-0.12668">
        <ele>10.71</ele>
        <time>2019-08-21T08:24:09Z</time>
      </trkpt>
      <trkpt lat="49.29099" lon="-0.12677">
        <ele>10.23</ele>
        <time>2019-08-21T08:24:10Z</time>
      </trkpt>
      <trkpt lat="49.29097" lon="-0.12686">
        <ele>10.23</ele>
        <time>2019-08-21T08:24:11Z</time>
      </trkpt>
      <trkpt lat="49.29094" lon="-0.12694">
        <ele>9.75</ele>
        <time>2019-08-21T08:24:12Z</time>
      </trkpt>
      <trkpt lat="49.29089" lon="-0.12717">
        <ele>10.23</ele>
        <time>2019-08-21T08:24:17Z</time>
      </trkpt>
      <trkpt lat="49.29089" lon="-0.1272">
        <ele>9.75</ele>
        <time>2019-08-21T08:24:18Z</time>
      </trkpt>
      <trkpt lat="49.29091" lon="-0.12723">
        <ele>9.27</ele>
        <time>2019-08-21T08:24:19Z</time>
      </trkpt>
      <trkpt lat="49.29092" lon="-0.12725">
        <ele>8.31</ele>
        <time>2019-08-21T08:24:20Z</time>
      </trkpt>
      <trkpt lat="49.29094" lon="-0.12727">
        <ele>8.31</ele>
        <time>2019-08-21T08:24:21Z</time>
      </trkpt>
      <trkpt lat="49.29096" lon="-0.12729">
        <ele>7.83</ele>
        <time>2019-08-21T08:24:22Z</time>
      </trkpt>
      <trkpt lat="49.29098" lon="-0.12729">
        <ele>7.35</ele>
        <time>2019-08-21T08:24:23Z</time>
      </trkpt>
      <trkpt lat="49.29099" lon="-0.1273">
        <ele>7.35</ele>
        <time>2019-08-21T08:24:24Z</time>
      </trkpt>
      <trkpt lat="49.29101" lon="-0.1273">
        <ele>7.35</ele>
        <time>2019-08-21T08:24:25Z</time>
      </trkpt>
      <trkpt lat="49.29102" lon="-0.1273">
        <ele>7.35</ele>
        <time>2019-08-21T08:24:26Z</time>
      </trkpt>
      <trkpt lat="49.29113" lon="-0.12723">
        <ele>7.35</ele>
        <time>2019-08-21T08:24:31Z</time>
      </trkpt>
      <trkpt lat="49.29117" lon="-0.12724">
        <ele>7.35</ele>
        <time>2019-08-21T08:24:32Z</time>
      </trkpt>
      <trkpt lat="49.29121" lon="-0.12726">
        <ele>6.87</ele>
        <time>2019-08-21T08:24:33Z</time>
      </trkpt>
      <trkpt lat="49.29125" lon="-0.12727">
        <ele>6.87</ele>
        <time>2019-08-21T08:24:34Z</time>
      </trkpt>
      <trkpt lat="49.29129" lon="-0.12728">
        <ele>6.87</ele>
        <time>2019-08-21T08:24:35Z</time>
      </trkpt>
      <trkpt lat="49.29166" lon="-0.12743">
        <ele>6.87</ele>
        <time>2019-08-21T08:24:47Z</time>
      </trkpt>
      <trkpt lat="49.29168" lon="-0.12747">
        <ele>6.87</ele>
        <time>2019-08-21T08:24:48Z</time>
      </trkpt>
      <trkpt lat="49.2917" lon="-0.12752">
        <ele>6.87</ele>
        <time>2019-08-21T08:24:49Z</time>
      </trkpt>
      <trkpt lat="49.29172" lon="-0.12758">
        <ele>6.39</ele>
        <time>2019-08-21T08:24:50Z</time>
      </trkpt>
      <trkpt lat="49.29172" lon="-0.12763">
        <ele>6.39</ele>
        <time>2019-08-21T08:24:51Z</time>
      </trkpt>
      <trkpt lat="49.29172" lon="-0.12768">
        <ele>6.39</ele>
        <time>2019-08-21T08:24:52Z</time>
      </trkpt>
      <trkpt lat="49.29171" lon="-0.12772">
        <ele>6.39</ele>
        <time>2019-08-21T08:24:53Z</time>
      </trkpt>
      <trkpt lat="49.29171" lon="-0.12776">
        <ele>6.39</ele>
        <time>2019-08-21T08:24:54Z</time>
      </trkpt>
      <trkpt lat="49.29163" lon="-0.12804">
        <ele>6.39</ele>
        <time>2019-08-21T08:25:01Z</time>
      </trkpt>
      <trkpt lat="49.29162" lon="-0.12811">
        <ele>6.39</ele>
        <time>2019-08-21T08:25:02Z</time>
      </trkpt>
      <trkpt lat="49.29161" lon="-0.12818">
        <ele>6.87</ele>
        <time>2019-08-21T08:25:03Z</time>
      </trkpt>
      <trkpt lat="49.29159" lon="-0.12833">
        <ele>6.87</ele>
        <time>2019-08-21T08:25:05Z</time>
      </trkpt>
      <trkpt lat="49.29158" lon="-0.1284">
        <ele>6.87</ele>
        <time>2019-08-21T08:25:06Z</time>
      </trkpt>
      <trkpt lat="49.29156" lon="-0.12847">
        <ele>6.87</ele>
        <time>2019-08-21T08:25:07Z</time>
      </trkpt>
      <trkpt lat="49.29132" lon="-0.12959">
        <ele>6.39</ele>
        <time>2019-08-21T08:25:22Z</time>
      </trkpt>
      <trkpt lat="49.29109" lon="-0.13076">
        <ele>5.91</ele>
        <time>2019-08-21T08:25:36Z</time>
      </trkpt>
      <trkpt lat="49.29108" lon="-0.13085">
        <ele>5.91</ele>
        <time>2019-08-21T08:25:37Z</time>
      </trkpt>
      <trkpt lat="49.29079" lon="-0.13258">
        <ele>4.94</ele>
        <time>2019-08-21T08:25:57Z</time>
      </trkpt>
      <trkpt lat="49.29059" lon="-0.13389">
        <ele>5.42</ele>
        <time>2019-08-21T08:26:12Z</time>
      </trkpt>
      <trkpt lat="49.2903" lon="-0.13553">
        <ele>5.42</ele>
        <time>2019-08-21T08:26:31Z</time>
      </trkpt>
      <trkpt lat="49.2901" lon="-0.13665">
        <ele>5.91</ele>
        <time>2019-08-21T08:26:44Z</time>
      </trkpt>
      <trkpt lat="49.28988" lon="-0.13786">
        <ele>5.91</ele>
        <time>2019-08-21T08:26:59Z</time>
      </trkpt>
      <trkpt lat="49.28971" lon="-0.1388">
        <ele>5.91</ele>
        <time>2019-08-21T08:27:10Z</time>
      </trkpt>
      <trkpt lat="49.28968" lon="-0.13887">
        <ele>6.39</ele>
        <time>2019-08-21T08:27:11Z</time>
      </trkpt>
      <trkpt lat="49.2896" lon="-0.13911">
        <ele>7.83</ele>
        <time>2019-08-21T08:27:16Z</time>
      </trkpt>
      <trkpt lat="49.28962" lon="-0.13913">
        <ele>7.83</ele>
        <time>2019-08-21T08:27:17Z</time>
      </trkpt>
      <trkpt lat="49.28966" lon="-0.13918">
        <ele>7.35</ele>
        <time>2019-08-21T08:27:19Z</time>
      </trkpt>
      <trkpt lat="49.28967" lon="-0.13922">
        <ele>7.35</ele>
        <time>2019-08-21T08:27:20Z</time>
      </trkpt>
      <trkpt lat="49.28967" lon="-0.13926">
        <ele>7.35</ele>
        <time>2019-08-21T08:27:21Z</time>
      </trkpt>
      <trkpt lat="49.28967" lon="-0.1393">
        <ele>6.87</ele>
        <time>2019-08-21T08:27:22Z</time>
      </trkpt>
      <trkpt lat="49.28965" lon="-0.13933">
        <ele>6.87</ele>
        <time>2019-08-21T08:27:23Z</time>
      </trkpt>
      <trkpt lat="49.28962" lon="-0.13934">
        <ele>6.39</ele>
        <time>2019-08-21T08:27:24Z</time>
      </trkpt>
      <trkpt lat="49.28959" lon="-0.13935">
        <ele>6.39</ele>
        <time>2019-08-21T08:27:25Z</time>
      </trkpt>
      <trkpt lat="49.28956" lon="-0.13934">
        <ele>6.39</ele>
        <time>2019-08-21T08:27:26Z</time>
      </trkpt>
      <trkpt lat="49.28952" lon="-0.13933">
        <ele>6.87</ele>
        <time>2019-08-21T08:27:27Z</time>
      </trkpt>
      <trkpt lat="49.28949" lon="-0.13931">
        <ele>6.87</ele>
        <time>2019-08-21T08:27:28Z</time>
      </trkpt>
      <trkpt lat="49.28945" lon="-0.13929">
        <ele>7.35</ele>
        <time>2019-08-21T08:27:29Z</time>
      </trkpt>
      <trkpt lat="49.2894" lon="-0.13928">
        <ele>7.35</ele>
        <time>2019-08-21T08:27:30Z</time>
      </trkpt>
      <trkpt lat="49.28935" lon="-0.13928">
        <ele>7.35</ele>
        <time>2019-08-21T08:27:31Z</time>
      </trkpt>
      <trkpt lat="49.2893" lon="-0.13928">
        <ele>7.35</ele>
        <time>2019-08-21T08:27:32Z</time>
      </trkpt>
      <trkpt lat="49.28926" lon="-0.13928">
        <ele>7.35</ele>
        <time>2019-08-21T08:27:33Z</time>
      </trkpt>
      <trkpt lat="49.28917" lon="-0.1393">
        <ele>7.35</ele>
        <time>2019-08-21T08:27:35Z</time>
      </trkpt>
      <trkpt lat="49.28913" lon="-0.13933">
        <ele>7.35</ele>
        <time>2019-08-21T08:27:36Z</time>
      </trkpt>
      <trkpt lat="49.2891" lon="-0.13935">
        <ele>7.35</ele>
        <time>2019-08-21T08:27:37Z</time>
      </trkpt>
      <trkpt lat="49.28907" lon="-0.13935">
        <ele>7.35</ele>
        <time>2019-08-21T08:27:38Z</time>
      </trkpt>
      <trkpt lat="49.28903" lon="-0.13934">
        <ele>7.83</ele>
        <time>2019-08-21T08:27:39Z</time>
      </trkpt>
      <trkpt lat="49.28895" lon="-0.13933">
        <ele>7.35</ele>
        <time>2019-08-21T08:27:41Z</time>
      </trkpt>
      <trkpt lat="49.2889" lon="-0.13933">
        <ele>7.35</ele>
        <time>2019-08-21T08:27:42Z</time>
      </trkpt>
      <trkpt lat="49.28885" lon="-0.13933">
        <ele>6.87</ele>
        <time>2019-08-21T08:27:43Z</time>
      </trkpt>
      <trkpt lat="49.28844" lon="-0.13936">
        <ele>5.42</ele>
        <time>2019-08-21T08:27:50Z</time>
      </trkpt>
      <trkpt lat="49.2884" lon="-0.13938">
        <ele>5.91</ele>
        <time>2019-08-21T08:27:51Z</time>
      </trkpt>
      <trkpt lat="49.28836" lon="-0.13941">
        <ele>5.42</ele>
        <time>2019-08-21T08:27:52Z</time>
      </trkpt>
      <trkpt lat="49.28834" lon="-0.13947">
        <ele>4.94</ele>
        <time>2019-08-21T08:27:53Z</time>
      </trkpt>
      <trkpt lat="49.28833" lon="-0.13955">
        <ele>4.94</ele>
        <time>2019-08-21T08:27:54Z</time>
      </trkpt>
      <trkpt lat="49.28832" lon="-0.13962">
        <ele>4.46</ele>
        <time>2019-08-21T08:27:55Z</time>
      </trkpt>
      <trkpt lat="49.28831" lon="-0.1397">
        <ele>3.98</ele>
        <time>2019-08-21T08:27:56Z</time>
      </trkpt>
      <trkpt lat="49.28829" lon="-0.13979">
        <ele>3.98</ele>
        <time>2019-08-21T08:27:57Z</time>
      </trkpt>
      <trkpt lat="49.28828" lon="-0.13987">
        <ele>3.5</ele>
        <time>2019-08-21T08:27:58Z</time>
      </trkpt>
      <trkpt lat="49.28808" lon="-0.14161">
        <ele>4.46</ele>
        <time>2019-08-21T08:28:17Z</time>
      </trkpt>
      <trkpt lat="49.28788" lon="-0.14306">
        <ele>5.42</ele>
        <time>2019-08-21T08:28:33Z</time>
      </trkpt>
      <trkpt lat="49.28783" lon="-0.14344">
        <ele>5.42</ele>
        <time>2019-08-21T08:28:37Z</time>
      </trkpt>
      <trkpt lat="49.28771" lon="-0.14443">
        <ele>7.83</ele>
        <time>2019-08-21T08:28:49Z</time>
      </trkpt>
      <trkpt lat="49.2877" lon="-0.1445">
        <ele>7.83</ele>
        <time>2019-08-21T08:28:50Z</time>
      </trkpt>
      <trkpt lat="49.28754" lon="-0.14562">
        <ele>5.91</ele>
        <time>2019-08-21T08:29:02Z</time>
      </trkpt>
      <trkpt lat="49.28735" lon="-0.147">
        <ele>7.35</ele>
        <time>2019-08-21T08:29:18Z</time>
      </trkpt>
      <trkpt lat="49.28733" lon="-0.14717">
        <ele>7.83</ele>
        <time>2019-08-21T08:29:20Z</time>
      </trkpt>
      <trkpt lat="49.28734" lon="-0.14726">
        <ele>7.83</ele>
        <time>2019-08-21T08:29:21Z</time>
      </trkpt>
      <trkpt lat="49.28734" lon="-0.14735">
        <ele>7.83</ele>
        <time>2019-08-21T08:29:22Z</time>
      </trkpt>
      <trkpt lat="49.28738" lon="-0.14759">
        <ele>8.79</ele>
        <time>2019-08-21T08:29:25Z</time>
      </trkpt>
      <trkpt lat="49.2874" lon="-0.14775">
        <ele>9.27</ele>
        <time>2019-08-21T08:29:27Z</time>
      </trkpt>
      <trkpt lat="49.28741" lon="-0.14792">
        <ele>10.23</ele>
        <time>2019-08-21T08:29:29Z</time>
      </trkpt>
      <trkpt lat="49.28741" lon="-0.14801">
        <ele>10.23</ele>
        <time>2019-08-21T08:29:30Z</time>
      </trkpt>
      <trkpt lat="49.28722" lon="-0.14924">
        <ele>11.19</ele>
        <time>2019-08-21T08:29:45Z</time>
      </trkpt>
      <trkpt lat="49.28704" lon="-0.15027">
        <ele>12.15</ele>
        <time>2019-08-21T08:29:58Z</time>
      </trkpt>
      <trkpt lat="49.28689" lon="-0.15118">
        <ele>13.6</ele>
        <time>2019-08-21T08:30:10Z</time>
      </trkpt>
      <trkpt lat="49.28688" lon="-0.15125">
        <ele>13.6</ele>
        <time>2019-08-21T08:30:11Z</time>
      </trkpt>
      <trkpt lat="49.28689" lon="-0.15133">
        <ele>13.12</ele>
        <time>2019-08-21T08:30:12Z</time>
      </trkpt>
      <trkpt lat="49.2869" lon="-0.15141">
        <ele>13.12</ele>
        <time>2019-08-21T08:30:13Z</time>
      </trkpt>
      <trkpt lat="49.28691" lon="-0.15149">
        <ele>12.63</ele>
        <time>2019-08-21T08:30:14Z</time>
      </trkpt>
      <trkpt lat="49.28694" lon="-0.15157">
        <ele>12.63</ele>
        <time>2019-08-21T08:30:15Z</time>
      </trkpt>
      <trkpt lat="49.28696" lon="-0.15165">
        <ele>12.63</ele>
        <time>2019-08-21T08:30:16Z</time>
      </trkpt>
      <trkpt lat="49.28697" lon="-0.15174">
        <ele>12.63</ele>
        <time>2019-08-21T08:30:17Z</time>
      </trkpt>
      <trkpt lat="49.28697" lon="-0.15182">
        <ele>12.15</ele>
        <time>2019-08-21T08:30:18Z</time>
      </trkpt>
      <trkpt lat="49.28696" lon="-0.15191">
        <ele>12.15</ele>
        <time>2019-08-21T08:30:19Z</time>
      </trkpt>
      <trkpt lat="49.28694" lon="-0.15199">
        <ele>12.15</ele>
        <time>2019-08-21T08:30:20Z</time>
      </trkpt>
      <trkpt lat="49.28692" lon="-0.15208">
        <ele>12.15</ele>
        <time>2019-08-21T08:30:21Z</time>
      </trkpt>
      <trkpt lat="49.2869" lon="-0.15216">
        <ele>12.15</ele>
        <time>2019-08-21T08:30:22Z</time>
      </trkpt>
      <trkpt lat="49.2864" lon="-0.15338">
        <ele>9.27</ele>
        <time>2019-08-21T08:30:36Z</time>
      </trkpt>
      <trkpt lat="49.28614" lon="-0.15402">
        <ele>7.83</ele>
        <time>2019-08-21T08:30:45Z</time>
      </trkpt>
      <trkpt lat="49.28603" lon="-0.15424">
        <ele>7.35</ele>
        <time>2019-08-21T08:30:49Z</time>
      </trkpt>
      <trkpt lat="49.28568" lon="-0.15518">
        <ele>6.87</ele>
        <time>2019-08-21T08:31:02Z</time>
      </trkpt>
      <trkpt lat="49.28564" lon="-0.15524">
        <ele>6.87</ele>
        <time>2019-08-21T08:31:04Z</time>
      </trkpt>
      <trkpt lat="49.28562" lon="-0.15525">
        <ele>7.35</ele>
        <time>2019-08-21T08:31:05Z</time>
      </trkpt>
      <trkpt lat="49.28559" lon="-0.15527">
        <ele>6.87</ele>
        <time>2019-08-21T08:31:06Z</time>
      </trkpt>
      <trkpt lat="49.28548" lon="-0.15527">
        <ele>6.87</ele>
        <time>2019-08-21T08:31:09Z</time>
      </trkpt>
      <trkpt lat="49.28543" lon="-0.15526">
        <ele>6.39</ele>
        <time>2019-08-21T08:31:10Z</time>
      </trkpt>
      <trkpt lat="49.28538" lon="-0.15525">
        <ele>6.39</ele>
        <time>2019-08-21T08:31:11Z</time>
      </trkpt>
      <trkpt lat="49.28523" lon="-0.15521">
        <ele>6.39</ele>
        <time>2019-08-21T08:31:14Z</time>
      </trkpt>
      <trkpt lat="49.28512" lon="-0.15519">
        <ele>6.39</ele>
        <time>2019-08-21T08:31:16Z</time>
      </trkpt>
      <trkpt lat="49.2848" lon="-0.1551">
        <ele>6.87</ele>
        <time>2019-08-21T08:31:22Z</time>
      </trkpt>
      <trkpt lat="49.28451" lon="-0.15503">
        <ele>6.87</ele>
        <time>2019-08-21T08:31:28Z</time>
      </trkpt>
      <trkpt lat="49.28448" lon="-0.15507">
        <ele>6.39</ele>
        <time>2019-08-21T08:31:29Z</time>
      </trkpt>
      <trkpt lat="49.28446" lon="-0.15512">
        <ele>6.39</ele>
        <time>2019-08-21T08:31:30Z</time>
      </trkpt>
      <trkpt lat="49.28447" lon="-0.15519">
        <ele>6.39</ele>
        <time>2019-08-21T08:31:31Z</time>
      </trkpt>
      <trkpt lat="49.28447" lon="-0.15528">
        <ele>6.39</ele>
        <time>2019-08-21T08:31:32Z</time>
      </trkpt>
      <trkpt lat="49.28448" lon="-0.15536">
        <ele>5.91</ele>
        <time>2019-08-21T08:31:33Z</time>
      </trkpt>
      <trkpt lat="49.28454" lon="-0.15686">
        <ele>5.91</ele>
        <time>2019-08-21T08:31:47Z</time>
      </trkpt>
      <trkpt lat="49.28461" lon="-0.15898">
        <ele>6.87</ele>
        <time>2019-08-21T08:32:07Z</time>
      </trkpt>
      <trkpt lat="49.28473" lon="-0.16117">
        <ele>7.35</ele>
        <time>2019-08-21T08:32:27Z</time>
      </trkpt>
      <trkpt lat="49.28473" lon="-0.16128">
        <ele>7.35</ele>
        <time>2019-08-21T08:32:28Z</time>
      </trkpt>
      <trkpt lat="49.28473" lon="-0.16139">
        <ele>7.35</ele>
        <time>2019-08-21T08:32:29Z</time>
      </trkpt>
      <trkpt lat="49.28474" lon="-0.16149">
        <ele>7.35</ele>
        <time>2019-08-21T08:32:30Z</time>
      </trkpt>
      <trkpt lat="49.28474" lon="-0.16264">
        <ele>6.87</ele>
        <time>2019-08-21T08:32:41Z</time>
      </trkpt>
      <trkpt lat="49.28453" lon="-0.16436">
        <ele>5.91</ele>
        <time>2019-08-21T08:32:58Z</time>
      </trkpt>
      <trkpt lat="49.28445" lon="-0.16624">
        <ele>5.91</ele>
        <time>2019-08-21T08:33:16Z</time>
      </trkpt>
      <trkpt lat="49.28446" lon="-0.16635">
        <ele>5.91</ele>
        <time>2019-08-21T08:33:17Z</time>
      </trkpt>
      <trkpt lat="49.2845" lon="-0.16676">
        <ele>4.94</ele>
        <time>2019-08-21T08:33:21Z</time>
      </trkpt>
      <trkpt lat="49.28446" lon="-0.16834">
        <ele>6.87</ele>
        <time>2019-08-21T08:33:36Z</time>
      </trkpt>
      <trkpt lat="49.28432" lon="-0.1699">
        <ele>5.91</ele>
        <time>2019-08-21T08:33:51Z</time>
      </trkpt>
      <trkpt lat="49.28439" lon="-0.17109">
        <ele>5.42</ele>
        <time>2019-08-21T08:34:03Z</time>
      </trkpt>
      <trkpt lat="49.28439" lon="-0.17117">
        <ele>5.42</ele>
        <time>2019-08-21T08:34:04Z</time>
      </trkpt>
      <trkpt lat="49.28438" lon="-0.17124">
        <ele>5.42</ele>
        <time>2019-08-21T08:34:05Z</time>
      </trkpt>
      <trkpt lat="49.28436" lon="-0.1713">
        <ele>5.42</ele>
        <time>2019-08-21T08:34:06Z</time>
      </trkpt>
      <trkpt lat="49.28435" lon="-0.17137">
        <ele>5.42</ele>
        <time>2019-08-21T08:34:07Z</time>
      </trkpt>
      <trkpt lat="49.28436" lon="-0.17144">
        <ele>4.94</ele>
        <time>2019-08-21T08:34:08Z</time>
      </trkpt>
      <trkpt lat="49.28437" lon="-0.17152">
        <ele>4.94</ele>
        <time>2019-08-21T08:34:09Z</time>
      </trkpt>
      <trkpt lat="49.28439" lon="-0.1716">
        <ele>4.46</ele>
        <time>2019-08-21T08:34:10Z</time>
      </trkpt>
      <trkpt lat="49.2844" lon="-0.17169">
        <ele>4.46</ele>
        <time>2019-08-21T08:34:11Z</time>
      </trkpt>
      <trkpt lat="49.28442" lon="-0.17178">
        <ele>3.98</ele>
        <time>2019-08-21T08:34:12Z</time>
      </trkpt>
      <trkpt lat="49.28443" lon="-0.17187">
        <ele>3.98</ele>
        <time>2019-08-21T08:34:13Z</time>
      </trkpt>
      <trkpt lat="49.28444" lon="-0.17197">
        <ele>3.98</ele>
        <time>2019-08-21T08:34:14Z</time>
      </trkpt>
      <trkpt lat="49.28465" lon="-0.17378">
        <ele>4.46</ele>
        <time>2019-08-21T08:34:32Z</time>
      </trkpt>
      <trkpt lat="49.28487" lon="-0.17576">
        <ele>4.94</ele>
        <time>2019-08-21T08:34:52Z</time>
      </trkpt>
      <trkpt lat="49.28493" lon="-0.17633">
        <ele>5.42</ele>
        <time>2019-08-21T08:34:58Z</time>
      </trkpt>
      <trkpt lat="49.28476" lon="-0.1777">
        <ele>5.91</ele>
        <time>2019-08-21T08:35:12Z</time>
      </trkpt>
      <trkpt lat="49.28474" lon="-0.17778">
        <ele>5.91</ele>
        <time>2019-08-21T08:35:13Z</time>
      </trkpt>
      <trkpt lat="49.28472" lon="-0.17785">
        <ele>5.91</ele>
        <time>2019-08-21T08:35:14Z</time>
      </trkpt>
      <trkpt lat="49.28469" lon="-0.1779">
        <ele>5.91</ele>
        <time>2019-08-21T08:35:15Z</time>
      </trkpt>
      <trkpt lat="49.28467" lon="-0.17796">
        <ele>5.42</ele>
        <time>2019-08-21T08:35:16Z</time>
      </trkpt>
      <trkpt lat="49.28465" lon="-0.17803">
        <ele>5.42</ele>
        <time>2019-08-21T08:35:17Z</time>
      </trkpt>
      <trkpt lat="49.28465" lon="-0.1781">
        <ele>5.42</ele>
        <time>2019-08-21T08:35:18Z</time>
      </trkpt>
      <trkpt lat="49.28465" lon="-0.17818">
        <ele>4.94</ele>
        <time>2019-08-21T08:35:19Z</time>
      </trkpt>
      <trkpt lat="49.28465" lon="-0.17827">
        <ele>4.94</ele>
        <time>2019-08-21T08:35:20Z</time>
      </trkpt>
      <trkpt lat="49.28466" lon="-0.17836">
        <ele>4.46</ele>
        <time>2019-08-21T08:35:21Z</time>
      </trkpt>
      <trkpt lat="49.28465" lon="-0.17845">
        <ele>3.98</ele>
        <time>2019-08-21T08:35:22Z</time>
      </trkpt>
      <trkpt lat="49.28464" lon="-0.17854">
        <ele>3.98</ele>
        <time>2019-08-21T08:35:23Z</time>
      </trkpt>
      <trkpt lat="49.28462" lon="-0.17872">
        <ele>3.5</ele>
        <time>2019-08-21T08:35:25Z</time>
      </trkpt>
      <trkpt lat="49.28461" lon="-0.17882">
        <ele>3.02</ele>
        <time>2019-08-21T08:35:26Z</time>
      </trkpt>
      <trkpt lat="49.28459" lon="-0.17891">
        <ele>3.02</ele>
        <time>2019-08-21T08:35:27Z</time>
      </trkpt>
      <trkpt lat="49.28457" lon="-0.179">
        <ele>2.54</ele>
        <time>2019-08-21T08:35:28Z</time>
      </trkpt>
      <trkpt lat="49.28455" lon="-0.1791">
        <ele>2.54</ele>
        <time>2019-08-21T08:35:29Z</time>
      </trkpt>
      <trkpt lat="49.28454" lon="-0.1792">
        <ele>2.54</ele>
        <time>2019-08-21T08:35:30Z</time>
      </trkpt>
      <trkpt lat="49.28453" lon="-0.17929">
        <ele>3.02</ele>
        <time>2019-08-21T08:35:31Z</time>
      </trkpt>
      <trkpt lat="49.28452" lon="-0.17939">
        <ele>3.02</ele>
        <time>2019-08-21T08:35:32Z</time>
      </trkpt>
      <trkpt lat="49.28459" lon="-0.18098">
        <ele>3.5</ele>
        <time>2019-08-21T08:35:48Z</time>
      </trkpt>
      <trkpt lat="49.28469" lon="-0.18274">
        <ele>3.5</ele>
        <time>2019-08-21T08:36:06Z</time>
      </trkpt>
      <trkpt lat="49.28474" lon="-0.18362">
        <ele>2.54</ele>
        <time>2019-08-21T08:36:15Z</time>
      </trkpt>
      <trkpt lat="49.28458" lon="-0.1852">
        <ele>3.02</ele>
        <time>2019-08-21T08:36:31Z</time>
      </trkpt>
      <trkpt lat="49.28419" lon="-0.18647">
        <ele>3.98</ele>
        <time>2019-08-21T08:36:45Z</time>
      </trkpt>
      <trkpt lat="49.28383" lon="-0.18742">
        <ele>2.54</ele>
        <time>2019-08-21T08:36:58Z</time>
      </trkpt>
      <trkpt lat="49.28376" lon="-0.18759">
        <ele>3.02</ele>
        <time>2019-08-21T08:37:00Z</time>
      </trkpt>
      <trkpt lat="49.28374" lon="-0.18767">
        <ele>3.02</ele>
        <time>2019-08-21T08:37:01Z</time>
      </trkpt>
      <trkpt lat="49.28371" lon="-0.18776">
        <ele>3.02</ele>
        <time>2019-08-21T08:37:02Z</time>
      </trkpt>
      <trkpt lat="49.28368" lon="-0.18785">
        <ele>3.02</ele>
        <time>2019-08-21T08:37:03Z</time>
      </trkpt>
      <trkpt lat="49.28366" lon="-0.18794">
        <ele>3.02</ele>
        <time>2019-08-21T08:37:04Z</time>
      </trkpt>
      <trkpt lat="49.28357" lon="-0.18829">
        <ele>3.02</ele>
        <time>2019-08-21T08:37:08Z</time>
      </trkpt>
      <trkpt lat="49.28354" lon="-0.18836">
        <ele>3.02</ele>
        <time>2019-08-21T08:37:09Z</time>
      </trkpt>
      <trkpt lat="49.28348" lon="-0.18852">
        <ele>3.02</ele>
        <time>2019-08-21T08:37:11Z</time>
      </trkpt>
      <trkpt lat="49.28346" lon="-0.18861">
        <ele>3.02</ele>
        <time>2019-08-21T08:37:12Z</time>
      </trkpt>
      <trkpt lat="49.28342" lon="-0.18896">
        <ele>3.02</ele>
        <time>2019-08-21T08:37:16Z</time>
      </trkpt>
      <trkpt lat="49.2834" lon="-0.18904">
        <ele>3.02</ele>
        <time>2019-08-21T08:37:17Z</time>
      </trkpt>
      <trkpt lat="49.28338" lon="-0.18928">
        <ele>2.54</ele>
        <time>2019-08-21T08:37:20Z</time>
      </trkpt>
      <trkpt lat="49.28337" lon="-0.18937">
        <ele>2.54</ele>
        <time>2019-08-21T08:37:21Z</time>
      </trkpt>
      <trkpt lat="49.28315" lon="-0.19061">
        <ele>3.5</ele>
        <time>2019-08-21T08:37:35Z</time>
      </trkpt>
      <trkpt lat="49.28277" lon="-0.19192">
        <ele>3.98</ele>
        <time>2019-08-21T08:37:50Z</time>
      </trkpt>
      <trkpt lat="49.28268" lon="-0.19215">
        <ele>4.46</ele>
        <time>2019-08-21T08:37:53Z</time>
      </trkpt>
      <trkpt lat="49.28262" lon="-0.19236">
        <ele>4.46</ele>
        <time>2019-08-21T08:38:00Z</time>
      </trkpt>
      <trkpt lat="49.28262" lon="-0.19235">
        <ele>4.46</ele>
        <time>2019-08-21T08:38:03Z</time>
      </trkpt>
      <trkpt lat="49.28263" lon="-0.19238">
        <ele>4.46</ele>
        <time>2019-08-21T08:38:04Z</time>
      </trkpt>
      <trkpt lat="49.28264" lon="-0.1924">
        <ele>4.46</ele>
        <time>2019-08-21T08:38:05Z</time>
      </trkpt>
      <trkpt lat="49.28264" lon="-0.19244">
        <ele>4.46</ele>
        <time>2019-08-21T08:38:06Z</time>
      </trkpt>
      <trkpt lat="49.28264" lon="-0.19248">
        <ele>4.46</ele>
        <time>2019-08-21T08:38:07Z</time>
      </trkpt>
      <trkpt lat="49.28262" lon="-0.19253">
        <ele>4.46</ele>
        <time>2019-08-21T08:38:08Z</time>
      </trkpt>
      <trkpt lat="49.28261" lon="-0.19259">
        <ele>4.46</ele>
        <time>2019-08-21T08:38:09Z</time>
      </trkpt>
      <trkpt lat="49.28247" lon="-0.19295">
        <ele>3.98</ele>
        <time>2019-08-21T08:38:14Z</time>
      </trkpt>
      <trkpt lat="49.28244" lon="-0.19303">
        <ele>3.98</ele>
        <time>2019-08-21T08:38:15Z</time>
      </trkpt>
      <trkpt lat="49.28241" lon="-0.1931">
        <ele>4.46</ele>
        <time>2019-08-21T08:38:16Z</time>
      </trkpt>
      <trkpt lat="49.28238" lon="-0.19319">
        <ele>4.46</ele>
        <time>2019-08-21T08:38:17Z</time>
      </trkpt>
      <trkpt lat="49.28235" lon="-0.19327">
        <ele>4.46</ele>
        <time>2019-08-21T08:38:18Z</time>
      </trkpt>
      <trkpt lat="49.28232" lon="-0.19336">
        <ele>4.46</ele>
        <time>2019-08-21T08:38:19Z</time>
      </trkpt>
      <trkpt lat="49.28229" lon="-0.19345">
        <ele>4.46</ele>
        <time>2019-08-21T08:38:20Z</time>
      </trkpt>
      <trkpt lat="49.28193" lon="-0.19447">
        <ele>3.5</ele>
        <time>2019-08-21T08:38:32Z</time>
      </trkpt>
      <trkpt lat="49.28172" lon="-0.19507">
        <ele>3.02</ele>
        <time>2019-08-21T08:38:39Z</time>
      </trkpt>
      <trkpt lat="49.2817" lon="-0.19516">
        <ele>2.54</ele>
        <time>2019-08-21T08:38:40Z</time>
      </trkpt>
      <trkpt lat="49.2812" lon="-0.19658">
        <ele>3.02</ele>
        <time>2019-08-21T08:38:57Z</time>
      </trkpt>
      <trkpt lat="49.28107" lon="-0.19703">
        <ele>3.5</ele>
        <time>2019-08-21T08:39:03Z</time>
      </trkpt>
      <trkpt lat="49.28107" lon="-0.19711">
        <ele>3.5</ele>
        <time>2019-08-21T08:39:04Z</time>
      </trkpt>
      <trkpt lat="49.28109" lon="-0.19717">
        <ele>3.5</ele>
        <time>2019-08-21T08:39:05Z</time>
      </trkpt>
      <trkpt lat="49.28113" lon="-0.19723">
        <ele>3.5</ele>
        <time>2019-08-21T08:39:06Z</time>
      </trkpt>
      <trkpt lat="49.28117" lon="-0.19728">
        <ele>3.5</ele>
        <time>2019-08-21T08:39:07Z</time>
      </trkpt>
      <trkpt lat="49.28122" lon="-0.19732">
        <ele>3.5</ele>
        <time>2019-08-21T08:39:08Z</time>
      </trkpt>
      <trkpt lat="49.28195" lon="-0.19802">
        <ele>5.42</ele>
        <time>2019-08-21T08:39:21Z</time>
      </trkpt>
      <trkpt lat="49.28224" lon="-0.19836">
        <ele>5.91</ele>
        <time>2019-08-21T08:39:26Z</time>
      </trkpt>
      <trkpt lat="49.28231" lon="-0.19842">
        <ele>6.39</ele>
        <time>2019-08-21T08:39:27Z</time>
      </trkpt>
      <trkpt lat="49.28323" lon="-0.19928">
        <ele>6.87</ele>
        <time>2019-08-21T08:39:41Z</time>
      </trkpt>
      <trkpt lat="49.28416" lon="-0.20016">
        <ele>6.39</ele>
        <time>2019-08-21T08:39:57Z</time>
      </trkpt>
      <trkpt lat="49.28428" lon="-0.2003">
        <ele>7.35</ele>
        <time>2019-08-21T08:40:02Z</time>
      </trkpt>
      <trkpt lat="49.28437" lon="-0.20036">
        <ele>7.35</ele>
        <time>2019-08-21T08:40:04Z</time>
      </trkpt>
      <trkpt lat="49.28442" lon="-0.20039">
        <ele>7.35</ele>
        <time>2019-08-21T08:40:05Z</time>
      </trkpt>
      <trkpt lat="49.28446" lon="-0.20044">
        <ele>7.35</ele>
        <time>2019-08-21T08:40:06Z</time>
      </trkpt>
      <trkpt lat="49.2845" lon="-0.20048">
        <ele>7.35</ele>
        <time>2019-08-21T08:40:07Z</time>
      </trkpt>
      <trkpt lat="49.28455" lon="-0.20052">
        <ele>7.35</ele>
        <time>2019-08-21T08:40:08Z</time>
      </trkpt>
      <trkpt lat="49.2846" lon="-0.20054">
        <ele>7.35</ele>
        <time>2019-08-21T08:40:09Z</time>
      </trkpt>
      <trkpt lat="49.28464" lon="-0.20055">
        <ele>7.35</ele>
        <time>2019-08-21T08:40:10Z</time>
      </trkpt>
      <trkpt lat="49.28469" lon="-0.20056">
        <ele>7.35</ele>
        <time>2019-08-21T08:40:11Z</time>
      </trkpt>
      <trkpt lat="49.28479" lon="-0.20059">
        <ele>7.83</ele>
        <time>2019-08-21T08:40:13Z</time>
      </trkpt>
      <trkpt lat="49.2856" lon="-0.20082">
        <ele>8.79</ele>
        <time>2019-08-21T08:40:29Z</time>
      </trkpt>
      <trkpt lat="49.28562" lon="-0.20087">
        <ele>8.79</ele>
        <time>2019-08-21T08:40:30Z</time>
      </trkpt>
      <trkpt lat="49.28563" lon="-0.20093">
        <ele>8.79</ele>
        <time>2019-08-21T08:40:31Z</time>
      </trkpt>
      <trkpt lat="49.28563" lon="-0.201">
        <ele>8.79</ele>
        <time>2019-08-21T08:40:32Z</time>
      </trkpt>
      <trkpt lat="49.28562" lon="-0.20107">
        <ele>8.31</ele>
        <time>2019-08-21T08:40:33Z</time>
      </trkpt>
      <trkpt lat="49.28562" lon="-0.20131">
        <ele>8.31</ele>
        <time>2019-08-21T08:40:36Z</time>
      </trkpt>
      <trkpt lat="49.28562" lon="-0.2014">
        <ele>8.31</ele>
        <time>2019-08-21T08:40:37Z</time>
      </trkpt>
      <trkpt lat="49.28555" lon="-0.20262">
        <ele>8.31</ele>
        <time>2019-08-21T08:40:51Z</time>
      </trkpt>
      <trkpt lat="49.28556" lon="-0.20289">
        <ele>8.31</ele>
        <time>2019-08-21T08:40:54Z</time>
      </trkpt>
      <trkpt lat="49.28556" lon="-0.20298">
        <ele>8.31</ele>
        <time>2019-08-21T08:40:55Z</time>
      </trkpt>
      <trkpt lat="49.28554" lon="-0.20315">
        <ele>7.83</ele>
        <time>2019-08-21T08:40:57Z</time>
      </trkpt>
      <trkpt lat="49.28553" lon="-0.20323">
        <ele>7.83</ele>
        <time>2019-08-21T08:40:58Z</time>
      </trkpt>
      <trkpt lat="49.28538" lon="-0.20438">
        <ele>8.31</ele>
        <time>2019-08-21T08:41:11Z</time>
      </trkpt>
      <trkpt lat="49.28528" lon="-0.2055">
        <ele>7.83</ele>
        <time>2019-08-21T08:41:23Z</time>
      </trkpt>
      <trkpt lat="49.28512" lon="-0.20704">
        <ele>6.39</ele>
        <time>2019-08-21T08:41:39Z</time>
      </trkpt>
      <trkpt lat="49.28499" lon="-0.20847">
        <ele>6.39</ele>
        <time>2019-08-21T08:41:54Z</time>
      </trkpt>
      <trkpt lat="49.28499" lon="-0.20857">
        <ele>6.39</ele>
        <time>2019-08-21T08:41:55Z</time>
      </trkpt>
      <trkpt lat="49.28482" lon="-0.21017">
        <ele>6.87</ele>
        <time>2019-08-21T08:42:12Z</time>
      </trkpt>
      <trkpt lat="49.28471" lon="-0.21109">
        <ele>7.35</ele>
        <time>2019-08-21T08:42:22Z</time>
      </trkpt>
      <trkpt lat="49.28469" lon="-0.21116">
        <ele>7.83</ele>
        <time>2019-08-21T08:42:23Z</time>
      </trkpt>
      <trkpt lat="49.28467" lon="-0.21124">
        <ele>7.83</ele>
        <time>2019-08-21T08:42:24Z</time>
      </trkpt>
      <trkpt lat="49.28466" lon="-0.2113">
        <ele>7.83</ele>
        <time>2019-08-21T08:42:25Z</time>
      </trkpt>
      <trkpt lat="49.28465" lon="-0.21134">
        <ele>7.83</ele>
        <time>2019-08-21T08:42:26Z</time>
      </trkpt>
      <trkpt lat="49.28463" lon="-0.21136">
        <ele>7.35</ele>
        <time>2019-08-21T08:42:27Z</time>
      </trkpt>
      <trkpt lat="49.2846" lon="-0.21137">
        <ele>7.35</ele>
        <time>2019-08-21T08:42:28Z</time>
      </trkpt>
      <trkpt lat="49.28458" lon="-0.21136">
        <ele>7.35</ele>
        <time>2019-08-21T08:42:29Z</time>
      </trkpt>
      <trkpt lat="49.28455" lon="-0.21133">
        <ele>7.83</ele>
        <time>2019-08-21T08:42:30Z</time>
      </trkpt>
      <trkpt lat="49.28451" lon="-0.21129">
        <ele>8.31</ele>
        <time>2019-08-21T08:42:31Z</time>
      </trkpt>
      <trkpt lat="49.28447" lon="-0.21127">
        <ele>8.31</ele>
        <time>2019-08-21T08:42:32Z</time>
      </trkpt>
      <trkpt lat="49.28442" lon="-0.21125">
        <ele>8.79</ele>
        <time>2019-08-21T08:42:33Z</time>
      </trkpt>
      <trkpt lat="49.28438" lon="-0.21122">
        <ele>8.79</ele>
        <time>2019-08-21T08:42:34Z</time>
      </trkpt>
      <trkpt lat="49.28434" lon="-0.21118">
        <ele>9.27</ele>
        <time>2019-08-21T08:42:35Z</time>
      </trkpt>
      <trkpt lat="49.28429" lon="-0.21114">
        <ele>9.75</ele>
        <time>2019-08-21T08:42:36Z</time>
      </trkpt>
      <trkpt lat="49.28425" lon="-0.2111">
        <ele>10.23</ele>
        <time>2019-08-21T08:42:37Z</time>
      </trkpt>
      <trkpt lat="49.28389" lon="-0.21078">
        <ele>12.15</ele>
        <time>2019-08-21T08:42:45Z</time>
      </trkpt>
      <trkpt lat="49.2838" lon="-0.21072">
        <ele>12.15</ele>
        <time>2019-08-21T08:42:47Z</time>
      </trkpt>
      <trkpt lat="49.28366" lon="-0.2106">
        <ele>12.63</ele>
        <time>2019-08-21T08:42:50Z</time>
      </trkpt>
      <trkpt lat="49.28292" lon="-0.20996">
        <ele>12.63</ele>
        <time>2019-08-21T08:43:05Z</time>
      </trkpt>
      <trkpt lat="49.28251" lon="-0.20961">
        <ele>11.67</ele>
        <time>2019-08-21T08:43:13Z</time>
      </trkpt>
      <trkpt lat="49.28181" lon="-0.209">
        <ele>9.75</ele>
        <time>2019-08-21T08:43:26Z</time>
      </trkpt>
      <trkpt lat="49.28114" lon="-0.20836">
        <ele>10.71</ele>
        <time>2019-08-21T08:43:39Z</time>
      </trkpt>
      <trkpt lat="49.2804" lon="-0.20766">
        <ele>10.71</ele>
        <time>2019-08-21T08:43:54Z</time>
      </trkpt>
      <trkpt lat="49.27974" lon="-0.20701">
        <ele>11.67</ele>
        <time>2019-08-21T08:44:08Z</time>
      </trkpt>
      <trkpt lat="49.27903" lon="-0.20632">
        <ele>12.15</ele>
        <time>2019-08-21T08:44:23Z</time>
      </trkpt>
      <trkpt lat="49.279" lon="-0.20627">
        <ele>12.63</ele>
        <time>2019-08-21T08:44:24Z</time>
      </trkpt>
      <trkpt lat="49.27897" lon="-0.2062">
        <ele>12.15</ele>
        <time>2019-08-21T08:44:25Z</time>
      </trkpt>
      <trkpt lat="49.27897" lon="-0.20613">
        <ele>12.63</ele>
        <time>2019-08-21T08:44:26Z</time>
      </trkpt>
      <trkpt lat="49.27897" lon="-0.20606">
        <ele>12.15</ele>
        <time>2019-08-21T08:44:27Z</time>
      </trkpt>
      <trkpt lat="49.27897" lon="-0.20598">
        <ele>12.15</ele>
        <time>2019-08-21T08:44:28Z</time>
      </trkpt>
      <trkpt lat="49.27899" lon="-0.2059">
        <ele>12.15</ele>
        <time>2019-08-21T08:44:29Z</time>
      </trkpt>
      <trkpt lat="49.27902" lon="-0.20582">
        <ele>12.15</ele>
        <time>2019-08-21T08:44:30Z</time>
      </trkpt>
      <trkpt lat="49.27905" lon="-0.20575">
        <ele>11.67</ele>
        <time>2019-08-21T08:44:31Z</time>
      </trkpt>
      <trkpt lat="49.27917" lon="-0.20552">
        <ele>11.19</ele>
        <time>2019-08-21T08:44:34Z</time>
      </trkpt>
      <trkpt lat="49.27971" lon="-0.20452">
        <ele>9.75</ele>
        <time>2019-08-21T08:44:49Z</time>
      </trkpt>
      <trkpt lat="49.27977" lon="-0.20438">
        <ele>9.75</ele>
        <time>2019-08-21T08:44:51Z</time>
      </trkpt>
      <trkpt lat="49.2798" lon="-0.2043">
        <ele>9.75</ele>
        <time>2019-08-21T08:44:52Z</time>
      </trkpt>
      <trkpt lat="49.27981" lon="-0.20422">
        <ele>9.75</ele>
        <time>2019-08-21T08:44:53Z</time>
      </trkpt>
      <trkpt lat="49.27981" lon="-0.20413">
        <ele>9.75</ele>
        <time>2019-08-21T08:44:54Z</time>
      </trkpt>
      <trkpt lat="49.27981" lon="-0.20405">
        <ele>9.75</ele>
        <time>2019-08-21T08:44:55Z</time>
      </trkpt>
      <trkpt lat="49.27981" lon="-0.20397">
        <ele>9.75</ele>
        <time>2019-08-21T08:44:56Z</time>
      </trkpt>
      <trkpt lat="49.27981" lon="-0.20389">
        <ele>9.75</ele>
        <time>2019-08-21T08:44:57Z</time>
      </trkpt>
      <trkpt lat="49.27981" lon="-0.20381">
        <ele>9.75</ele>
        <time>2019-08-21T08:44:58Z</time>
      </trkpt>
      <trkpt lat="49.2798" lon="-0.20374">
        <ele>9.75</ele>
        <time>2019-08-21T08:44:59Z</time>
      </trkpt>
      <trkpt lat="49.27979" lon="-0.20369">
        <ele>9.75</ele>
        <time>2019-08-21T08:45:00Z</time>
      </trkpt>
      <trkpt lat="49.27975" lon="-0.20365">
        <ele>9.75</ele>
        <time>2019-08-21T08:45:01Z</time>
      </trkpt>
      <trkpt lat="49.27971" lon="-0.20364">
        <ele>9.75</ele>
        <time>2019-08-21T08:45:02Z</time>
      </trkpt>
      <trkpt lat="49.27966" lon="-0.20365">
        <ele>9.75</ele>
        <time>2019-08-21T08:45:03Z</time>
      </trkpt>
      <trkpt lat="49.27961" lon="-0.20366">
        <ele>9.75</ele>
        <time>2019-08-21T08:45:04Z</time>
      </trkpt>
      <trkpt lat="49.27894" lon="-0.20378">
        <ele>7.83</ele>
        <time>2019-08-21T08:45:15Z</time>
      </trkpt>
      <trkpt lat="49.27889" lon="-0.20383">
        <ele>7.83</ele>
        <time>2019-08-21T08:45:16Z</time>
      </trkpt>
      <trkpt lat="49.27878" lon="-0.20393">
        <ele>7.35</ele>
        <time>2019-08-21T08:45:18Z</time>
      </trkpt>
      <trkpt lat="49.27874" lon="-0.204">
        <ele>7.35</ele>
        <time>2019-08-21T08:45:19Z</time>
      </trkpt>
      <trkpt lat="49.2787" lon="-0.20409">
        <ele>7.35</ele>
        <time>2019-08-21T08:45:20Z</time>
      </trkpt>
      <trkpt lat="49.27816" lon="-0.20519">
        <ele>7.83</ele>
        <time>2019-08-21T08:45:34Z</time>
      </trkpt>
      <trkpt lat="49.27748" lon="-0.20608">
        <ele>7.83</ele>
        <time>2019-08-21T08:45:48Z</time>
      </trkpt>
      <trkpt lat="49.27708" lon="-0.20666">
        <ele>8.31</ele>
        <time>2019-08-21T08:45:57Z</time>
      </trkpt>
      <trkpt lat="49.27704" lon="-0.20674">
        <ele>7.83</ele>
        <time>2019-08-21T08:45:58Z</time>
      </trkpt>
      <trkpt lat="49.27692" lon="-0.20696">
        <ele>6.87</ele>
        <time>2019-08-21T08:46:01Z</time>
      </trkpt>
      <trkpt lat="49.27688" lon="-0.20703">
        <ele>6.39</ele>
        <time>2019-08-21T08:46:02Z</time>
      </trkpt>
      <trkpt lat="49.27641" lon="-0.20778">
        <ele>5.91</ele>
        <time>2019-08-21T08:46:13Z</time>
      </trkpt>
      <trkpt lat="49.27587" lon="-0.20888">
        <ele>3.5</ele>
        <time>2019-08-21T08:46:27Z</time>
      </trkpt>
      <trkpt lat="49.27583" lon="-0.20897">
        <ele>3.5</ele>
        <time>2019-08-21T08:46:28Z</time>
      </trkpt>
      <trkpt lat="49.2757" lon="-0.2093">
        <ele>3.5</ele>
        <time>2019-08-21T08:46:32Z</time>
      </trkpt>
      <trkpt lat="49.27566" lon="-0.20939">
        <ele>3.02</ele>
        <time>2019-08-21T08:46:33Z</time>
      </trkpt>
      <trkpt lat="49.27563" lon="-0.20948">
        <ele>3.02</ele>
        <time>2019-08-21T08:46:34Z</time>
      </trkpt>
      <trkpt lat="49.27525" lon="-0.21055">
        <ele>3.02</ele>
        <time>2019-08-21T08:46:46Z</time>
      </trkpt>
      <trkpt lat="49.27521" lon="-0.21063">
        <ele>3.5</ele>
        <time>2019-08-21T08:46:47Z</time>
      </trkpt>
      <trkpt lat="49.27483" lon="-0.21191">
        <ele>6.39</ele>
        <time>2019-08-21T08:47:01Z</time>
      </trkpt>
      <trkpt lat="49.27443" lon="-0.21329">
        <ele>7.83</ele>
        <time>2019-08-21T08:47:16Z</time>
      </trkpt>
      <trkpt lat="49.27404" lon="-0.21434">
        <ele>9.27</ele>
        <time>2019-08-21T08:47:28Z</time>
      </trkpt>
      <trkpt lat="49.27393" lon="-0.21458">
        <ele>9.27</ele>
        <time>2019-08-21T08:47:31Z</time>
      </trkpt>
      <trkpt lat="49.2739" lon="-0.21467">
        <ele>9.27</ele>
        <time>2019-08-21T08:47:32Z</time>
      </trkpt>
      <trkpt lat="49.27319" lon="-0.21586">
        <ele>8.31</ele>
        <time>2019-08-21T08:47:48Z</time>
      </trkpt>
      <trkpt lat="49.2722" lon="-0.21726">
        <ele>7.83</ele>
        <time>2019-08-21T08:48:08Z</time>
      </trkpt>
      <trkpt lat="49.27124" lon="-0.21862">
        <ele>7.83</ele>
        <time>2019-08-21T08:48:28Z</time>
      </trkpt>
      <trkpt lat="49.27038" lon="-0.21976">
        <ele>8.31</ele>
        <time>2019-08-21T08:48:45Z</time>
      </trkpt>
      <trkpt lat="49.26999" lon="-0.22005">
        <ele>7.83</ele>
        <time>2019-08-21T08:48:52Z</time>
      </trkpt>
      <trkpt lat="49.26996" lon="-0.22009">
        <ele>7.83</ele>
        <time>2019-08-21T08:48:53Z</time>
      </trkpt>
      <trkpt lat="49.26993" lon="-0.22012">
        <ele>7.83</ele>
        <time>2019-08-21T08:48:54Z</time>
      </trkpt>
      <trkpt lat="49.26988" lon="-0.22014">
        <ele>7.83</ele>
        <time>2019-08-21T08:48:55Z</time>
      </trkpt>
      <trkpt lat="49.26983" lon="-0.22016">
        <ele>7.83</ele>
        <time>2019-08-21T08:48:56Z</time>
      </trkpt>
      <trkpt lat="49.26978" lon="-0.22018">
        <ele>7.35</ele>
        <time>2019-08-21T08:48:57Z</time>
      </trkpt>
      <trkpt lat="49.26972" lon="-0.22021">
        <ele>7.35</ele>
        <time>2019-08-21T08:48:58Z</time>
      </trkpt>
      <trkpt lat="49.26966" lon="-0.22025">
        <ele>7.35</ele>
        <time>2019-08-21T08:48:59Z</time>
      </trkpt>
      <trkpt lat="49.26889" lon="-0.2205">
        <ele>4.94</ele>
        <time>2019-08-21T08:49:11Z</time>
      </trkpt>
      <trkpt lat="49.26807" lon="-0.22074">
        <ele>5.91</ele>
        <time>2019-08-21T08:49:24Z</time>
      </trkpt>
      <trkpt lat="49.26722" lon="-0.22106">
        <ele>6.87</ele>
        <time>2019-08-21T08:49:38Z</time>
      </trkpt>
      <trkpt lat="49.26639" lon="-0.22176">
        <ele>4.46</ele>
        <time>2019-08-21T08:49:52Z</time>
      </trkpt>
      <trkpt lat="49.26634" lon="-0.22183">
        <ele>4.46</ele>
        <time>2019-08-21T08:49:53Z</time>
      </trkpt>
      <trkpt lat="49.26571" lon="-0.22298">
        <ele>4.46</ele>
        <time>2019-08-21T08:50:07Z</time>
      </trkpt>
      <trkpt lat="49.26535" lon="-0.22412">
        <ele>4.94</ele>
        <time>2019-08-21T08:50:20Z</time>
      </trkpt>
      <trkpt lat="49.26533" lon="-0.2242">
        <ele>4.94</ele>
        <time>2019-08-21T08:50:21Z</time>
      </trkpt>
      <trkpt lat="49.26531" lon="-0.22427">
        <ele>4.94</ele>
        <time>2019-08-21T08:50:22Z</time>
      </trkpt>
      <trkpt lat="49.26525" lon="-0.22456">
        <ele>4.46</ele>
        <time>2019-08-21T08:50:26Z</time>
      </trkpt>
      <trkpt lat="49.26515" lon="-0.22499">
        <ele>5.42</ele>
        <time>2019-08-21T08:50:36Z</time>
      </trkpt>
      <trkpt lat="49.2651" lon="-0.22563">
        <ele>5.42</ele>
        <time>2019-08-21T08:50:45Z</time>
      </trkpt>
      <trkpt lat="49.26499" lon="-0.22639">
        <ele>4.46</ele>
        <time>2019-08-21T08:50:55Z</time>
      </trkpt>
      <trkpt lat="49.26497" lon="-0.22641">
        <ele>3.98</ele>
        <time>2019-08-21T08:50:56Z</time>
      </trkpt>
      <trkpt lat="49.26494" lon="-0.22643">
        <ele>3.98</ele>
        <time>2019-08-21T08:50:57Z</time>
      </trkpt>
      <trkpt lat="49.26492" lon="-0.22643">
        <ele>3.98</ele>
        <time>2019-08-21T08:50:58Z</time>
      </trkpt>
      <trkpt lat="49.2649" lon="-0.22644">
        <ele>3.98</ele>
        <time>2019-08-21T08:50:59Z</time>
      </trkpt>
      <trkpt lat="49.26488" lon="-0.22644">
        <ele>3.98</ele>
        <time>2019-08-21T08:51:00Z</time>
      </trkpt>
      <trkpt lat="49.26487" lon="-0.22643">
        <ele>4.46</ele>
        <time>2019-08-21T08:51:01Z</time>
      </trkpt>
      <trkpt lat="49.26486" lon="-0.22641">
        <ele>4.46</ele>
        <time>2019-08-21T08:51:02Z</time>
      </trkpt>
      <trkpt lat="49.26485" lon="-0.2264">
        <ele>4.94</ele>
        <time>2019-08-21T08:51:03Z</time>
      </trkpt>
      <trkpt lat="49.26482" lon="-0.22639">
        <ele>4.46</ele>
        <time>2019-08-21T08:51:04Z</time>
      </trkpt>
      <trkpt lat="49.2648" lon="-0.2264">
        <ele>4.94</ele>
        <time>2019-08-21T08:51:05Z</time>
      </trkpt>
      <trkpt lat="49.26477" lon="-0.22643">
        <ele>4.94</ele>
        <time>2019-08-21T08:51:06Z</time>
      </trkpt>
      <trkpt lat="49.26474" lon="-0.22648">
        <ele>4.94</ele>
        <time>2019-08-21T08:51:07Z</time>
      </trkpt>
      <trkpt lat="49.26471" lon="-0.22653">
        <ele>4.94</ele>
        <time>2019-08-21T08:51:08Z</time>
      </trkpt>
      <trkpt lat="49.26463" lon="-0.22664">
        <ele>4.94</ele>
        <time>2019-08-21T08:51:10Z</time>
      </trkpt>
      <trkpt lat="49.26458" lon="-0.22672">
        <ele>4.94</ele>
        <time>2019-08-21T08:51:11Z</time>
      </trkpt>
      <trkpt lat="49.26455" lon="-0.2268">
        <ele>4.94</ele>
        <time>2019-08-21T08:51:12Z</time>
      </trkpt>
      <trkpt lat="49.26451" lon="-0.22688">
        <ele>4.94</ele>
        <time>2019-08-21T08:51:13Z</time>
      </trkpt>
      <trkpt lat="49.26449" lon="-0.22697">
        <ele>4.94</ele>
        <time>2019-08-21T08:51:14Z</time>
      </trkpt>
      <trkpt lat="49.26447" lon="-0.22705">
        <ele>4.94</ele>
        <time>2019-08-21T08:51:15Z</time>
      </trkpt>
      <trkpt lat="49.26445" lon="-0.22713">
        <ele>5.42</ele>
        <time>2019-08-21T08:51:16Z</time>
      </trkpt>
      <trkpt lat="49.26442" lon="-0.22722">
        <ele>5.42</ele>
        <time>2019-08-21T08:51:17Z</time>
      </trkpt>
      <trkpt lat="49.26439" lon="-0.2273">
        <ele>5.91</ele>
        <time>2019-08-21T08:51:18Z</time>
      </trkpt>
      <trkpt lat="49.26424" lon="-0.2277">
        <ele>7.35</ele>
        <time>2019-08-21T08:51:23Z</time>
      </trkpt>
      <trkpt lat="49.26409" lon="-0.22802">
        <ele>7.35</ele>
        <time>2019-08-21T08:51:27Z</time>
      </trkpt>
      <trkpt lat="49.26405" lon="-0.2281">
        <ele>7.35</ele>
        <time>2019-08-21T08:51:28Z</time>
      </trkpt>
      <trkpt lat="49.26402" lon="-0.22818">
        <ele>7.35</ele>
        <time>2019-08-21T08:51:29Z</time>
      </trkpt>
      <trkpt lat="49.26398" lon="-0.22827">
        <ele>7.35</ele>
        <time>2019-08-21T08:51:30Z</time>
      </trkpt>
      <trkpt lat="49.26395" lon="-0.22835">
        <ele>7.35</ele>
        <time>2019-08-21T08:51:31Z</time>
      </trkpt>
      <trkpt lat="49.26392" lon="-0.22844">
        <ele>7.35</ele>
        <time>2019-08-21T08:51:32Z</time>
      </trkpt>
      <trkpt lat="49.26386" lon="-0.22861">
        <ele>7.35</ele>
        <time>2019-08-21T08:51:34Z</time>
      </trkpt>
      <trkpt lat="49.2635" lon="-0.22981">
        <ele>6.39</ele>
        <time>2019-08-21T08:51:48Z</time>
      </trkpt>
      <trkpt lat="49.26346" lon="-0.22998">
        <ele>6.39</ele>
        <time>2019-08-21T08:51:50Z</time>
      </trkpt>
      <trkpt lat="49.26346" lon="-0.23006">
        <ele>5.91</ele>
        <time>2019-08-21T08:51:51Z</time>
      </trkpt>
      <trkpt lat="49.26345" lon="-0.23013">
        <ele>5.42</ele>
        <time>2019-08-21T08:51:52Z</time>
      </trkpt>
      <trkpt lat="49.26344" lon="-0.2302">
        <ele>5.42</ele>
        <time>2019-08-21T08:51:53Z</time>
      </trkpt>
      <trkpt lat="49.26343" lon="-0.23028">
        <ele>5.42</ele>
        <time>2019-08-21T08:51:54Z</time>
      </trkpt>
      <trkpt lat="49.26341" lon="-0.23034">
        <ele>5.42</ele>
        <time>2019-08-21T08:51:55Z</time>
      </trkpt>
      <trkpt lat="49.26339" lon="-0.23041">
        <ele>5.42</ele>
        <time>2019-08-21T08:51:56Z</time>
      </trkpt>
      <trkpt lat="49.26337" lon="-0.23048">
        <ele>4.94</ele>
        <time>2019-08-21T08:51:57Z</time>
      </trkpt>
      <trkpt lat="49.26335" lon="-0.23055">
        <ele>4.94</ele>
        <time>2019-08-21T08:51:58Z</time>
      </trkpt>
      <trkpt lat="49.26327" lon="-0.23077">
        <ele>4.94</ele>
        <time>2019-08-21T08:52:01Z</time>
      </trkpt>
      <trkpt lat="49.26285" lon="-0.23164">
        <ele>5.42</ele>
        <time>2019-08-21T08:52:13Z</time>
      </trkpt>
      <trkpt lat="49.26274" lon="-0.23189">
        <ele>6.87</ele>
        <time>2019-08-21T08:52:18Z</time>
      </trkpt>
      <trkpt lat="49.26271" lon="-0.23195">
        <ele>7.35</ele>
        <time>2019-08-21T08:52:19Z</time>
      </trkpt>
      <trkpt lat="49.26267" lon="-0.23202">
        <ele>7.35</ele>
        <time>2019-08-21T08:52:20Z</time>
      </trkpt>
      <trkpt lat="49.26264" lon="-0.23209">
        <ele>7.83</ele>
        <time>2019-08-21T08:52:21Z</time>
      </trkpt>
      <trkpt lat="49.2626" lon="-0.23218">
        <ele>7.83</ele>
        <time>2019-08-21T08:52:22Z</time>
      </trkpt>
      <trkpt lat="49.26216" lon="-0.23324">
        <ele>11.19</ele>
        <time>2019-08-21T08:52:35Z</time>
      </trkpt>
      <trkpt lat="49.26157" lon="-0.23461">
        <ele>11.19</ele>
        <time>2019-08-21T08:52:52Z</time>
      </trkpt>
      <trkpt lat="49.2609" lon="-0.23576">
        <ele>11.19</ele>
        <time>2019-08-21T08:53:08Z</time>
      </trkpt>
      <trkpt lat="49.26073" lon="-0.23604">
        <ele>10.71</ele>
        <time>2019-08-21T08:53:12Z</time>
      </trkpt>
      <trkpt lat="49.26073" lon="-0.23614">
        <ele>10.23</ele>
        <time>2019-08-21T08:53:13Z</time>
      </trkpt>
      <trkpt lat="49.26075" lon="-0.23623">
        <ele>9.75</ele>
        <time>2019-08-21T08:53:14Z</time>
      </trkpt>
      <trkpt lat="49.26079" lon="-0.2363">
        <ele>9.27</ele>
        <time>2019-08-21T08:53:15Z</time>
      </trkpt>
      <trkpt lat="49.26083" lon="-0.23638">
        <ele>9.27</ele>
        <time>2019-08-21T08:53:16Z</time>
      </trkpt>
      <trkpt lat="49.26086" lon="-0.23647">
        <ele>8.79</ele>
        <time>2019-08-21T08:53:17Z</time>
      </trkpt>
      <trkpt lat="49.26089" lon="-0.23657">
        <ele>8.31</ele>
        <time>2019-08-21T08:53:18Z</time>
      </trkpt>
      <trkpt lat="49.261" lon="-0.23718">
        <ele>5.91</ele>
        <time>2019-08-21T08:53:23Z</time>
      </trkpt>
      <trkpt lat="49.26103" lon="-0.2373">
        <ele>5.91</ele>
        <time>2019-08-21T08:53:24Z</time>
      </trkpt>
      <trkpt lat="49.26111" lon="-0.23778">
        <ele>4.94</ele>
        <time>2019-08-21T08:53:28Z</time>
      </trkpt>
      <trkpt lat="49.26116" lon="-0.23787">
        <ele>4.46</ele>
        <time>2019-08-21T08:53:29Z</time>
      </trkpt>
      <trkpt lat="49.26122" lon="-0.23794">
        <ele>4.46</ele>
        <time>2019-08-21T08:53:30Z</time>
      </trkpt>
      <trkpt lat="49.2613" lon="-0.23798">
        <ele>4.46</ele>
        <time>2019-08-21T08:53:31Z</time>
      </trkpt>
      <trkpt lat="49.26138" lon="-0.23799">
        <ele>4.46</ele>
        <time>2019-08-21T08:53:32Z</time>
      </trkpt>
      <trkpt lat="49.26145" lon="-0.23798">
        <ele>4.46</ele>
        <time>2019-08-21T08:53:33Z</time>
      </trkpt>
      <trkpt lat="49.26152" lon="-0.23796">
        <ele>3.98</ele>
        <time>2019-08-21T08:53:34Z</time>
      </trkpt>
      <trkpt lat="49.26243" lon="-0.23779">
        <ele>4.46</ele>
        <time>2019-08-21T08:53:47Z</time>
      </trkpt>
      <trkpt lat="49.26346" lon="-0.23761">
        <ele>3.02</ele>
        <time>2019-08-21T08:54:02Z</time>
      </trkpt>
      <trkpt lat="49.26413" lon="-0.23746">
        <ele>3.02</ele>
        <time>2019-08-21T08:54:14Z</time>
      </trkpt>
      <trkpt lat="49.26417" lon="-0.23742">
        <ele>3.5</ele>
        <time>2019-08-21T08:54:16Z</time>
      </trkpt>
      <trkpt lat="49.26418" lon="-0.23739">
        <ele>3.5</ele>
        <time>2019-08-21T08:54:17Z</time>
      </trkpt>
      <trkpt lat="49.26419" lon="-0.23736">
        <ele>3.5</ele>
        <time>2019-08-21T08:54:18Z</time>
      </trkpt>
      <trkpt lat="49.26419" lon="-0.23733">
        <ele>3.5</ele>
        <time>2019-08-21T08:54:19Z</time>
      </trkpt>
      <trkpt lat="49.26418" lon="-0.2373">
        <ele>3.5</ele>
        <time>2019-08-21T08:54:20Z</time>
      </trkpt>
      <trkpt lat="49.26417" lon="-0.23726">
        <ele>3.02</ele>
        <time>2019-08-21T08:54:21Z</time>
      </trkpt>
      <trkpt lat="49.26416" lon="-0.23721">
        <ele>3.02</ele>
        <time>2019-08-21T08:54:22Z</time>
      </trkpt>
      <trkpt lat="49.26416" lon="-0.23717">
        <ele>3.02</ele>
        <time>2019-08-21T08:54:23Z</time>
      </trkpt>
      <trkpt lat="49.26415" lon="-0.23712">
        <ele>2.54</ele>
        <time>2019-08-21T08:54:24Z</time>
      </trkpt>
      <trkpt lat="49.26415" lon="-0.23708">
        <ele>3.02</ele>
        <time>2019-08-21T08:54:25Z</time>
      </trkpt>
      <trkpt lat="49.26414" lon="-0.23703">
        <ele>3.02</ele>
        <time>2019-08-21T08:54:26Z</time>
      </trkpt>
      <trkpt lat="49.26413" lon="-0.23699">
        <ele>3.02</ele>
        <time>2019-08-21T08:54:27Z</time>
      </trkpt>
      <trkpt lat="49.26412" lon="-0.23694">
        <ele>3.02</ele>
        <time>2019-08-21T08:54:28Z</time>
      </trkpt>
      <trkpt lat="49.26412" lon="-0.23688">
        <ele>3.5</ele>
        <time>2019-08-21T08:54:29Z</time>
      </trkpt>
      <trkpt lat="49.26411" lon="-0.23681">
        <ele>3.5</ele>
        <time>2019-08-21T08:54:30Z</time>
      </trkpt>
      <trkpt lat="49.26411" lon="-0.23674">
        <ele>3.5</ele>
        <time>2019-08-21T08:54:31Z</time>
      </trkpt>
      <trkpt lat="49.2641" lon="-0.2366">
        <ele>3.5</ele>
        <time>2019-08-21T08:54:33Z</time>
      </trkpt>
      <trkpt lat="49.26408" lon="-0.23618">
        <ele>3.5</ele>
        <time>2019-08-21T08:54:39Z</time>
      </trkpt>
      <trkpt lat="49.26411" lon="-0.23612">
        <ele>3.5</ele>
        <time>2019-08-21T08:54:40Z</time>
      </trkpt>
      <trkpt lat="49.26415" lon="-0.2361">
        <ele>3.5</ele>
        <time>2019-08-21T08:54:41Z</time>
      </trkpt>
      <trkpt lat="49.2642" lon="-0.23609">
        <ele>3.5</ele>
        <time>2019-08-21T08:54:42Z</time>
      </trkpt>
      <trkpt lat="49.26425" lon="-0.23609">
        <ele>3.5</ele>
        <time>2019-08-21T08:54:43Z</time>
      </trkpt>
      <trkpt lat="49.26446" lon="-0.2361">
        <ele>3.98</ele>
        <time>2019-08-21T08:54:47Z</time>
      </trkpt>
      <trkpt lat="49.26452" lon="-0.2361">
        <ele>3.98</ele>
        <time>2019-08-21T08:54:48Z</time>
      </trkpt>
      <trkpt lat="49.26462" lon="-0.23607">
        <ele>3.98</ele>
        <time>2019-08-21T08:54:50Z</time>
      </trkpt>
      <trkpt lat="49.26466" lon="-0.23604">
        <ele>3.98</ele>
        <time>2019-08-21T08:54:51Z</time>
      </trkpt>
      <trkpt lat="49.26469" lon="-0.23599">
        <ele>3.98</ele>
        <time>2019-08-21T08:54:52Z</time>
      </trkpt>
      <trkpt lat="49.26471" lon="-0.23593">
        <ele>3.98</ele>
        <time>2019-08-21T08:54:53Z</time>
      </trkpt>
      <trkpt lat="49.26471" lon="-0.23586">
        <ele>3.98</ele>
        <time>2019-08-21T08:54:54Z</time>
      </trkpt>
      <trkpt lat="49.2647" lon="-0.23579">
        <ele>3.98</ele>
        <time>2019-08-21T08:54:55Z</time>
      </trkpt>
      <trkpt lat="49.26469" lon="-0.23572">
        <ele>4.46</ele>
        <time>2019-08-21T08:54:56Z</time>
      </trkpt>
      <trkpt lat="49.26469" lon="-0.23565">
        <ele>4.46</ele>
        <time>2019-08-21T08:54:57Z</time>
      </trkpt>
      <trkpt lat="49.26465" lon="-0.23514">
        <ele>4.46</ele>
        <time>2019-08-21T08:55:05Z</time>
      </trkpt>
      <trkpt lat="49.26464" lon="-0.23508">
        <ele>4.46</ele>
        <time>2019-08-21T08:55:06Z</time>
      </trkpt>
      <trkpt lat="49.26461" lon="-0.23493">
        <ele>4.46</ele>
        <time>2019-08-21T08:55:08Z</time>
      </trkpt>
      <trkpt lat="49.26459" lon="-0.23484">
        <ele>4.46</ele>
        <time>2019-08-21T08:55:09Z</time>
      </trkpt>
      <trkpt lat="49.26458" lon="-0.23475">
        <ele>4.46</ele>
        <time>2019-08-21T08:55:10Z</time>
      </trkpt>
      <trkpt lat="49.26458" lon="-0.23466">
        <ele>4.46</ele>
        <time>2019-08-21T08:55:11Z</time>
      </trkpt>
      <trkpt lat="49.26457" lon="-0.23459">
        <ele>4.46</ele>
        <time>2019-08-21T08:55:12Z</time>
      </trkpt>
      <trkpt lat="49.26456" lon="-0.23453">
        <ele>4.46</ele>
        <time>2019-08-21T08:55:13Z</time>
      </trkpt>
      <trkpt lat="49.26454" lon="-0.23451">
        <ele>4.94</ele>
        <time>2019-08-21T08:55:14Z</time>
      </trkpt>
      <trkpt lat="49.26453" lon="-0.23447">
        <ele>5.42</ele>
        <time>2019-08-21T08:55:23Z</time>
      </trkpt>
      <trkpt lat="49.26452" lon="-0.23447">
        <ele>5.42</ele>
        <time>2019-08-21T08:55:52Z</time>
      </trkpt>
      <trkpt lat="49.26452" lon="-0.23445">
        <ele>5.42</ele>
        <time>2019-08-21T08:56:30Z</time>
      </trkpt>
      <trkpt lat="49.26453" lon="-0.23432">
        <ele>6.39</ele>
        <time>2019-08-21T08:56:40Z</time>
      </trkpt>
      <trkpt lat="49.26452" lon="-0.2342">
        <ele>6.39</ele>
        <time>2019-08-21T08:56:42Z</time>
      </trkpt>
      <trkpt lat="49.2645" lon="-0.23396">
        <ele>6.39</ele>
        <time>2019-08-21T08:56:45Z</time>
      </trkpt>
      <trkpt lat="49.26449" lon="-0.23388">
        <ele>6.39</ele>
        <time>2019-08-21T08:56:46Z</time>
      </trkpt>
      <trkpt lat="49.26448" lon="-0.23379">
        <ele>6.87</ele>
        <time>2019-08-21T08:56:47Z</time>
      </trkpt>
      <trkpt lat="49.26444" lon="-0.2333">
        <ele>6.87</ele>
        <time>2019-08-21T08:56:53Z</time>
      </trkpt>
      <trkpt lat="49.26451" lon="-0.2321">
        <ele>7.35</ele>
        <time>2019-08-21T08:57:07Z</time>
      </trkpt>
      <trkpt lat="49.26458" lon="-0.23077">
        <ele>9.27</ele>
        <time>2019-08-21T08:57:23Z</time>
      </trkpt>
      <trkpt lat="49.26459" lon="-0.23069">
        <ele>9.27</ele>
        <time>2019-08-21T08:57:24Z</time>
      </trkpt>
      <trkpt lat="49.26459" lon="-0.2306">
        <ele>9.27</ele>
        <time>2019-08-21T08:57:25Z</time>
      </trkpt>
      <trkpt lat="49.26463" lon="-0.22924">
        <ele>8.79</ele>
        <time>2019-08-21T08:57:40Z</time>
      </trkpt>
      <trkpt lat="49.26471" lon="-0.22812">
        <ele>8.31</ele>
        <time>2019-08-21T08:57:52Z</time>
      </trkpt>
      <trkpt lat="49.26495" lon="-0.22667">
        <ele>6.87</ele>
        <time>2019-08-21T08:58:08Z</time>
      </trkpt>
      <trkpt lat="49.26512" lon="-0.22526">
        <ele>7.35</ele>
        <time>2019-08-21T08:58:24Z</time>
      </trkpt>
      <trkpt lat="49.26513" lon="-0.22518">
        <ele>7.35</ele>
        <time>2019-08-21T08:58:25Z</time>
      </trkpt>
      <trkpt lat="49.26515" lon="-0.22495">
        <ele>7.83</ele>
        <time>2019-08-21T08:58:28Z</time>
      </trkpt>
      <trkpt lat="49.26518" lon="-0.22489">
        <ele>7.83</ele>
        <time>2019-08-21T08:58:29Z</time>
      </trkpt>
      <trkpt lat="49.2652" lon="-0.22483">
        <ele>7.83</ele>
        <time>2019-08-21T08:58:30Z</time>
      </trkpt>
      <trkpt lat="49.26522" lon="-0.22477">
        <ele>7.83</ele>
        <time>2019-08-21T08:58:31Z</time>
      </trkpt>
      <trkpt lat="49.26524" lon="-0.2247">
        <ele>7.83</ele>
        <time>2019-08-21T08:58:32Z</time>
      </trkpt>
      <trkpt lat="49.26525" lon="-0.22463">
        <ele>7.83</ele>
        <time>2019-08-21T08:58:33Z</time>
      </trkpt>
      <trkpt lat="49.26557" lon="-0.22348">
        <ele>7.35</ele>
        <time>2019-08-21T08:58:47Z</time>
      </trkpt>
      <trkpt lat="49.26606" lon="-0.22226">
        <ele>6.87</ele>
        <time>2019-08-21T08:59:02Z</time>
      </trkpt>
      <trkpt lat="49.26634" lon="-0.22184">
        <ele>5.91</ele>
        <time>2019-08-21T08:59:08Z</time>
      </trkpt>
      <trkpt lat="49.26724" lon="-0.22107">
        <ele>5.91</ele>
        <time>2019-08-21T08:59:23Z</time>
      </trkpt>
      <trkpt lat="49.26815" lon="-0.22069">
        <ele>5.42</ele>
        <time>2019-08-21T08:59:37Z</time>
      </trkpt>
      <trkpt lat="49.26918" lon="-0.22038">
        <ele>3.5</ele>
        <time>2019-08-21T08:59:53Z</time>
      </trkpt>
      <trkpt lat="49.26962" lon="-0.22023">
        <ele>2.06</ele>
        <time>2019-08-21T09:00:00Z</time>
      </trkpt>
      <trkpt lat="49.26967" lon="-0.2202">
        <ele>1.58</ele>
        <time>2019-08-21T09:00:01Z</time>
      </trkpt>
      <trkpt lat="49.26973" lon="-0.22017">
        <ele>1.58</ele>
        <time>2019-08-21T09:00:02Z</time>
      </trkpt>
      <trkpt lat="49.27061" lon="-0.21954">
        <ele>3.02</ele>
        <time>2019-08-21T09:00:17Z</time>
      </trkpt>
      <trkpt lat="49.27147" lon="-0.21834">
        <ele>4.94</ele>
        <time>2019-08-21T09:00:35Z</time>
      </trkpt>
      <trkpt lat="49.27208" lon="-0.21749">
        <ele>5.91</ele>
        <time>2019-08-21T09:00:48Z</time>
      </trkpt>
      <trkpt lat="49.27236" lon="-0.2171">
        <ele>5.42</ele>
        <time>2019-08-21T09:00:54Z</time>
      </trkpt>
      <trkpt lat="49.27241" lon="-0.21704">
        <ele>5.42</ele>
        <time>2019-08-21T09:00:55Z</time>
      </trkpt>
      <trkpt lat="49.27319" lon="-0.2159">
        <ele>5.91</ele>
        <time>2019-08-21T09:01:12Z</time>
      </trkpt>
      <trkpt lat="49.27367" lon="-0.21513">
        <ele>6.39</ele>
        <time>2019-08-21T09:01:25Z</time>
      </trkpt>
      <trkpt lat="49.27393" lon="-0.21482">
        <ele>6.87</ele>
        <time>2019-08-21T09:01:36Z</time>
      </trkpt>
      <trkpt lat="49.27401" lon="-0.21475">
        <ele>6.87</ele>
        <time>2019-08-21T09:01:39Z</time>
      </trkpt>
      <trkpt lat="49.27403" lon="-0.21476">
        <ele>6.87</ele>
        <time>2019-08-21T09:01:40Z</time>
      </trkpt>
      <trkpt lat="49.27404" lon="-0.21477">
        <ele>6.39</ele>
        <time>2019-08-21T09:01:41Z</time>
      </trkpt>
      <trkpt lat="49.27407" lon="-0.21478">
        <ele>6.39</ele>
        <time>2019-08-21T09:01:42Z</time>
      </trkpt>
      <trkpt lat="49.27409" lon="-0.21478">
        <ele>5.91</ele>
        <time>2019-08-21T09:01:43Z</time>
      </trkpt>
      <trkpt lat="49.27412" lon="-0.21479">
        <ele>5.42</ele>
        <time>2019-08-21T09:01:44Z</time>
      </trkpt>
      <trkpt lat="49.27415" lon="-0.2148">
        <ele>5.42</ele>
        <time>2019-08-21T09:01:45Z</time>
      </trkpt>
      <trkpt lat="49.27418" lon="-0.21482">
        <ele>4.94</ele>
        <time>2019-08-21T09:01:46Z</time>
      </trkpt>
      <trkpt lat="49.27421" lon="-0.21483">
        <ele>4.46</ele>
        <time>2019-08-21T09:01:47Z</time>
      </trkpt>
      <trkpt lat="49.27424" lon="-0.21487">
        <ele>3.5</ele>
        <time>2019-08-21T09:01:48Z</time>
      </trkpt>
      <trkpt lat="49.27427" lon="-0.21491">
        <ele>3.02</ele>
        <time>2019-08-21T09:01:49Z</time>
      </trkpt>
      <trkpt lat="49.2743" lon="-0.21496">
        <ele>2.06</ele>
        <time>2019-08-21T09:01:50Z</time>
      </trkpt>
      <trkpt lat="49.27431" lon="-0.21503">
        <ele>1.1</ele>
        <time>2019-08-21T09:01:51Z</time>
      </trkpt>
      <trkpt lat="49.27433" lon="-0.2151">
        <ele>0.14</ele>
        <time>2019-08-21T09:01:52Z</time>
      </trkpt>
      <trkpt lat="49.27435" lon="-0.21517">
        <ele>-0.82</ele>
        <time>2019-08-21T09:01:53Z</time>
      </trkpt>
      <trkpt lat="49.27437" lon="-0.21526">
        <ele>-1.79</ele>
        <time>2019-08-21T09:01:54Z</time>
      </trkpt>
      <trkpt lat="49.2744" lon="-0.21535">
        <ele>-2.27</ele>
        <time>2019-08-21T09:01:55Z</time>
      </trkpt>
      <trkpt lat="49.27443" lon="-0.21543">
        <ele>-2.75</ele>
        <time>2019-08-21T09:01:56Z</time>
      </trkpt>
      <trkpt lat="49.27447" lon="-0.2155">
        <ele>-2.75</ele>
        <time>2019-08-21T09:01:57Z</time>
      </trkpt>
      <trkpt lat="49.27454" lon="-0.21562">
        <ele>-2.27</ele>
        <time>2019-08-21T09:01:59Z</time>
      </trkpt>
      <trkpt lat="49.27462" lon="-0.21571">
        <ele>-2.27</ele>
        <time>2019-08-21T09:02:01Z</time>
      </trkpt>
      <trkpt lat="49.27466" lon="-0.21574">
        <ele>-2.27</ele>
        <time>2019-08-21T09:02:02Z</time>
      </trkpt>
      <trkpt lat="49.27469" lon="-0.21574">
        <ele>-2.27</ele>
        <time>2019-08-21T09:02:03Z</time>
      </trkpt>
      <trkpt lat="49.27483" lon="-0.21568">
        <ele>-3.23</ele>
        <time>2019-08-21T09:02:06Z</time>
      </trkpt>
      <trkpt lat="49.27487" lon="-0.21565">
        <ele>-3.71</ele>
        <time>2019-08-21T09:02:07Z</time>
      </trkpt>
      <trkpt lat="49.27492" lon="-0.21562">
        <ele>-3.71</ele>
        <time>2019-08-21T09:02:08Z</time>
      </trkpt>
      <trkpt lat="49.27497" lon="-0.2156">
        <ele>-4.19</ele>
        <time>2019-08-21T09:02:09Z</time>
      </trkpt>
      <trkpt lat="49.27501" lon="-0.21559">
        <ele>-4.19</ele>
        <time>2019-08-21T09:02:10Z</time>
      </trkpt>
      <trkpt lat="49.27506" lon="-0.21558">
        <ele>-4.19</ele>
        <time>2019-08-21T09:02:11Z</time>
      </trkpt>
      <trkpt lat="49.27511" lon="-0.21558">
        <ele>-4.19</ele>
        <time>2019-08-21T09:02:12Z</time>
      </trkpt>
      <trkpt lat="49.27516" lon="-0.21558">
        <ele>-4.19</ele>
        <time>2019-08-21T09:02:13Z</time>
      </trkpt>
      <trkpt lat="49.27521" lon="-0.21556">
        <ele>-4.19</ele>
        <time>2019-08-21T09:02:14Z</time>
      </trkpt>
      <trkpt lat="49.27526" lon="-0.21553">
        <ele>-4.19</ele>
        <time>2019-08-21T09:02:15Z</time>
      </trkpt>
      <trkpt lat="49.2753" lon="-0.21551">
        <ele>-4.19</ele>
        <time>2019-08-21T09:02:16Z</time>
      </trkpt>
      <trkpt lat="49.27533" lon="-0.21549">
        <ele>-4.19</ele>
        <time>2019-08-21T09:02:17Z</time>
      </trkpt>
      <trkpt lat="49.27536" lon="-0.21549">
        <ele>-4.19</ele>
        <time>2019-08-21T09:02:18Z</time>
      </trkpt>
      <trkpt lat="49.27539" lon="-0.21549">
        <ele>-4.19</ele>
        <time>2019-08-21T09:02:19Z</time>
      </trkpt>
      <trkpt lat="49.27543" lon="-0.21548">
        <ele>-4.19</ele>
        <time>2019-08-21T09:02:20Z</time>
      </trkpt>
      <trkpt lat="49.27546" lon="-0.21547">
        <ele>-4.19</ele>
        <time>2019-08-21T09:02:21Z</time>
      </trkpt>
      <trkpt lat="49.2755" lon="-0.21547">
        <ele>-4.19</ele>
        <time>2019-08-21T09:02:22Z</time>
      </trkpt>
      <trkpt lat="49.27566" lon="-0.21546">
        <ele>-4.67</ele>
        <time>2019-08-21T09:02:25Z</time>
      </trkpt>
      <trkpt lat="49.27584" lon="-0.21538">
        <ele>-5.15</ele>
        <time>2019-08-21T09:02:29Z</time>
      </trkpt>
      <trkpt lat="49.27589" lon="-0.21536">
        <ele>-5.63</ele>
        <time>2019-08-21T09:02:30Z</time>
      </trkpt>
      <trkpt lat="49.27595" lon="-0.21535">
        <ele>-5.63</ele>
        <time>2019-08-21T09:02:31Z</time>
      </trkpt>
      <trkpt lat="49.27605" lon="-0.21533">
        <ele>-6.59</ele>
        <time>2019-08-21T09:02:33Z</time>
      </trkpt>
      <trkpt lat="49.27627" lon="-0.21532">
        <ele>-6.11</ele>
        <time>2019-08-21T09:02:37Z</time>
      </trkpt>
      <trkpt lat="49.27632" lon="-0.21531">
        <ele>-6.59</ele>
        <time>2019-08-21T09:02:38Z</time>
      </trkpt>
      <trkpt lat="49.27658" lon="-0.21528">
        <ele>-7.07</ele>
        <time>2019-08-21T09:02:43Z</time>
      </trkpt>
      <trkpt lat="49.27664" lon="-0.21527">
        <ele>-7.07</ele>
        <time>2019-08-21T09:02:44Z</time>
      </trkpt>
      <trkpt lat="49.2767" lon="-0.21528">
        <ele>-6.59</ele>
        <time>2019-08-21T09:02:45Z</time>
      </trkpt>
      <trkpt lat="49.27686" lon="-0.21535">
        <ele>-5.63</ele>
        <time>2019-08-21T09:02:48Z</time>
      </trkpt>
      <trkpt lat="49.27702" lon="-0.21544">
        <ele>-4.67</ele>
        <time>2019-08-21T09:02:51Z</time>
      </trkpt>
      <trkpt lat="49.27707" lon="-0.21545">
        <ele>-4.67</ele>
        <time>2019-08-21T09:02:52Z</time>
      </trkpt>
      <trkpt lat="49.27713" lon="-0.21546">
        <ele>-4.67</ele>
        <time>2019-08-21T09:02:53Z</time>
      </trkpt>
      <trkpt lat="49.27719" lon="-0.21546">
        <ele>-4.19</ele>
        <time>2019-08-21T09:02:54Z</time>
      </trkpt>
      <trkpt lat="49.27725" lon="-0.21547">
        <ele>-4.19</ele>
        <time>2019-08-21T09:02:55Z</time>
      </trkpt>
      <trkpt lat="49.27736" lon="-0.2155">
        <ele>-3.71</ele>
        <time>2019-08-21T09:02:57Z</time>
      </trkpt>
      <trkpt lat="49.27753" lon="-0.21557">
        <ele>-3.23</ele>
        <time>2019-08-21T09:03:00Z</time>
      </trkpt>
      <trkpt lat="49.27764" lon="-0.21564">
        <ele>-3.23</ele>
        <time>2019-08-21T09:03:02Z</time>
      </trkpt>
      <trkpt lat="49.27789" lon="-0.21586">
        <ele>-1.79</ele>
        <time>2019-08-21T09:03:07Z</time>
      </trkpt>
      <trkpt lat="49.2786" lon="-0.21642">
        <ele>0.14</ele>
        <time>2019-08-21T09:03:20Z</time>
      </trkpt>
      <trkpt lat="49.27865" lon="-0.21647">
        <ele>0.14</ele>
        <time>2019-08-21T09:03:21Z</time>
      </trkpt>
      <trkpt lat="49.2788" lon="-0.2166">
        <ele>0.62</ele>
        <time>2019-08-21T09:03:24Z</time>
      </trkpt>
      <trkpt lat="49.27891" lon="-0.21667">
        <ele>1.1</ele>
        <time>2019-08-21T09:03:26Z</time>
      </trkpt>
      <trkpt lat="49.27896" lon="-0.21672">
        <ele>1.1</ele>
        <time>2019-08-21T09:03:27Z</time>
      </trkpt>
      <trkpt lat="49.27906" lon="-0.21681">
        <ele>1.1</ele>
        <time>2019-08-21T09:03:29Z</time>
      </trkpt>
      <trkpt lat="49.27911" lon="-0.21684">
        <ele>1.58</ele>
        <time>2019-08-21T09:03:30Z</time>
      </trkpt>
      <trkpt lat="49.27917" lon="-0.21687">
        <ele>1.58</ele>
        <time>2019-08-21T09:03:31Z</time>
      </trkpt>
      <trkpt lat="49.27923" lon="-0.21688">
        <ele>1.58</ele>
        <time>2019-08-21T09:03:32Z</time>
      </trkpt>
      <trkpt lat="49.27929" lon="-0.21688">
        <ele>1.58</ele>
        <time>2019-08-21T09:03:33Z</time>
      </trkpt>
      <trkpt lat="49.2794" lon="-0.2169">
        <ele>1.1</ele>
        <time>2019-08-21T09:03:35Z</time>
      </trkpt>
      <trkpt lat="49.27946" lon="-0.21693">
        <ele>1.1</ele>
        <time>2019-08-21T09:03:36Z</time>
      </trkpt>
      <trkpt lat="49.27951" lon="-0.21696">
        <ele>1.1</ele>
        <time>2019-08-21T09:03:37Z</time>
      </trkpt>
      <trkpt lat="49.27975" lon="-0.21715">
        <ele>1.58</ele>
        <time>2019-08-21T09:03:42Z</time>
      </trkpt>
      <trkpt lat="49.27979" lon="-0.21717">
        <ele>1.58</ele>
        <time>2019-08-21T09:03:43Z</time>
      </trkpt>
      <trkpt lat="49.27983" lon="-0.21719">
        <ele>2.06</ele>
        <time>2019-08-21T09:03:44Z</time>
      </trkpt>
      <trkpt lat="49.27987" lon="-0.21721">
        <ele>2.06</ele>
        <time>2019-08-21T09:03:45Z</time>
      </trkpt>
      <trkpt lat="49.27991" lon="-0.21724">
        <ele>2.06</ele>
        <time>2019-08-21T09:03:46Z</time>
      </trkpt>
      <trkpt lat="49.28014" lon="-0.21743">
        <ele>2.54</ele>
        <time>2019-08-21T09:03:51Z</time>
      </trkpt>
      <trkpt lat="49.28018" lon="-0.21748">
        <ele>3.02</ele>
        <time>2019-08-21T09:03:52Z</time>
      </trkpt>
      <trkpt lat="49.28023" lon="-0.21752">
        <ele>3.02</ele>
        <time>2019-08-21T09:03:53Z</time>
      </trkpt>
      <trkpt lat="49.28028" lon="-0.21756">
        <ele>3.02</ele>
        <time>2019-08-21T09:03:54Z</time>
      </trkpt>
      <trkpt lat="49.28033" lon="-0.2176">
        <ele>3.02</ele>
        <time>2019-08-21T09:03:55Z</time>
      </trkpt>
      <trkpt lat="49.28038" lon="-0.21765">
        <ele>3.5</ele>
        <time>2019-08-21T09:03:56Z</time>
      </trkpt>
      <trkpt lat="49.28042" lon="-0.2177">
        <ele>3.5</ele>
        <time>2019-08-21T09:03:57Z</time>
      </trkpt>
      <trkpt lat="49.28051" lon="-0.21781">
        <ele>3.5</ele>
        <time>2019-08-21T09:03:59Z</time>
      </trkpt>
      <trkpt lat="49.28055" lon="-0.21785">
        <ele>3.5</ele>
        <time>2019-08-21T09:04:00Z</time>
      </trkpt>
      <trkpt lat="49.28065" lon="-0.21792">
        <ele>3.5</ele>
        <time>2019-08-21T09:04:02Z</time>
      </trkpt>
      <trkpt lat="49.28069" lon="-0.21797">
        <ele>3.98</ele>
        <time>2019-08-21T09:04:03Z</time>
      </trkpt>
      <trkpt lat="49.28073" lon="-0.21803">
        <ele>3.98</ele>
        <time>2019-08-21T09:04:04Z</time>
      </trkpt>
      <trkpt lat="49.28077" lon="-0.2181">
        <ele>3.98</ele>
        <time>2019-08-21T09:04:05Z</time>
      </trkpt>
      <trkpt lat="49.2808" lon="-0.21817">
        <ele>3.98</ele>
        <time>2019-08-21T09:04:06Z</time>
      </trkpt>
      <trkpt lat="49.28086" lon="-0.21832">
        <ele>4.46</ele>
        <time>2019-08-21T09:04:08Z</time>
      </trkpt>
      <trkpt lat="49.28089" lon="-0.21839">
        <ele>4.46</ele>
        <time>2019-08-21T09:04:09Z</time>
      </trkpt>
      <trkpt lat="49.28093" lon="-0.21846">
        <ele>4.46</ele>
        <time>2019-08-21T09:04:10Z</time>
      </trkpt>
      <trkpt lat="49.28097" lon="-0.21851">
        <ele>4.46</ele>
        <time>2019-08-21T09:04:11Z</time>
      </trkpt>
      <trkpt lat="49.28101" lon="-0.21856">
        <ele>4.46</ele>
        <time>2019-08-21T09:04:12Z</time>
      </trkpt>
      <trkpt lat="49.28132" lon="-0.21907">
        <ele>4.94</ele>
        <time>2019-08-21T09:04:20Z</time>
      </trkpt>
      <trkpt lat="49.28134" lon="-0.21914">
        <ele>4.94</ele>
        <time>2019-08-21T09:04:21Z</time>
      </trkpt>
      <trkpt lat="49.28136" lon="-0.21922">
        <ele>4.94</ele>
        <time>2019-08-21T09:04:22Z</time>
      </trkpt>
      <trkpt lat="49.28137" lon="-0.21929">
        <ele>5.42</ele>
        <time>2019-08-21T09:04:23Z</time>
      </trkpt>
      <trkpt lat="49.28137" lon="-0.21935">
        <ele>5.91</ele>
        <time>2019-08-21T09:04:24Z</time>
      </trkpt>
      <trkpt lat="49.28137" lon="-0.21941">
        <ele>5.91</ele>
        <time>2019-08-21T09:04:25Z</time>
      </trkpt>
      <trkpt lat="49.28135" lon="-0.21954">
        <ele>6.39</ele>
        <time>2019-08-21T09:04:27Z</time>
      </trkpt>
      <trkpt lat="49.2813" lon="-0.21979">
        <ele>5.91</ele>
        <time>2019-08-21T09:04:30Z</time>
      </trkpt>
      <trkpt lat="49.2813" lon="-0.21986">
        <ele>5.91</ele>
        <time>2019-08-21T09:04:31Z</time>
      </trkpt>
      <trkpt lat="49.28131" lon="-0.21993">
        <ele>5.42</ele>
        <time>2019-08-21T09:04:32Z</time>
      </trkpt>
      <trkpt lat="49.28134" lon="-0.21996">
        <ele>5.42</ele>
        <time>2019-08-21T09:04:33Z</time>
      </trkpt>
      <trkpt lat="49.28138" lon="-0.21996">
        <ele>4.94</ele>
        <time>2019-08-21T09:04:34Z</time>
      </trkpt>
      <trkpt lat="49.28142" lon="-0.21993">
        <ele>4.94</ele>
        <time>2019-08-21T09:04:35Z</time>
      </trkpt>
      <trkpt lat="49.28145" lon="-0.21989">
        <ele>4.94</ele>
        <time>2019-08-21T09:04:36Z</time>
      </trkpt>
      <trkpt lat="49.28149" lon="-0.21983">
        <ele>4.46</ele>
        <time>2019-08-21T09:04:37Z</time>
      </trkpt>
      <trkpt lat="49.28167" lon="-0.2196">
        <ele>4.94</ele>
        <time>2019-08-21T09:04:43Z</time>
      </trkpt>
      <trkpt lat="49.28169" lon="-0.2196">
        <ele>4.94</ele>
        <time>2019-08-21T09:04:44Z</time>
      </trkpt>
      <trkpt lat="49.2817" lon="-0.21962">
        <ele>4.46</ele>
        <time>2019-08-21T09:04:45Z</time>
      </trkpt>
      <trkpt lat="49.28177" lon="-0.21995">
        <ele>3.98</ele>
        <time>2019-08-21T09:04:53Z</time>
      </trkpt>
      <trkpt lat="49.2818" lon="-0.2201">
        <ele>4.46</ele>
        <time>2019-08-21T09:05:01Z</time>
      </trkpt>
      <trkpt lat="49.28179" lon="-0.22016">
        <ele>4.46</ele>
        <time>2019-08-21T09:05:02Z</time>
      </trkpt>
      <trkpt lat="49.28178" lon="-0.22022">
        <ele>4.46</ele>
        <time>2019-08-21T09:05:03Z</time>
      </trkpt>
      <trkpt lat="49.28174" lon="-0.22038">
        <ele>4.94</ele>
        <time>2019-08-21T09:05:05Z</time>
      </trkpt>
      <trkpt lat="49.28173" lon="-0.22046">
        <ele>4.94</ele>
        <time>2019-08-21T09:05:06Z</time>
      </trkpt>
      <trkpt lat="49.28172" lon="-0.22053">
        <ele>5.42</ele>
        <time>2019-08-21T09:05:07Z</time>
      </trkpt>
      <trkpt lat="49.28169" lon="-0.2207">
        <ele>5.91</ele>
        <time>2019-08-21T09:05:09Z</time>
      </trkpt>
      <trkpt lat="49.28164" lon="-0.22154">
        <ele>7.35</ele>
        <time>2019-08-21T09:05:19Z</time>
      </trkpt>
      <trkpt lat="49.28165" lon="-0.22162">
        <ele>7.35</ele>
        <time>2019-08-21T09:05:20Z</time>
      </trkpt>
      <trkpt lat="49.28172" lon="-0.22204">
        <ele>6.87</ele>
        <time>2019-08-21T09:05:25Z</time>
      </trkpt>
      <trkpt lat="49.28176" lon="-0.22238">
        <ele>7.35</ele>
        <time>2019-08-21T09:05:29Z</time>
      </trkpt>
      <trkpt lat="49.28175" lon="-0.22255">
        <ele>7.35</ele>
        <time>2019-08-21T09:05:31Z</time>
      </trkpt>
      <trkpt lat="49.28173" lon="-0.22264">
        <ele>6.87</ele>
        <time>2019-08-21T09:05:32Z</time>
      </trkpt>
      <trkpt lat="49.2817" lon="-0.22272">
        <ele>6.39</ele>
        <time>2019-08-21T09:05:33Z</time>
      </trkpt>
      <trkpt lat="49.28167" lon="-0.22281">
        <ele>5.91</ele>
        <time>2019-08-21T09:05:34Z</time>
      </trkpt>
      <trkpt lat="49.28163" lon="-0.22289">
        <ele>5.42</ele>
        <time>2019-08-21T09:05:35Z</time>
      </trkpt>
      <trkpt lat="49.28159" lon="-0.22298">
        <ele>5.42</ele>
        <time>2019-08-21T09:05:36Z</time>
      </trkpt>
      <trkpt lat="49.28154" lon="-0.22306">
        <ele>5.42</ele>
        <time>2019-08-21T09:05:37Z</time>
      </trkpt>
      <trkpt lat="49.28088" lon="-0.22421">
        <ele>4.46</ele>
        <time>2019-08-21T09:05:53Z</time>
      </trkpt>
      <trkpt lat="49.28058" lon="-0.22477">
        <ele>5.42</ele>
        <time>2019-08-21T09:06:02Z</time>
      </trkpt>
      <trkpt lat="49.28056" lon="-0.22482">
        <ele>5.42</ele>
        <time>2019-08-21T09:06:03Z</time>
      </trkpt>
      <trkpt lat="49.28053" lon="-0.22484">
        <ele>5.91</ele>
        <time>2019-08-21T09:06:04Z</time>
      </trkpt>
      <trkpt lat="49.2805" lon="-0.22483">
        <ele>5.91</ele>
        <time>2019-08-21T09:06:05Z</time>
      </trkpt>
      <trkpt lat="49.28047" lon="-0.22482">
        <ele>5.91</ele>
        <time>2019-08-21T09:06:06Z</time>
      </trkpt>
      <trkpt lat="49.28044" lon="-0.2248">
        <ele>6.39</ele>
        <time>2019-08-21T09:06:07Z</time>
      </trkpt>
      <trkpt lat="49.28015" lon="-0.22457">
        <ele>7.35</ele>
        <time>2019-08-21T09:06:23Z</time>
      </trkpt>
      <trkpt lat="49.28014" lon="-0.22455">
        <ele>7.83</ele>
        <time>2019-08-21T09:06:24Z</time>
      </trkpt>
      <trkpt lat="49.28002" lon="-0.22445">
        <ele>8.31</ele>
        <time>2019-08-21T09:06:31Z</time>
      </trkpt>
      <trkpt lat="49.28001" lon="-0.22442">
        <ele>8.79</ele>
        <time>2019-08-21T09:06:32Z</time>
      </trkpt>
      <trkpt lat="49.28" lon="-0.22439">
        <ele>8.79</ele>
        <time>2019-08-21T09:06:33Z</time>
      </trkpt>
      <trkpt lat="49.28001" lon="-0.22436">
        <ele>8.79</ele>
        <time>2019-08-21T09:06:34Z</time>
      </trkpt>
      <trkpt lat="49.28001" lon="-0.22432">
        <ele>8.79</ele>
        <time>2019-08-21T09:06:35Z</time>
      </trkpt>
      <trkpt lat="49.28004" lon="-0.22421">
        <ele>8.31</ele>
        <time>2019-08-21T09:06:38Z</time>
      </trkpt>
      <trkpt lat="49.28003" lon="-0.22405">
        <ele>8.31</ele>
        <time>2019-08-21T09:06:42Z</time>
      </trkpt>
      <trkpt lat="49.28" lon="-0.22402">
        <ele>8.31</ele>
        <time>2019-08-21T09:06:43Z</time>
      </trkpt>
      <trkpt lat="49.27997" lon="-0.22399">
        <ele>7.83</ele>
        <time>2019-08-21T09:06:44Z</time>
      </trkpt>
      <trkpt lat="49.27986" lon="-0.22388">
        <ele>7.83</ele>
        <time>2019-08-21T09:06:47Z</time>
      </trkpt>
      <trkpt lat="49.27982" lon="-0.22385">
        <ele>7.35</ele>
        <time>2019-08-21T09:06:48Z</time>
      </trkpt>
      <trkpt lat="49.27979" lon="-0.2238">
        <ele>7.35</ele>
        <time>2019-08-21T09:06:49Z</time>
      </trkpt>
      <trkpt lat="49.27941" lon="-0.22341">
        <ele>7.83</ele>
        <time>2019-08-21T09:07:01Z</time>
      </trkpt>
      <trkpt lat="49.27929" lon="-0.22357">
        <ele>7.35</ele>
        <time>2019-08-21T09:07:08Z</time>
      </trkpt>
      <trkpt lat="49.27925" lon="-0.22354">
        <ele>6.39</ele>
        <time>2019-08-21T09:07:16Z</time>
      </trkpt>
      <trkpt lat="49.27934" lon="-0.2235">
        <ele>7.83</ele>
        <time>2019-08-21T09:07:23Z</time>
      </trkpt>
      <trkpt lat="49.27944" lon="-0.2234">
        <ele>8.31</ele>
        <time>2019-08-21T09:07:27Z</time>
      </trkpt>
      <trkpt lat="49.27947" lon="-0.22342">
        <ele>8.31</ele>
        <time>2019-08-21T09:07:28Z</time>
      </trkpt>
      <trkpt lat="49.2795" lon="-0.22345">
        <ele>8.31</ele>
        <time>2019-08-21T09:07:29Z</time>
      </trkpt>
      <trkpt lat="49.27954" lon="-0.22348">
        <ele>8.31</ele>
        <time>2019-08-21T09:07:30Z</time>
      </trkpt>
      <trkpt lat="49.27989" lon="-0.22386">
        <ele>7.83</ele>
        <time>2019-08-21T09:07:41Z</time>
      </trkpt>
      <trkpt lat="49.28007" lon="-0.22408">
        <ele>8.79</ele>
        <time>2019-08-21T09:07:47Z</time>
      </trkpt>
      <trkpt lat="49.28007" lon="-0.22412">
        <ele>8.79</ele>
        <time>2019-08-21T09:07:48Z</time>
      </trkpt>
      <trkpt lat="49.28007" lon="-0.22417">
        <ele>8.79</ele>
        <time>2019-08-21T09:07:49Z</time>
      </trkpt>
      <trkpt lat="49.28006" lon="-0.22422">
        <ele>8.31</ele>
        <time>2019-08-21T09:07:50Z</time>
      </trkpt>
      <trkpt lat="49.28005" lon="-0.22427">
        <ele>8.31</ele>
        <time>2019-08-21T09:07:51Z</time>
      </trkpt>
      <trkpt lat="49.28005" lon="-0.22432">
        <ele>8.31</ele>
        <time>2019-08-21T09:07:52Z</time>
      </trkpt>
      <trkpt lat="49.28006" lon="-0.22437">
        <ele>8.31</ele>
        <time>2019-08-21T09:07:53Z</time>
      </trkpt>
      <trkpt lat="49.28007" lon="-0.22441">
        <ele>8.31</ele>
        <time>2019-08-21T09:07:54Z</time>
      </trkpt>
      <trkpt lat="49.28009" lon="-0.22445">
        <ele>8.31</ele>
        <time>2019-08-21T09:07:55Z</time>
      </trkpt>
      <trkpt lat="49.28011" lon="-0.22448">
        <ele>8.31</ele>
        <time>2019-08-21T09:07:56Z</time>
      </trkpt>
      <trkpt lat="49.28013" lon="-0.22452">
        <ele>8.31</ele>
        <time>2019-08-21T09:07:57Z</time>
      </trkpt>
      <trkpt lat="49.2802" lon="-0.2246">
        <ele>8.31</ele>
        <time>2019-08-21T09:08:01Z</time>
      </trkpt>
      <trkpt lat="49.2802" lon="-0.22465">
        <ele>7.83</ele>
        <time>2019-08-21T09:08:05Z</time>
      </trkpt>
      <trkpt lat="49.28019" lon="-0.22476">
        <ele>7.35</ele>
        <time>2019-08-21T09:08:16Z</time>
      </trkpt>
      <trkpt lat="49.28018" lon="-0.22477">
        <ele>7.35</ele>
        <time>2019-08-21T09:08:18Z</time>
      </trkpt>
      <trkpt lat="49.28012" lon="-0.22486">
        <ele>6.39</ele>
        <time>2019-08-21T09:08:34Z</time>
      </trkpt>
      <trkpt lat="49.28017" lon="-0.22483">
        <ele>5.91</ele>
        <time>2019-08-21T09:08:54Z</time>
      </trkpt>
      <trkpt lat="49.28023" lon="-0.22492">
        <ele>5.42</ele>
        <time>2019-08-21T09:09:08Z</time>
      </trkpt>
      <trkpt lat="49.28022" lon="-0.22498">
        <ele>4.94</ele>
        <time>2019-08-21T09:09:20Z</time>
      </trkpt>
      <trkpt lat="49.28033" lon="-0.2248">
        <ele>5.42</ele>
        <time>2019-08-21T09:09:37Z</time>
      </trkpt>
      <trkpt lat="49.28044" lon="-0.22478">
        <ele>5.42</ele>
        <time>2019-08-21T09:09:51Z</time>
      </trkpt>
      <trkpt lat="49.28046" lon="-0.22477">
        <ele>5.42</ele>
        <time>2019-08-21T09:09:56Z</time>
      </trkpt>
      <trkpt lat="49.28048" lon="-0.22477">
        <ele>5.42</ele>
        <time>2019-08-21T09:09:57Z</time>
      </trkpt>
      <trkpt lat="49.28051" lon="-0.22476">
        <ele>5.42</ele>
        <time>2019-08-21T09:09:58Z</time>
      </trkpt>
      <trkpt lat="49.28054" lon="-0.22475">
        <ele>5.42</ele>
        <time>2019-08-21T09:09:59Z</time>
      </trkpt>
      <trkpt lat="49.28057" lon="-0.22471">
        <ele>5.42</ele>
        <time>2019-08-21T09:10:00Z</time>
      </trkpt>
      <trkpt lat="49.28061" lon="-0.22466">
        <ele>5.42</ele>
        <time>2019-08-21T09:10:01Z</time>
      </trkpt>
      <trkpt lat="49.28064" lon="-0.2246">
        <ele>5.42</ele>
        <time>2019-08-21T09:10:02Z</time>
      </trkpt>
      <trkpt lat="49.28067" lon="-0.22453">
        <ele>5.42</ele>
        <time>2019-08-21T09:10:03Z</time>
      </trkpt>
      <trkpt lat="49.28129" lon="-0.22343">
        <ele>4.46</ele>
        <time>2019-08-21T09:10:19Z</time>
      </trkpt>
      <trkpt lat="49.28168" lon="-0.22267">
        <ele>3.98</ele>
        <time>2019-08-21T09:10:30Z</time>
      </trkpt>
      <trkpt lat="49.2817" lon="-0.22259">
        <ele>4.46</ele>
        <time>2019-08-21T09:10:31Z</time>
      </trkpt>
      <trkpt lat="49.28172" lon="-0.22244">
        <ele>4.94</ele>
        <time>2019-08-21T09:10:33Z</time>
      </trkpt>
      <trkpt lat="49.28172" lon="-0.22238">
        <ele>4.94</ele>
        <time>2019-08-21T09:10:34Z</time>
      </trkpt>
      <trkpt lat="49.28172" lon="-0.22231">
        <ele>4.94</ele>
        <time>2019-08-21T09:10:35Z</time>
      </trkpt>
      <trkpt lat="49.28161" lon="-0.22128">
        <ele>6.39</ele>
        <time>2019-08-21T09:10:48Z</time>
      </trkpt>
      <trkpt lat="49.28161" lon="-0.2212">
        <ele>6.39</ele>
        <time>2019-08-21T09:10:49Z</time>
      </trkpt>
      <trkpt lat="49.28179" lon="-0.22006">
        <ele>5.91</ele>
        <time>2019-08-21T09:11:02Z</time>
      </trkpt>
      <trkpt lat="49.28181" lon="-0.21995">
        <ele>5.91</ele>
        <time>2019-08-21T09:11:04Z</time>
      </trkpt>
      <trkpt lat="49.28183" lon="-0.21991">
        <ele>5.91</ele>
        <time>2019-08-21T09:11:05Z</time>
      </trkpt>
      <trkpt lat="49.28186" lon="-0.2199">
        <ele>5.91</ele>
        <time>2019-08-21T09:11:06Z</time>
      </trkpt>
      <trkpt lat="49.28189" lon="-0.21988">
        <ele>5.91</ele>
        <time>2019-08-21T09:11:07Z</time>
      </trkpt>
      <trkpt lat="49.28193" lon="-0.21985">
        <ele>5.42</ele>
        <time>2019-08-21T09:11:08Z</time>
      </trkpt>
      <trkpt lat="49.28196" lon="-0.21982">
        <ele>5.42</ele>
        <time>2019-08-21T09:11:09Z</time>
      </trkpt>
      <trkpt lat="49.28199" lon="-0.21978">
        <ele>5.42</ele>
        <time>2019-08-21T09:11:10Z</time>
      </trkpt>
      <trkpt lat="49.28203" lon="-0.21974">
        <ele>5.42</ele>
        <time>2019-08-21T09:11:11Z</time>
      </trkpt>
      <trkpt lat="49.28258" lon="-0.21951">
        <ele>5.42</ele>
        <time>2019-08-21T09:11:22Z</time>
      </trkpt>
      <trkpt lat="49.28263" lon="-0.21952">
        <ele>5.42</ele>
        <time>2019-08-21T09:11:23Z</time>
      </trkpt>
      <trkpt lat="49.28268" lon="-0.21954">
        <ele>5.42</ele>
        <time>2019-08-21T09:11:24Z</time>
      </trkpt>
      <trkpt lat="49.28272" lon="-0.21958">
        <ele>5.42</ele>
        <time>2019-08-21T09:11:25Z</time>
      </trkpt>
      <trkpt lat="49.28276" lon="-0.21962">
        <ele>5.91</ele>
        <time>2019-08-21T09:11:26Z</time>
      </trkpt>
      <trkpt lat="49.28285" lon="-0.21967">
        <ele>6.39</ele>
        <time>2019-08-21T09:11:28Z</time>
      </trkpt>
      <trkpt lat="49.2829" lon="-0.21968">
        <ele>6.87</ele>
        <time>2019-08-21T09:11:29Z</time>
      </trkpt>
      <trkpt lat="49.28294" lon="-0.21967">
        <ele>7.35</ele>
        <time>2019-08-21T09:11:30Z</time>
      </trkpt>
      <trkpt lat="49.28298" lon="-0.21964">
        <ele>7.35</ele>
        <time>2019-08-21T09:11:31Z</time>
      </trkpt>
      <trkpt lat="49.28301" lon="-0.2196">
        <ele>7.83</ele>
        <time>2019-08-21T09:11:32Z</time>
      </trkpt>
      <trkpt lat="49.28303" lon="-0.21955">
        <ele>8.31</ele>
        <time>2019-08-21T09:11:33Z</time>
      </trkpt>
      <trkpt lat="49.28306" lon="-0.21949">
        <ele>8.79</ele>
        <time>2019-08-21T09:11:34Z</time>
      </trkpt>
      <trkpt lat="49.28313" lon="-0.21933">
        <ele>10.23</ele>
        <time>2019-08-21T09:11:37Z</time>
      </trkpt>
      <trkpt lat="49.28316" lon="-0.21928">
        <ele>10.23</ele>
        <time>2019-08-21T09:11:38Z</time>
      </trkpt>
      <trkpt lat="49.2832" lon="-0.21924">
        <ele>10.23</ele>
        <time>2019-08-21T09:11:39Z</time>
      </trkpt>
      <trkpt lat="49.28324" lon="-0.21921">
        <ele>10.23</ele>
        <time>2019-08-21T09:11:40Z</time>
      </trkpt>
      <trkpt lat="49.28328" lon="-0.21919">
        <ele>10.23</ele>
        <time>2019-08-21T09:11:41Z</time>
      </trkpt>
      <trkpt lat="49.28333" lon="-0.21916">
        <ele>9.75</ele>
        <time>2019-08-21T09:11:42Z</time>
      </trkpt>
      <trkpt lat="49.28338" lon="-0.21912">
        <ele>9.75</ele>
        <time>2019-08-21T09:11:43Z</time>
      </trkpt>
      <trkpt lat="49.28348" lon="-0.21902">
        <ele>9.75</ele>
        <time>2019-08-21T09:11:45Z</time>
      </trkpt>
      <trkpt lat="49.28369" lon="-0.21875">
        <ele>8.79</ele>
        <time>2019-08-21T09:11:49Z</time>
      </trkpt>
      <trkpt lat="49.28373" lon="-0.21867">
        <ele>8.31</ele>
        <time>2019-08-21T09:11:50Z</time>
      </trkpt>
      <trkpt lat="49.28375" lon="-0.21858">
        <ele>8.31</ele>
        <time>2019-08-21T09:11:51Z</time>
      </trkpt>
      <trkpt lat="49.28375" lon="-0.21849">
        <ele>8.31</ele>
        <time>2019-08-21T09:11:52Z</time>
      </trkpt>
      <trkpt lat="49.28374" lon="-0.2184">
        <ele>8.31</ele>
        <time>2019-08-21T09:11:53Z</time>
      </trkpt>
      <trkpt lat="49.28373" lon="-0.21832">
        <ele>8.31</ele>
        <time>2019-08-21T09:11:54Z</time>
      </trkpt>
      <trkpt lat="49.28373" lon="-0.21823">
        <ele>7.83</ele>
        <time>2019-08-21T09:11:55Z</time>
      </trkpt>
      <trkpt lat="49.28374" lon="-0.21815">
        <ele>7.83</ele>
        <time>2019-08-21T09:11:56Z</time>
      </trkpt>
      <trkpt lat="49.28377" lon="-0.21807">
        <ele>7.83</ele>
        <time>2019-08-21T09:11:57Z</time>
      </trkpt>
      <trkpt lat="49.28379" lon="-0.21799">
        <ele>7.83</ele>
        <time>2019-08-21T09:11:58Z</time>
      </trkpt>
      <trkpt lat="49.28383" lon="-0.21791">
        <ele>7.83</ele>
        <time>2019-08-21T09:11:59Z</time>
      </trkpt>
      <trkpt lat="49.28386" lon="-0.21784">
        <ele>7.35</ele>
        <time>2019-08-21T09:12:00Z</time>
      </trkpt>
      <trkpt lat="49.28392" lon="-0.2177">
        <ele>7.35</ele>
        <time>2019-08-21T09:12:02Z</time>
      </trkpt>
      <trkpt lat="49.28395" lon="-0.21764">
        <ele>7.35</ele>
        <time>2019-08-21T09:12:03Z</time>
      </trkpt>
      <trkpt lat="49.28395" lon="-0.21757">
        <ele>7.83</ele>
        <time>2019-08-21T09:12:04Z</time>
      </trkpt>
      <trkpt lat="49.28395" lon="-0.21749">
        <ele>7.83</ele>
        <time>2019-08-21T09:12:05Z</time>
      </trkpt>
      <trkpt lat="49.28395" lon="-0.21743">
        <ele>7.83</ele>
        <time>2019-08-21T09:12:06Z</time>
      </trkpt>
      <trkpt lat="49.28394" lon="-0.21736">
        <ele>7.83</ele>
        <time>2019-08-21T09:12:07Z</time>
      </trkpt>
      <trkpt lat="49.28394" lon="-0.21728">
        <ele>7.83</ele>
        <time>2019-08-21T09:12:08Z</time>
      </trkpt>
      <trkpt lat="49.28394" lon="-0.21721">
        <ele>7.83</ele>
        <time>2019-08-21T09:12:09Z</time>
      </trkpt>
      <trkpt lat="49.28395" lon="-0.21713">
        <ele>7.35</ele>
        <time>2019-08-21T09:12:10Z</time>
      </trkpt>
      <trkpt lat="49.28396" lon="-0.21704">
        <ele>7.35</ele>
        <time>2019-08-21T09:12:11Z</time>
      </trkpt>
      <trkpt lat="49.28396" lon="-0.21696">
        <ele>6.87</ele>
        <time>2019-08-21T09:12:12Z</time>
      </trkpt>
      <trkpt lat="49.28396" lon="-0.21687">
        <ele>6.87</ele>
        <time>2019-08-21T09:12:13Z</time>
      </trkpt>
      <trkpt lat="49.28395" lon="-0.21679">
        <ele>6.87</ele>
        <time>2019-08-21T09:12:14Z</time>
      </trkpt>
      <trkpt lat="49.28393" lon="-0.21671">
        <ele>6.87</ele>
        <time>2019-08-21T09:12:15Z</time>
      </trkpt>
      <trkpt lat="49.28392" lon="-0.21664">
        <ele>7.35</ele>
        <time>2019-08-21T09:12:16Z</time>
      </trkpt>
      <trkpt lat="49.28391" lon="-0.21657">
        <ele>7.35</ele>
        <time>2019-08-21T09:12:17Z</time>
      </trkpt>
      <trkpt lat="49.28391" lon="-0.2165">
        <ele>7.83</ele>
        <time>2019-08-21T09:12:18Z</time>
      </trkpt>
      <trkpt lat="49.28392" lon="-0.21642">
        <ele>7.83</ele>
        <time>2019-08-21T09:12:19Z</time>
      </trkpt>
      <trkpt lat="49.28393" lon="-0.21635">
        <ele>7.83</ele>
        <time>2019-08-21T09:12:20Z</time>
      </trkpt>
      <trkpt lat="49.28394" lon="-0.21627">
        <ele>7.83</ele>
        <time>2019-08-21T09:12:21Z</time>
      </trkpt>
      <trkpt lat="49.28396" lon="-0.21619">
        <ele>7.83</ele>
        <time>2019-08-21T09:12:22Z</time>
      </trkpt>
      <trkpt lat="49.28408" lon="-0.2158">
        <ele>7.83</ele>
        <time>2019-08-21T09:12:27Z</time>
      </trkpt>
      <trkpt lat="49.28409" lon="-0.21571">
        <ele>7.83</ele>
        <time>2019-08-21T09:12:28Z</time>
      </trkpt>
      <trkpt lat="49.28409" lon="-0.21562">
        <ele>7.83</ele>
        <time>2019-08-21T09:12:29Z</time>
      </trkpt>
      <trkpt lat="49.28409" lon="-0.21554">
        <ele>7.83</ele>
        <time>2019-08-21T09:12:30Z</time>
      </trkpt>
      <trkpt lat="49.2841" lon="-0.21545">
        <ele>7.83</ele>
        <time>2019-08-21T09:12:31Z</time>
      </trkpt>
      <trkpt lat="49.28412" lon="-0.21537">
        <ele>7.35</ele>
        <time>2019-08-21T09:12:32Z</time>
      </trkpt>
      <trkpt lat="49.28417" lon="-0.21495">
        <ele>6.87</ele>
        <time>2019-08-21T09:12:37Z</time>
      </trkpt>
      <trkpt lat="49.28442" lon="-0.21371">
        <ele>5.91</ele>
        <time>2019-08-21T09:12:52Z</time>
      </trkpt>
      <trkpt lat="49.28442" lon="-0.21363">
        <ele>5.91</ele>
        <time>2019-08-21T09:12:53Z</time>
      </trkpt>
      <trkpt lat="49.28442" lon="-0.21355">
        <ele>5.91</ele>
        <time>2019-08-21T09:12:54Z</time>
      </trkpt>
      <trkpt lat="49.28441" lon="-0.21347">
        <ele>5.91</ele>
        <time>2019-08-21T09:12:55Z</time>
      </trkpt>
      <trkpt lat="49.28442" lon="-0.21339">
        <ele>5.91</ele>
        <time>2019-08-21T09:12:56Z</time>
      </trkpt>
      <trkpt lat="49.28443" lon="-0.21332">
        <ele>5.91</ele>
        <time>2019-08-21T09:12:57Z</time>
      </trkpt>
      <trkpt lat="49.28446" lon="-0.21325">
        <ele>5.91</ele>
        <time>2019-08-21T09:12:58Z</time>
      </trkpt>
      <trkpt lat="49.28457" lon="-0.21287">
        <ele>5.91</ele>
        <time>2019-08-21T09:13:03Z</time>
      </trkpt>
      <trkpt lat="49.28458" lon="-0.21279">
        <ele>5.91</ele>
        <time>2019-08-21T09:13:04Z</time>
      </trkpt>
      <trkpt lat="49.28457" lon="-0.21271">
        <ele>5.91</ele>
        <time>2019-08-21T09:13:05Z</time>
      </trkpt>
      <trkpt lat="49.28457" lon="-0.21264">
        <ele>5.91</ele>
        <time>2019-08-21T09:13:06Z</time>
      </trkpt>
      <trkpt lat="49.28456" lon="-0.21256">
        <ele>5.91</ele>
        <time>2019-08-21T09:13:07Z</time>
      </trkpt>
      <trkpt lat="49.28456" lon="-0.21248">
        <ele>5.91</ele>
        <time>2019-08-21T09:13:08Z</time>
      </trkpt>
      <trkpt lat="49.28456" lon="-0.2124">
        <ele>5.91</ele>
        <time>2019-08-21T09:13:09Z</time>
      </trkpt>
      <trkpt lat="49.28457" lon="-0.21232">
        <ele>5.91</ele>
        <time>2019-08-21T09:13:10Z</time>
      </trkpt>
      <trkpt lat="49.28459" lon="-0.21223">
        <ele>5.42</ele>
        <time>2019-08-21T09:13:11Z</time>
      </trkpt>
      <trkpt lat="49.2846" lon="-0.21216">
        <ele>5.42</ele>
        <time>2019-08-21T09:13:12Z</time>
      </trkpt>
      <trkpt lat="49.28462" lon="-0.21209">
        <ele>5.42</ele>
        <time>2019-08-21T09:13:13Z</time>
      </trkpt>
      <trkpt lat="49.28464" lon="-0.21202">
        <ele>5.42</ele>
        <time>2019-08-21T09:13:14Z</time>
      </trkpt>
      <trkpt lat="49.28469" lon="-0.21151">
        <ele>5.42</ele>
        <time>2019-08-21T09:13:23Z</time>
      </trkpt>
      <trkpt lat="49.28468" lon="-0.21148">
        <ele>5.42</ele>
        <time>2019-08-21T09:13:24Z</time>
      </trkpt>
      <trkpt lat="49.28467" lon="-0.21143">
        <ele>5.42</ele>
        <time>2019-08-21T09:13:25Z</time>
      </trkpt>
      <trkpt lat="49.28465" lon="-0.21138">
        <ele>5.42</ele>
        <time>2019-08-21T09:13:26Z</time>
      </trkpt>
      <trkpt lat="49.28464" lon="-0.21133">
        <ele>5.42</ele>
        <time>2019-08-21T09:13:27Z</time>
      </trkpt>
      <trkpt lat="49.28465" lon="-0.21126">
        <ele>5.91</ele>
        <time>2019-08-21T09:13:28Z</time>
      </trkpt>
      <trkpt lat="49.28467" lon="-0.21119">
        <ele>5.91</ele>
        <time>2019-08-21T09:13:29Z</time>
      </trkpt>
      <trkpt lat="49.28468" lon="-0.21112">
        <ele>5.91</ele>
        <time>2019-08-21T09:13:30Z</time>
      </trkpt>
      <trkpt lat="49.28469" lon="-0.21105">
        <ele>6.39</ele>
        <time>2019-08-21T09:13:31Z</time>
      </trkpt>
      <trkpt lat="49.28471" lon="-0.21097">
        <ele>6.39</ele>
        <time>2019-08-21T09:13:32Z</time>
      </trkpt>
      <trkpt lat="49.28472" lon="-0.21088">
        <ele>6.39</ele>
        <time>2019-08-21T09:13:33Z</time>
      </trkpt>
      <trkpt lat="49.28473" lon="-0.21079">
        <ele>6.39</ele>
        <time>2019-08-21T09:13:34Z</time>
      </trkpt>
      <trkpt lat="49.28478" lon="-0.21027">
        <ele>6.87</ele>
        <time>2019-08-21T09:13:40Z</time>
      </trkpt>
      <trkpt lat="49.28479" lon="-0.21019">
        <ele>6.87</ele>
        <time>2019-08-21T09:13:41Z</time>
      </trkpt>
      <trkpt lat="49.28483" lon="-0.20984">
        <ele>6.39</ele>
        <time>2019-08-21T09:13:45Z</time>
      </trkpt>
      <trkpt lat="49.28493" lon="-0.20862">
        <ele>6.39</ele>
        <time>2019-08-21T09:13:59Z</time>
      </trkpt>
      <trkpt lat="49.28494" lon="-0.20855">
        <ele>6.39</ele>
        <time>2019-08-21T09:14:00Z</time>
      </trkpt>
      <trkpt lat="49.28494" lon="-0.20848">
        <ele>6.87</ele>
        <time>2019-08-21T09:14:01Z</time>
      </trkpt>
      <trkpt lat="49.28496" lon="-0.20834">
        <ele>6.87</ele>
        <time>2019-08-21T09:14:03Z</time>
      </trkpt>
      <trkpt lat="49.28497" lon="-0.20828">
        <ele>6.87</ele>
        <time>2019-08-21T09:14:04Z</time>
      </trkpt>
      <trkpt lat="49.28508" lon="-0.20725">
        <ele>5.91</ele>
        <time>2019-08-21T09:14:16Z</time>
      </trkpt>
      <trkpt lat="49.28521" lon="-0.2059">
        <ele>6.87</ele>
        <time>2019-08-21T09:14:32Z</time>
      </trkpt>
      <trkpt lat="49.28524" lon="-0.20543">
        <ele>6.39</ele>
        <time>2019-08-21T09:14:42Z</time>
      </trkpt>
      <trkpt lat="49.28529" lon="-0.20512">
        <ele>6.87</ele>
        <time>2019-08-21T09:14:48Z</time>
      </trkpt>
      <trkpt lat="49.28537" lon="-0.2044">
        <ele>8.79</ele>
        <time>2019-08-21T09:14:57Z</time>
      </trkpt>
      <trkpt lat="49.28537" lon="-0.20433">
        <ele>8.79</ele>
        <time>2019-08-21T09:14:58Z</time>
      </trkpt>
      <trkpt lat="49.28537" lon="-0.20425">
        <ele>8.79</ele>
        <time>2019-08-21T09:14:59Z</time>
      </trkpt>
      <trkpt lat="49.28547" lon="-0.20341">
        <ele>10.23</ele>
        <time>2019-08-21T09:15:12Z</time>
      </trkpt>
      <trkpt lat="49.28554" lon="-0.2029">
        <ele>11.19</ele>
        <time>2019-08-21T09:15:21Z</time>
      </trkpt>
      <trkpt lat="49.28555" lon="-0.20284">
        <ele>11.19</ele>
        <time>2019-08-21T09:15:22Z</time>
      </trkpt>
      <trkpt lat="49.28555" lon="-0.20238">
        <ele>11.19</ele>
        <time>2019-08-21T09:15:32Z</time>
      </trkpt>
      <trkpt lat="49.28556" lon="-0.20238">
        <ele>10.71</ele>
        <time>2019-08-21T09:15:33Z</time>
      </trkpt>
      <trkpt lat="49.28559" lon="-0.20239">
        <ele>10.71</ele>
        <time>2019-08-21T09:15:35Z</time>
      </trkpt>
      <trkpt lat="49.2856" lon="-0.20241">
        <ele>10.23</ele>
        <time>2019-08-21T09:15:36Z</time>
      </trkpt>
      <trkpt lat="49.28566" lon="-0.20254">
        <ele>9.75</ele>
        <time>2019-08-21T09:15:40Z</time>
      </trkpt>
      <trkpt lat="49.28569" lon="-0.20256">
        <ele>9.75</ele>
        <time>2019-08-21T09:15:41Z</time>
      </trkpt>
      <trkpt lat="49.28598" lon="-0.20262">
        <ele>9.75</ele>
        <time>2019-08-21T09:15:51Z</time>
      </trkpt>
      <trkpt lat="49.28599" lon="-0.2026">
        <ele>9.75</ele>
        <time>2019-08-21T09:15:52Z</time>
      </trkpt>
      <trkpt lat="49.286" lon="-0.20256">
        <ele>9.75</ele>
        <time>2019-08-21T09:15:53Z</time>
      </trkpt>
      <trkpt lat="49.286" lon="-0.20252">
        <ele>9.75</ele>
        <time>2019-08-21T09:15:54Z</time>
      </trkpt>
      <trkpt lat="49.28601" lon="-0.20247">
        <ele>9.27</ele>
        <time>2019-08-21T09:15:55Z</time>
      </trkpt>
      <trkpt lat="49.28606" lon="-0.20187">
        <ele>8.31</ele>
        <time>2019-08-21T09:16:07Z</time>
      </trkpt>
      <trkpt lat="49.2861" lon="-0.20131">
        <ele>8.31</ele>
        <time>2019-08-21T09:16:18Z</time>
      </trkpt>
      <trkpt lat="49.28598" lon="-0.20086">
        <ele>7.83</ele>
        <time>2019-08-21T09:16:29Z</time>
      </trkpt>
      <trkpt lat="49.28594" lon="-0.20085">
        <ele>7.83</ele>
        <time>2019-08-21T09:16:30Z</time>
      </trkpt>
      <trkpt lat="49.28591" lon="-0.20085">
        <ele>7.83</ele>
        <time>2019-08-21T09:16:31Z</time>
      </trkpt>
      <trkpt lat="49.28587" lon="-0.20085">
        <ele>7.35</ele>
        <time>2019-08-21T09:16:32Z</time>
      </trkpt>
      <trkpt lat="49.28584" lon="-0.20084">
        <ele>6.87</ele>
        <time>2019-08-21T09:16:33Z</time>
      </trkpt>
      <trkpt lat="49.28574" lon="-0.2009">
        <ele>6.87</ele>
        <time>2019-08-21T09:16:37Z</time>
      </trkpt>
      <trkpt lat="49.28572" lon="-0.20089">
        <ele>6.87</ele>
        <time>2019-08-21T09:16:38Z</time>
      </trkpt>
      <trkpt lat="49.28555" lon="-0.20086">
        <ele>7.35</ele>
        <time>2019-08-21T09:16:49Z</time>
      </trkpt>
      <trkpt lat="49.28552" lon="-0.20084">
        <ele>7.35</ele>
        <time>2019-08-21T09:16:50Z</time>
      </trkpt>
      <trkpt lat="49.28547" lon="-0.20083">
        <ele>7.35</ele>
        <time>2019-08-21T09:16:51Z</time>
      </trkpt>
      <trkpt lat="49.28542" lon="-0.2008">
        <ele>7.35</ele>
        <time>2019-08-21T09:16:52Z</time>
      </trkpt>
      <trkpt lat="49.28537" lon="-0.20079">
        <ele>7.35</ele>
        <time>2019-08-21T09:16:53Z</time>
      </trkpt>
      <trkpt lat="49.28531" lon="-0.20079">
        <ele>7.83</ele>
        <time>2019-08-21T09:16:54Z</time>
      </trkpt>
      <trkpt lat="49.28483" lon="-0.20065">
        <ele>9.27</ele>
        <time>2019-08-21T09:17:02Z</time>
      </trkpt>
      <trkpt lat="49.28479" lon="-0.2006">
        <ele>9.27</ele>
        <time>2019-08-21T09:17:03Z</time>
      </trkpt>
      <trkpt lat="49.28476" lon="-0.20051">
        <ele>9.27</ele>
        <time>2019-08-21T09:17:04Z</time>
      </trkpt>
      <trkpt lat="49.28476" lon="-0.20042">
        <ele>9.27</ele>
        <time>2019-08-21T09:17:05Z</time>
      </trkpt>
      <trkpt lat="49.28477" lon="-0.20033">
        <ele>9.27</ele>
        <time>2019-08-21T09:17:06Z</time>
      </trkpt>
      <trkpt lat="49.28478" lon="-0.20024">
        <ele>9.27</ele>
        <time>2019-08-21T09:17:07Z</time>
      </trkpt>
      <trkpt lat="49.28484" lon="-0.1998">
        <ele>8.79</ele>
        <time>2019-08-21T09:17:12Z</time>
      </trkpt>
      <trkpt lat="49.28496" lon="-0.19863">
        <ele>9.75</ele>
        <time>2019-08-21T09:17:25Z</time>
      </trkpt>
      <trkpt lat="49.28498" lon="-0.19849">
        <ele>9.27</ele>
        <time>2019-08-21T09:17:27Z</time>
      </trkpt>
      <trkpt lat="49.28497" lon="-0.19844">
        <ele>9.27</ele>
        <time>2019-08-21T09:17:28Z</time>
      </trkpt>
      <trkpt lat="49.28495" lon="-0.19839">
        <ele>8.79</ele>
        <time>2019-08-21T09:17:29Z</time>
      </trkpt>
      <trkpt lat="49.28491" lon="-0.19834">
        <ele>8.79</ele>
        <time>2019-08-21T09:17:30Z</time>
      </trkpt>
      <trkpt lat="49.28487" lon="-0.19829">
        <ele>8.79</ele>
        <time>2019-08-21T09:17:31Z</time>
      </trkpt>
      <trkpt lat="49.28483" lon="-0.19824">
        <ele>8.79</ele>
        <time>2019-08-21T09:17:32Z</time>
      </trkpt>
      <trkpt lat="49.28478" lon="-0.1982">
        <ele>9.27</ele>
        <time>2019-08-21T09:17:33Z</time>
      </trkpt>
      <trkpt lat="49.28409" lon="-0.19754">
        <ele>12.63</ele>
        <time>2019-08-21T09:17:47Z</time>
      </trkpt>
      <trkpt lat="49.28379" lon="-0.19728">
        <ele>13.12</ele>
        <time>2019-08-21T09:17:53Z</time>
      </trkpt>
      <trkpt lat="49.28374" lon="-0.19723">
        <ele>13.6</ele>
        <time>2019-08-21T09:17:54Z</time>
      </trkpt>
      <trkpt lat="49.28295" lon="-0.19645">
        <ele>17.44</ele>
        <time>2019-08-21T09:18:10Z</time>
      </trkpt>
      <trkpt lat="49.28285" lon="-0.19636">
        <ele>17.44</ele>
        <time>2019-08-21T09:18:12Z</time>
      </trkpt>
      <trkpt lat="49.28251" lon="-0.19601">
        <ele>16.96</ele>
        <time>2019-08-21T09:18:19Z</time>
      </trkpt>
      <trkpt lat="49.28246" lon="-0.19596">
        <ele>16.48</ele>
        <time>2019-08-21T09:18:20Z</time>
      </trkpt>
      <trkpt lat="49.28242" lon="-0.19592">
        <ele>16.48</ele>
        <time>2019-08-21T09:18:21Z</time>
      </trkpt>
      <trkpt lat="49.28232" lon="-0.19576">
        <ele>14.56</ele>
        <time>2019-08-21T09:18:25Z</time>
      </trkpt>
      <trkpt lat="49.28234" lon="-0.19573">
        <ele>14.08</ele>
        <time>2019-08-21T09:18:26Z</time>
      </trkpt>
      <trkpt lat="49.28238" lon="-0.19563">
        <ele>13.6</ele>
        <time>2019-08-21T09:18:28Z</time>
      </trkpt>
      <trkpt lat="49.28244" lon="-0.19552">
        <ele>13.6</ele>
        <time>2019-08-21T09:18:30Z</time>
      </trkpt>
      <trkpt lat="49.28249" lon="-0.19538">
        <ele>13.6</ele>
        <time>2019-08-21T09:18:32Z</time>
      </trkpt>
      <trkpt lat="49.28252" lon="-0.19531">
        <ele>13.6</ele>
        <time>2019-08-21T09:18:33Z</time>
      </trkpt>
      <trkpt lat="49.28276" lon="-0.19477">
        <ele>13.12</ele>
        <time>2019-08-21T09:18:40Z</time>
      </trkpt>
      <trkpt lat="49.28291" lon="-0.1944">
        <ele>13.12</ele>
        <time>2019-08-21T09:18:45Z</time>
      </trkpt>
      <trkpt lat="49.28294" lon="-0.19433">
        <ele>13.12</ele>
        <time>2019-08-21T09:18:46Z</time>
      </trkpt>
      <trkpt lat="49.28315" lon="-0.19379">
        <ele>12.63</ele>
        <time>2019-08-21T09:18:53Z</time>
      </trkpt>
      <trkpt lat="49.28319" lon="-0.19372">
        <ele>12.63</ele>
        <time>2019-08-21T09:18:54Z</time>
      </trkpt>
      <trkpt lat="49.28323" lon="-0.19367">
        <ele>12.63</ele>
        <time>2019-08-21T09:18:55Z</time>
      </trkpt>
      <trkpt lat="49.28326" lon="-0.19362">
        <ele>12.63</ele>
        <time>2019-08-21T09:18:56Z</time>
      </trkpt>
      <trkpt lat="49.28329" lon="-0.19356">
        <ele>12.63</ele>
        <time>2019-08-21T09:18:57Z</time>
      </trkpt>
      <trkpt lat="49.28329" lon="-0.1935">
        <ele>12.15</ele>
        <time>2019-08-21T09:18:58Z</time>
      </trkpt>
      <trkpt lat="49.28328" lon="-0.19344">
        <ele>11.67</ele>
        <time>2019-08-21T09:18:59Z</time>
      </trkpt>
      <trkpt lat="49.28326" lon="-0.19341">
        <ele>11.19</ele>
        <time>2019-08-21T09:19:00Z</time>
      </trkpt>
      <trkpt lat="49.28325" lon="-0.19339">
        <ele>10.71</ele>
        <time>2019-08-21T09:19:01Z</time>
      </trkpt>
      <trkpt lat="49.2832" lon="-0.19334">
        <ele>10.23</ele>
        <time>2019-08-21T09:19:03Z</time>
      </trkpt>
      <trkpt lat="49.28316" lon="-0.1933">
        <ele>9.75</ele>
        <time>2019-08-21T09:19:04Z</time>
      </trkpt>
      <trkpt lat="49.28271" lon="-0.19297">
        <ele>7.35</ele>
        <time>2019-08-21T09:19:13Z</time>
      </trkpt>
      <trkpt lat="49.28262" lon="-0.19291">
        <ele>6.87</ele>
        <time>2019-08-21T09:19:15Z</time>
      </trkpt>
      <trkpt lat="49.28252" lon="-0.19283">
        <ele>6.87</ele>
        <time>2019-08-21T09:19:22Z</time>
      </trkpt>
      <trkpt lat="49.28249" lon="-0.19275">
        <ele>7.83</ele>
        <time>2019-08-21T09:19:42Z</time>
      </trkpt>
      <trkpt lat="49.28249" lon="-0.19272">
        <ele>6.87</ele>
        <time>2019-08-21T09:19:43Z</time>
      </trkpt>
      <trkpt lat="49.28251" lon="-0.19267">
        <ele>6.39</ele>
        <time>2019-08-21T09:19:44Z</time>
      </trkpt>
      <trkpt lat="49.28255" lon="-0.19254">
        <ele>6.39</ele>
        <time>2019-08-21T09:19:46Z</time>
      </trkpt>
      <trkpt lat="49.28257" lon="-0.19247">
        <ele>6.39</ele>
        <time>2019-08-21T09:19:47Z</time>
      </trkpt>
      <trkpt lat="49.28259" lon="-0.1924">
        <ele>6.39</ele>
        <time>2019-08-21T09:19:48Z</time>
      </trkpt>
      <trkpt lat="49.28262" lon="-0.19234">
        <ele>6.39</ele>
        <time>2019-08-21T09:19:49Z</time>
      </trkpt>
      <trkpt lat="49.28264" lon="-0.19227">
        <ele>6.39</ele>
        <time>2019-08-21T09:19:50Z</time>
      </trkpt>
      <trkpt lat="49.28294" lon="-0.19135">
        <ele>7.83</ele>
        <time>2019-08-21T09:20:01Z</time>
      </trkpt>
      <trkpt lat="49.2832" lon="-0.19029">
        <ele>8.31</ele>
        <time>2019-08-21T09:20:14Z</time>
      </trkpt>
      <trkpt lat="49.28342" lon="-0.18895">
        <ele>8.31</ele>
        <time>2019-08-21T09:20:29Z</time>
      </trkpt>
      <trkpt lat="49.28344" lon="-0.18887">
        <ele>7.83</ele>
        <time>2019-08-21T09:20:30Z</time>
      </trkpt>
      <trkpt lat="49.28351" lon="-0.18852">
        <ele>6.87</ele>
        <time>2019-08-21T09:20:34Z</time>
      </trkpt>
      <trkpt lat="49.28363" lon="-0.18812">
        <ele>5.42</ele>
        <time>2019-08-21T09:20:39Z</time>
      </trkpt>
      <trkpt lat="49.28372" lon="-0.18778">
        <ele>4.46</ele>
        <time>2019-08-21T09:20:43Z</time>
      </trkpt>
      <trkpt lat="49.28376" lon="-0.18761">
        <ele>3.98</ele>
        <time>2019-08-21T09:20:45Z</time>
      </trkpt>
      <trkpt lat="49.28381" lon="-0.18745">
        <ele>3.5</ele>
        <time>2019-08-21T09:20:47Z</time>
      </trkpt>
      <trkpt lat="49.2839" lon="-0.18722">
        <ele>3.5</ele>
        <time>2019-08-21T09:20:50Z</time>
      </trkpt>
      <trkpt lat="49.28392" lon="-0.18714">
        <ele>3.5</ele>
        <time>2019-08-21T09:20:51Z</time>
      </trkpt>
      <trkpt lat="49.28395" lon="-0.18706">
        <ele>3.5</ele>
        <time>2019-08-21T09:20:52Z</time>
      </trkpt>
      <trkpt lat="49.28415" lon="-0.18648">
        <ele>3.5</ele>
        <time>2019-08-21T09:20:59Z</time>
      </trkpt>
      <trkpt lat="49.28418" lon="-0.18639">
        <ele>3.98</ele>
        <time>2019-08-21T09:21:00Z</time>
      </trkpt>
      <trkpt lat="49.28421" lon="-0.18631">
        <ele>3.98</ele>
        <time>2019-08-21T09:21:01Z</time>
      </trkpt>
      <trkpt lat="49.28456" lon="-0.18526">
        <ele>3.5</ele>
        <time>2019-08-21T09:21:14Z</time>
      </trkpt>
      <trkpt lat="49.28474" lon="-0.18391">
        <ele>0.62</ele>
        <time>2019-08-21T09:21:29Z</time>
      </trkpt>
      <trkpt lat="49.28468" lon="-0.18251">
        <ele>1.1</ele>
        <time>2019-08-21T09:21:44Z</time>
      </trkpt>
      <trkpt lat="49.28468" lon="-0.18242">
        <ele>0.62</ele>
        <time>2019-08-21T09:21:45Z</time>
      </trkpt>
      <trkpt lat="49.28467" lon="-0.18233">
        <ele>0.62</ele>
        <time>2019-08-21T09:21:46Z</time>
      </trkpt>
      <trkpt lat="49.28457" lon="-0.1809">
        <ele>0.62</ele>
        <time>2019-08-21T09:22:01Z</time>
      </trkpt>
      <trkpt lat="49.28453" lon="-0.17917">
        <ele>-1.3</ele>
        <time>2019-08-21T09:22:19Z</time>
      </trkpt>
      <trkpt lat="49.28454" lon="-0.17908">
        <ele>-1.3</ele>
        <time>2019-08-21T09:22:20Z</time>
      </trkpt>
      <trkpt lat="49.28456" lon="-0.17899">
        <ele>-1.3</ele>
        <time>2019-08-21T09:22:21Z</time>
      </trkpt>
      <trkpt lat="49.2846" lon="-0.17872">
        <ele>-1.3</ele>
        <time>2019-08-21T09:22:24Z</time>
      </trkpt>
      <trkpt lat="49.28461" lon="-0.17863">
        <ele>-1.3</ele>
        <time>2019-08-21T09:22:25Z</time>
      </trkpt>
      <trkpt lat="49.28466" lon="-0.17805">
        <ele>-1.79</ele>
        <time>2019-08-21T09:22:34Z</time>
      </trkpt>
      <trkpt lat="49.2847" lon="-0.1779">
        <ele>-2.27</ele>
        <time>2019-08-21T09:22:37Z</time>
      </trkpt>
      <trkpt lat="49.28473" lon="-0.17785">
        <ele>-2.27</ele>
        <time>2019-08-21T09:22:38Z</time>
      </trkpt>
      <trkpt lat="49.28475" lon="-0.17777">
        <ele>-2.27</ele>
        <time>2019-08-21T09:22:39Z</time>
      </trkpt>
      <trkpt lat="49.28492" lon="-0.17644">
        <ele>1.58</ele>
        <time>2019-08-21T09:22:54Z</time>
      </trkpt>
      <trkpt lat="49.28479" lon="-0.17488">
        <ele>2.54</ele>
        <time>2019-08-21T09:23:11Z</time>
      </trkpt>
      <trkpt lat="49.28474" lon="-0.17446">
        <ele>3.02</ele>
        <time>2019-08-21T09:23:16Z</time>
      </trkpt>
      <trkpt lat="49.28468" lon="-0.17404">
        <ele>3.02</ele>
        <time>2019-08-21T09:23:23Z</time>
      </trkpt>
      <trkpt lat="49.28467" lon="-0.17395">
        <ele>2.54</ele>
        <time>2019-08-21T09:23:24Z</time>
      </trkpt>
      <trkpt lat="49.28446" lon="-0.17215">
        <ele>3.02</ele>
        <time>2019-08-21T09:23:43Z</time>
      </trkpt>
      <trkpt lat="49.28429" lon="-0.17058">
        <ele>4.94</ele>
        <time>2019-08-21T09:24:00Z</time>
      </trkpt>
      <trkpt lat="49.28427" lon="-0.17032">
        <ele>5.91</ele>
        <time>2019-08-21T09:24:03Z</time>
      </trkpt>
      <trkpt lat="49.28427" lon="-0.17023">
        <ele>5.91</ele>
        <time>2019-08-21T09:24:04Z</time>
      </trkpt>
      <trkpt lat="49.28427" lon="-0.17015">
        <ele>5.91</ele>
        <time>2019-08-21T09:24:05Z</time>
      </trkpt>
      <trkpt lat="49.28427" lon="-0.17006">
        <ele>6.39</ele>
        <time>2019-08-21T09:24:06Z</time>
      </trkpt>
      <trkpt lat="49.28427" lon="-0.16996">
        <ele>6.39</ele>
        <time>2019-08-21T09:24:07Z</time>
      </trkpt>
      <trkpt lat="49.28442" lon="-0.16831">
        <ele>5.42</ele>
        <time>2019-08-21T09:24:24Z</time>
      </trkpt>
      <trkpt lat="49.28444" lon="-0.16656">
        <ele>5.91</ele>
        <time>2019-08-21T09:24:42Z</time>
      </trkpt>
      <trkpt lat="49.28442" lon="-0.16543">
        <ele>6.87</ele>
        <time>2019-08-21T09:24:53Z</time>
      </trkpt>
      <trkpt lat="49.28443" lon="-0.16533">
        <ele>6.87</ele>
        <time>2019-08-21T09:24:54Z</time>
      </trkpt>
      <trkpt lat="49.28454" lon="-0.16381">
        <ele>5.91</ele>
        <time>2019-08-21T09:25:09Z</time>
      </trkpt>
      <trkpt lat="49.28472" lon="-0.16238">
        <ele>4.46</ele>
        <time>2019-08-21T09:25:23Z</time>
      </trkpt>
      <trkpt lat="49.28466" lon="-0.16107">
        <ele>3.5</ele>
        <time>2019-08-21T09:25:36Z</time>
      </trkpt>
      <trkpt lat="49.2846" lon="-0.1598">
        <ele>4.46</ele>
        <time>2019-08-21T09:25:50Z</time>
      </trkpt>
      <trkpt lat="49.28457" lon="-0.15924">
        <ele>3.02</ele>
        <time>2019-08-21T09:26:00Z</time>
      </trkpt>
      <trkpt lat="49.28456" lon="-0.15885">
        <ele>2.54</ele>
        <time>2019-08-21T09:26:08Z</time>
      </trkpt>
      <trkpt lat="49.28454" lon="-0.15839">
        <ele>0.62</ele>
        <time>2019-08-21T09:26:18Z</time>
      </trkpt>
      <trkpt lat="49.28453" lon="-0.15831">
        <ele>1.1</ele>
        <time>2019-08-21T09:26:19Z</time>
      </trkpt>
      <trkpt lat="49.28452" lon="-0.15822">
        <ele>1.1</ele>
        <time>2019-08-21T09:26:20Z</time>
      </trkpt>
      <trkpt lat="49.28451" lon="-0.15803">
        <ele>0.62</ele>
        <time>2019-08-21T09:26:22Z</time>
      </trkpt>
      <trkpt lat="49.28445" lon="-0.15631">
        <ele>1.58</ele>
        <time>2019-08-21T09:26:39Z</time>
      </trkpt>
      <trkpt lat="49.28438" lon="-0.15428">
        <ele>2.54</ele>
        <time>2019-08-21T09:26:58Z</time>
      </trkpt>
      <trkpt lat="49.28436" lon="-0.15384">
        <ele>2.54</ele>
        <time>2019-08-21T09:27:02Z</time>
      </trkpt>
      <trkpt lat="49.28432" lon="-0.15242">
        <ele>1.58</ele>
        <time>2019-08-21T09:27:15Z</time>
      </trkpt>
      <trkpt lat="49.28432" lon="-0.15231">
        <ele>1.1</ele>
        <time>2019-08-21T09:27:16Z</time>
      </trkpt>
      <trkpt lat="49.28431" lon="-0.1522">
        <ele>1.1</ele>
        <time>2019-08-21T09:27:17Z</time>
      </trkpt>
      <trkpt lat="49.28431" lon="-0.1521">
        <ele>1.1</ele>
        <time>2019-08-21T09:27:18Z</time>
      </trkpt>
      <trkpt lat="49.28432" lon="-0.15046">
        <ele>0.62</ele>
        <time>2019-08-21T09:27:34Z</time>
      </trkpt>
      <trkpt lat="49.28443" lon="-0.14875">
        <ele>2.06</ele>
        <time>2019-08-21T09:27:51Z</time>
      </trkpt>
      <trkpt lat="49.28455" lon="-0.14704">
        <ele>3.02</ele>
        <time>2019-08-21T09:28:08Z</time>
      </trkpt>
      <trkpt lat="49.28466" lon="-0.14555">
        <ele>3.02</ele>
        <time>2019-08-21T09:28:23Z</time>
      </trkpt>
      <trkpt lat="49.28493" lon="-0.14417">
        <ele>2.54</ele>
        <time>2019-08-21T09:28:38Z</time>
      </trkpt>
      <trkpt lat="49.28519" lon="-0.1425">
        <ele>4.46</ele>
        <time>2019-08-21T09:28:56Z</time>
      </trkpt>
      <trkpt lat="49.2854" lon="-0.14092">
        <ele>3.98</ele>
        <time>2019-08-21T09:29:13Z</time>
      </trkpt>
      <trkpt lat="49.28544" lon="-0.13995">
        <ele>2.54</ele>
        <time>2019-08-21T09:29:23Z</time>
      </trkpt>
      <trkpt lat="49.28552" lon="-0.13874">
        <ele>3.98</ele>
        <time>2019-08-21T09:29:36Z</time>
      </trkpt>
      <trkpt lat="49.28561" lon="-0.13822">
        <ele>4.46</ele>
        <time>2019-08-21T09:29:46Z</time>
      </trkpt>
      <trkpt lat="49.28562" lon="-0.13819">
        <ele>3.98</ele>
        <time>2019-08-21T09:29:48Z</time>
      </trkpt>
      <trkpt lat="49.28564" lon="-0.13818">
        <ele>3.98</ele>
        <time>2019-08-21T09:29:49Z</time>
      </trkpt>
      <trkpt lat="49.28566" lon="-0.13819">
        <ele>3.5</ele>
        <time>2019-08-21T09:29:50Z</time>
      </trkpt>
      <trkpt lat="49.2857" lon="-0.13821">
        <ele>3.5</ele>
        <time>2019-08-21T09:29:51Z</time>
      </trkpt>
      <trkpt lat="49.28575" lon="-0.13822">
        <ele>3.02</ele>
        <time>2019-08-21T09:29:52Z</time>
      </trkpt>
      <trkpt lat="49.2858" lon="-0.13823">
        <ele>3.02</ele>
        <time>2019-08-21T09:29:53Z</time>
      </trkpt>
      <trkpt lat="49.28586" lon="-0.13824">
        <ele>3.02</ele>
        <time>2019-08-21T09:29:54Z</time>
      </trkpt>
      <trkpt lat="49.28669" lon="-0.13836">
        <ele>3.5</ele>
        <time>2019-08-21T09:30:08Z</time>
      </trkpt>
      <trkpt lat="49.28704" lon="-0.13842">
        <ele>4.46</ele>
        <time>2019-08-21T09:30:14Z</time>
      </trkpt>
      <trkpt lat="49.28767" lon="-0.13852">
        <ele>4.94</ele>
        <time>2019-08-21T09:30:25Z</time>
      </trkpt>
      <trkpt lat="49.28834" lon="-0.13863">
        <ele>4.94</ele>
        <time>2019-08-21T09:30:37Z</time>
      </trkpt>
      <trkpt lat="49.28838" lon="-0.13863">
        <ele>4.94</ele>
        <time>2019-08-21T09:30:38Z</time>
      </trkpt>
      <trkpt lat="49.28841" lon="-0.13862">
        <ele>4.94</ele>
        <time>2019-08-21T09:30:39Z</time>
      </trkpt>
      <trkpt lat="49.28843" lon="-0.13862">
        <ele>4.46</ele>
        <time>2019-08-21T09:30:40Z</time>
      </trkpt>
      <trkpt lat="49.28844" lon="-0.13864">
        <ele>4.46</ele>
        <time>2019-08-21T09:30:41Z</time>
      </trkpt>
      <trkpt lat="49.28844" lon="-0.13868">
        <ele>4.94</ele>
        <time>2019-08-21T09:30:42Z</time>
      </trkpt>
      <trkpt lat="49.28843" lon="-0.13872">
        <ele>4.46</ele>
        <time>2019-08-21T09:30:43Z</time>
      </trkpt>
      <trkpt lat="49.28841" lon="-0.13878">
        <ele>4.46</ele>
        <time>2019-08-21T09:30:44Z</time>
      </trkpt>
      <trkpt lat="49.28839" lon="-0.13885">
        <ele>4.46</ele>
        <time>2019-08-21T09:30:45Z</time>
      </trkpt>
      <trkpt lat="49.28837" lon="-0.13907">
        <ele>4.94</ele>
        <time>2019-08-21T09:30:48Z</time>
      </trkpt>
      <trkpt lat="49.28838" lon="-0.13914">
        <ele>4.94</ele>
        <time>2019-08-21T09:30:49Z</time>
      </trkpt>
      <trkpt lat="49.2884" lon="-0.13919">
        <ele>5.42</ele>
        <time>2019-08-21T09:30:50Z</time>
      </trkpt>
      <trkpt lat="49.28843" lon="-0.13924">
        <ele>5.42</ele>
        <time>2019-08-21T09:30:51Z</time>
      </trkpt>
      <trkpt lat="49.28847" lon="-0.13925">
        <ele>5.42</ele>
        <time>2019-08-21T09:30:52Z</time>
      </trkpt>
      <trkpt lat="49.28852" lon="-0.13926">
        <ele>5.42</ele>
        <time>2019-08-21T09:30:53Z</time>
      </trkpt>
      <trkpt lat="49.28857" lon="-0.13926">
        <ele>5.42</ele>
        <time>2019-08-21T09:30:54Z</time>
      </trkpt>
      <trkpt lat="49.28862" lon="-0.13925">
        <ele>5.91</ele>
        <time>2019-08-21T09:30:55Z</time>
      </trkpt>
      <trkpt lat="49.289" lon="-0.13926">
        <ele>7.83</ele>
        <time>2019-08-21T09:31:04Z</time>
      </trkpt>
      <trkpt lat="49.28904" lon="-0.13926">
        <ele>7.83</ele>
        <time>2019-08-21T09:31:05Z</time>
      </trkpt>
      <trkpt lat="49.28908" lon="-0.13925">
        <ele>7.83</ele>
        <time>2019-08-21T09:31:06Z</time>
      </trkpt>
      <trkpt lat="49.28914" lon="-0.13923">
        <ele>7.83</ele>
        <time>2019-08-21T09:31:07Z</time>
      </trkpt>
      <trkpt lat="49.2892" lon="-0.13921">
        <ele>7.35</ele>
        <time>2019-08-21T09:31:08Z</time>
      </trkpt>
      <trkpt lat="49.28925" lon="-0.13921">
        <ele>7.35</ele>
        <time>2019-08-21T09:31:09Z</time>
      </trkpt>
      <trkpt lat="49.2893" lon="-0.13921">
        <ele>7.35</ele>
        <time>2019-08-21T09:31:10Z</time>
      </trkpt>
      <trkpt lat="49.28935" lon="-0.13922">
        <ele>7.35</ele>
        <time>2019-08-21T09:31:11Z</time>
      </trkpt>
      <trkpt lat="49.2894" lon="-0.13921">
        <ele>7.35</ele>
        <time>2019-08-21T09:31:12Z</time>
      </trkpt>
      <trkpt lat="49.28945" lon="-0.1392">
        <ele>6.87</ele>
        <time>2019-08-21T09:31:13Z</time>
      </trkpt>
      <trkpt lat="49.28949" lon="-0.13918">
        <ele>6.87</ele>
        <time>2019-08-21T09:31:14Z</time>
      </trkpt>
      <trkpt lat="49.28953" lon="-0.13914">
        <ele>6.87</ele>
        <time>2019-08-21T09:31:15Z</time>
      </trkpt>
      <trkpt lat="49.28956" lon="-0.13909">
        <ele>6.39</ele>
        <time>2019-08-21T09:31:16Z</time>
      </trkpt>
      <trkpt lat="49.28959" lon="-0.13903">
        <ele>6.39</ele>
        <time>2019-08-21T09:31:17Z</time>
      </trkpt>
      <trkpt lat="49.28971" lon="-0.13875">
        <ele>5.42</ele>
        <time>2019-08-21T09:31:21Z</time>
      </trkpt>
      <trkpt lat="49.28973" lon="-0.13866">
        <ele>5.91</ele>
        <time>2019-08-21T09:31:22Z</time>
      </trkpt>
      <trkpt lat="49.28982" lon="-0.13815">
        <ele>6.87</ele>
        <time>2019-08-21T09:31:28Z</time>
      </trkpt>
      <trkpt lat="49.28984" lon="-0.13807">
        <ele>6.87</ele>
        <time>2019-08-21T09:31:29Z</time>
      </trkpt>
      <trkpt lat="49.28985" lon="-0.13799">
        <ele>6.87</ele>
        <time>2019-08-21T09:31:30Z</time>
      </trkpt>
      <trkpt lat="49.28986" lon="-0.13791">
        <ele>6.87</ele>
        <time>2019-08-21T09:31:31Z</time>
      </trkpt>
      <trkpt lat="49.28988" lon="-0.13784">
        <ele>6.87</ele>
        <time>2019-08-21T09:31:32Z</time>
      </trkpt>
      <trkpt lat="49.28989" lon="-0.13776">
        <ele>6.87</ele>
        <time>2019-08-21T09:31:33Z</time>
      </trkpt>
      <trkpt lat="49.28996" lon="-0.13733">
        <ele>6.87</ele>
        <time>2019-08-21T09:31:39Z</time>
      </trkpt>
      <trkpt lat="49.28998" lon="-0.13725">
        <ele>6.87</ele>
        <time>2019-08-21T09:31:40Z</time>
      </trkpt>
      <trkpt lat="49.28999" lon="-0.13718">
        <ele>7.35</ele>
        <time>2019-08-21T09:31:41Z</time>
      </trkpt>
      <trkpt lat="49.29001" lon="-0.1371">
        <ele>7.35</ele>
        <time>2019-08-21T09:31:42Z</time>
      </trkpt>
      <trkpt lat="49.29002" lon="-0.13703">
        <ele>7.35</ele>
        <time>2019-08-21T09:31:43Z</time>
      </trkpt>
      <trkpt lat="49.29007" lon="-0.1368">
        <ele>7.35</ele>
        <time>2019-08-21T09:31:51Z</time>
      </trkpt>
      <trkpt lat="49.2901" lon="-0.13669">
        <ele>7.83</ele>
        <time>2019-08-21T09:31:53Z</time>
      </trkpt>
      <trkpt lat="49.29011" lon="-0.13662">
        <ele>7.83</ele>
        <time>2019-08-21T09:31:54Z</time>
      </trkpt>
      <trkpt lat="49.29015" lon="-0.13646">
        <ele>7.83</ele>
        <time>2019-08-21T09:31:56Z</time>
      </trkpt>
      <trkpt lat="49.29016" lon="-0.13637">
        <ele>7.83</ele>
        <time>2019-08-21T09:31:57Z</time>
      </trkpt>
      <trkpt lat="49.29043" lon="-0.13478">
        <ele>7.35</ele>
        <time>2019-08-21T09:32:15Z</time>
      </trkpt>
      <trkpt lat="49.29053" lon="-0.13415">
        <ele>7.83</ele>
        <time>2019-08-21T09:32:22Z</time>
      </trkpt>
      <trkpt lat="49.29079" lon="-0.13256">
        <ele>7.83</ele>
        <time>2019-08-21T09:32:40Z</time>
      </trkpt>
      <trkpt lat="49.29105" lon="-0.13103">
        <ele>7.35</ele>
        <time>2019-08-21T09:32:58Z</time>
      </trkpt>
      <trkpt lat="49.29114" lon="-0.13053">
        <ele>7.35</ele>
        <time>2019-08-21T09:33:04Z</time>
      </trkpt>
      <trkpt lat="49.29116" lon="-0.13045">
        <ele>7.35</ele>
        <time>2019-08-21T09:33:05Z</time>
      </trkpt>
      <trkpt lat="49.29117" lon="-0.13038">
        <ele>7.35</ele>
        <time>2019-08-21T09:33:06Z</time>
      </trkpt>
      <trkpt lat="49.29141" lon="-0.12915">
        <ele>7.35</ele>
        <time>2019-08-21T09:33:21Z</time>
      </trkpt>
      <trkpt lat="49.29152" lon="-0.12866">
        <ele>7.83</ele>
        <time>2019-08-21T09:33:29Z</time>
      </trkpt>
      <trkpt lat="49.29152" lon="-0.12861">
        <ele>7.83</ele>
        <time>2019-08-21T09:33:30Z</time>
      </trkpt>
      <trkpt lat="49.29153" lon="-0.12856">
        <ele>7.35</ele>
        <time>2019-08-21T09:33:31Z</time>
      </trkpt>
      <trkpt lat="49.29154" lon="-0.12852">
        <ele>7.35</ele>
        <time>2019-08-21T09:33:32Z</time>
      </trkpt>
      <trkpt lat="49.29156" lon="-0.12846">
        <ele>7.35</ele>
        <time>2019-08-21T09:33:33Z</time>
      </trkpt>
      <trkpt lat="49.29157" lon="-0.12839">
        <ele>7.35</ele>
        <time>2019-08-21T09:33:34Z</time>
      </trkpt>
      <trkpt lat="49.29171" lon="-0.12758">
        <ele>7.83</ele>
        <time>2019-08-21T09:33:45Z</time>
      </trkpt>
      <trkpt lat="49.2917" lon="-0.12754">
        <ele>8.31</ele>
        <time>2019-08-21T09:33:46Z</time>
      </trkpt>
      <trkpt lat="49.29168" lon="-0.12751">
        <ele>8.31</ele>
        <time>2019-08-21T09:33:47Z</time>
      </trkpt>
      <trkpt lat="49.29167" lon="-0.1275">
        <ele>8.31</ele>
        <time>2019-08-21T09:33:48Z</time>
      </trkpt>
      <trkpt lat="49.29167" lon="-0.12747">
        <ele>8.79</ele>
        <time>2019-08-21T09:33:49Z</time>
      </trkpt>
      <trkpt lat="49.29165" lon="-0.12743">
        <ele>8.79</ele>
        <time>2019-08-21T09:33:50Z</time>
      </trkpt>
      <trkpt lat="49.29162" lon="-0.12741">
        <ele>9.27</ele>
        <time>2019-08-21T09:33:51Z</time>
      </trkpt>
      <trkpt lat="49.29159" lon="-0.1274">
        <ele>9.27</ele>
        <time>2019-08-21T09:33:52Z</time>
      </trkpt>
      <trkpt lat="49.29155" lon="-0.1274">
        <ele>9.27</ele>
        <time>2019-08-21T09:33:53Z</time>
      </trkpt>
      <trkpt lat="49.29146" lon="-0.12738">
        <ele>9.75</ele>
        <time>2019-08-21T09:33:55Z</time>
      </trkpt>
      <trkpt lat="49.2909" lon="-0.12718">
        <ele>10.23</ele>
        <time>2019-08-21T09:34:07Z</time>
      </trkpt>
      <trkpt lat="49.29086" lon="-0.12711">
        <ele>9.75</ele>
        <time>2019-08-21T09:34:09Z</time>
      </trkpt>
      <trkpt lat="49.29086" lon="-0.12706">
        <ele>10.23</ele>
        <time>2019-08-21T09:34:10Z</time>
      </trkpt>
      <trkpt lat="49.29088" lon="-0.12701">
        <ele>10.23</ele>
        <time>2019-08-21T09:34:11Z</time>
      </trkpt>
      <trkpt lat="49.2909" lon="-0.12695">
        <ele>10.71</ele>
        <time>2019-08-21T09:34:12Z</time>
      </trkpt>
      <trkpt lat="49.29092" lon="-0.12688">
        <ele>11.19</ele>
        <time>2019-08-21T09:34:13Z</time>
      </trkpt>
      <trkpt lat="49.29094" lon="-0.12682">
        <ele>11.67</ele>
        <time>2019-08-21T09:34:14Z</time>
      </trkpt>
      <trkpt lat="49.29098" lon="-0.12658">
        <ele>12.63</ele>
        <time>2019-08-21T09:34:17Z</time>
      </trkpt>
      <trkpt lat="49.29099" lon="-0.1265">
        <ele>13.12</ele>
        <time>2019-08-21T09:34:18Z</time>
      </trkpt>
      <trkpt lat="49.29098" lon="-0.12641">
        <ele>13.12</ele>
        <time>2019-08-21T09:34:19Z</time>
      </trkpt>
      <trkpt lat="49.29094" lon="-0.12618">
        <ele>14.08</ele>
        <time>2019-08-21T09:34:22Z</time>
      </trkpt>
      <trkpt lat="49.29093" lon="-0.1261">
        <ele>14.56</ele>
        <time>2019-08-21T09:34:23Z</time>
      </trkpt>
      <trkpt lat="49.29089" lon="-0.1258">
        <ele>14.56</ele>
        <time>2019-08-21T09:34:27Z</time>
      </trkpt>
      <trkpt lat="49.29089" lon="-0.12572">
        <ele>14.56</ele>
        <time>2019-08-21T09:34:28Z</time>
      </trkpt>
      <trkpt lat="49.2909" lon="-0.12547">
        <ele>14.08</ele>
        <time>2019-08-21T09:34:31Z</time>
      </trkpt>
      <trkpt lat="49.29096" lon="-0.12513">
        <ele>13.12</ele>
        <time>2019-08-21T09:34:35Z</time>
      </trkpt>
      <trkpt lat="49.29104" lon="-0.12488">
        <ele>12.15</ele>
        <time>2019-08-21T09:34:38Z</time>
      </trkpt>
      <trkpt lat="49.29106" lon="-0.1248">
        <ele>11.19</ele>
        <time>2019-08-21T09:34:39Z</time>
      </trkpt>
      <trkpt lat="49.29107" lon="-0.1247">
        <ele>10.71</ele>
        <time>2019-08-21T09:34:40Z</time>
      </trkpt>
      <trkpt lat="49.29109" lon="-0.1246">
        <ele>10.23</ele>
        <time>2019-08-21T09:34:41Z</time>
      </trkpt>
      <trkpt lat="49.29111" lon="-0.12451">
        <ele>9.75</ele>
        <time>2019-08-21T09:34:42Z</time>
      </trkpt>
      <trkpt lat="49.29113" lon="-0.12442">
        <ele>9.27</ele>
        <time>2019-08-21T09:34:43Z</time>
      </trkpt>
      <trkpt lat="49.29116" lon="-0.12426">
        <ele>7.83</ele>
        <time>2019-08-21T09:34:47Z</time>
      </trkpt>
      <trkpt lat="49.29117" lon="-0.1242">
        <ele>6.39</ele>
        <time>2019-08-21T09:34:50Z</time>
      </trkpt>
      <trkpt lat="49.29117" lon="-0.12416">
        <ele>5.91</ele>
        <time>2019-08-21T09:34:51Z</time>
      </trkpt>
      <trkpt lat="49.29119" lon="-0.12412">
        <ele>5.42</ele>
        <time>2019-08-21T09:34:52Z</time>
      </trkpt>
      <trkpt lat="49.29124" lon="-0.12403">
        <ele>4.94</ele>
        <time>2019-08-21T09:34:54Z</time>
      </trkpt>
      <trkpt lat="49.29126" lon="-0.12396">
        <ele>4.94</ele>
        <time>2019-08-21T09:34:55Z</time>
      </trkpt>
      <trkpt lat="49.29127" lon="-0.12388">
        <ele>4.94</ele>
        <time>2019-08-21T09:34:56Z</time>
      </trkpt>
      <trkpt lat="49.29129" lon="-0.12379">
        <ele>5.42</ele>
        <time>2019-08-21T09:34:57Z</time>
      </trkpt>
      <trkpt lat="49.2913" lon="-0.12371">
        <ele>5.42</ele>
        <time>2019-08-21T09:34:58Z</time>
      </trkpt>
      <trkpt lat="49.2916" lon="-0.12241">
        <ele>3.98</ele>
        <time>2019-08-21T09:35:12Z</time>
      </trkpt>
      <trkpt lat="49.29171" lon="-0.12193">
        <ele>3.5</ele>
        <time>2019-08-21T09:35:17Z</time>
      </trkpt>
      <trkpt lat="49.29191" lon="-0.12112">
        <ele>2.54</ele>
        <time>2019-08-21T09:35:26Z</time>
      </trkpt>
      <trkpt lat="49.29192" lon="-0.12102">
        <ele>2.54</ele>
        <time>2019-08-21T09:35:27Z</time>
      </trkpt>
      <trkpt lat="49.29194" lon="-0.12093">
        <ele>2.54</ele>
        <time>2019-08-21T09:35:28Z</time>
      </trkpt>
      <trkpt lat="49.29196" lon="-0.12084">
        <ele>2.54</ele>
        <time>2019-08-21T09:35:29Z</time>
      </trkpt>
      <trkpt lat="49.29198" lon="-0.12074">
        <ele>2.54</ele>
        <time>2019-08-21T09:35:30Z</time>
      </trkpt>
      <trkpt lat="49.2923" lon="-0.11935">
        <ele>2.06</ele>
        <time>2019-08-21T09:35:46Z</time>
      </trkpt>
      <trkpt lat="49.29235" lon="-0.11913">
        <ele>2.06</ele>
        <time>2019-08-21T09:35:49Z</time>
      </trkpt>
      <trkpt lat="49.29236" lon="-0.11906">
        <ele>2.54</ele>
        <time>2019-08-21T09:35:50Z</time>
      </trkpt>
      <trkpt lat="49.29239" lon="-0.119">
        <ele>2.54</ele>
        <time>2019-08-21T09:35:51Z</time>
      </trkpt>
      <trkpt lat="49.29242" lon="-0.11894">
        <ele>3.02</ele>
        <time>2019-08-21T09:35:52Z</time>
      </trkpt>
      <trkpt lat="49.29245" lon="-0.11888">
        <ele>3.5</ele>
        <time>2019-08-21T09:35:53Z</time>
      </trkpt>
      <trkpt lat="49.29249" lon="-0.11883">
        <ele>3.5</ele>
        <time>2019-08-21T09:35:54Z</time>
      </trkpt>
      <trkpt lat="49.29252" lon="-0.11877">
        <ele>3.5</ele>
        <time>2019-08-21T09:35:55Z</time>
      </trkpt>
      <trkpt lat="49.29257" lon="-0.11873">
        <ele>3.98</ele>
        <time>2019-08-21T09:35:56Z</time>
      </trkpt>
      <trkpt lat="49.29298" lon="-0.11826">
        <ele>4.46</ele>
        <time>2019-08-21T09:36:06Z</time>
      </trkpt>
      <trkpt lat="49.29302" lon="-0.11824">
        <ele>3.98</ele>
        <time>2019-08-21T09:36:07Z</time>
      </trkpt>
      <trkpt lat="49.29305" lon="-0.11823">
        <ele>4.46</ele>
        <time>2019-08-21T09:36:08Z</time>
      </trkpt>
      <trkpt lat="49.29308" lon="-0.11822">
        <ele>4.46</ele>
        <time>2019-08-21T09:36:09Z</time>
      </trkpt>
      <trkpt lat="49.2931" lon="-0.11823">
        <ele>4.46</ele>
        <time>2019-08-21T09:36:10Z</time>
      </trkpt>
      <trkpt lat="49.29312" lon="-0.11824">
        <ele>4.94</ele>
        <time>2019-08-21T09:36:11Z</time>
      </trkpt>
      <trkpt lat="49.29313" lon="-0.11826">
        <ele>5.42</ele>
        <time>2019-08-21T09:36:12Z</time>
      </trkpt>
      <trkpt lat="49.29314" lon="-0.11829">
        <ele>5.42</ele>
        <time>2019-08-21T09:36:13Z</time>
      </trkpt>
      <trkpt lat="49.29313" lon="-0.11832">
        <ele>5.91</ele>
        <time>2019-08-21T09:36:14Z</time>
      </trkpt>
      <trkpt lat="49.2931" lon="-0.11831">
        <ele>5.91</ele>
        <time>2019-08-21T09:36:15Z</time>
      </trkpt>
      <trkpt lat="49.29308" lon="-0.11828">
        <ele>5.91</ele>
        <time>2019-08-21T09:36:16Z</time>
      </trkpt>
      <trkpt lat="49.29305" lon="-0.11826">
        <ele>5.91</ele>
        <time>2019-08-21T09:36:17Z</time>
      </trkpt>
      <trkpt lat="49.29302" lon="-0.11826">
        <ele>5.91</ele>
        <time>2019-08-21T09:36:18Z</time>
      </trkpt>
      <trkpt lat="49.29298" lon="-0.11828">
        <ele>5.42</ele>
        <time>2019-08-21T09:36:19Z</time>
      </trkpt>
      <trkpt lat="49.29294" lon="-0.11831">
        <ele>5.42</ele>
        <time>2019-08-21T09:36:20Z</time>
      </trkpt>
      <trkpt lat="49.29289" lon="-0.11835">
        <ele>5.42</ele>
        <time>2019-08-21T09:36:21Z</time>
      </trkpt>
      <trkpt lat="49.29285" lon="-0.11839">
        <ele>5.42</ele>
        <time>2019-08-21T09:36:22Z</time>
      </trkpt>
      <trkpt lat="49.29281" lon="-0.11843">
        <ele>5.91</ele>
        <time>2019-08-21T09:36:23Z</time>
      </trkpt>
      <trkpt lat="49.29278" lon="-0.11848">
        <ele>6.39</ele>
        <time>2019-08-21T09:36:24Z</time>
      </trkpt>
      <trkpt lat="49.29265" lon="-0.11862">
        <ele>6.39</ele>
        <time>2019-08-21T09:36:27Z</time>
      </trkpt>
      <trkpt lat="49.2926" lon="-0.11862">
        <ele>6.39</ele>
        <time>2019-08-21T09:36:28Z</time>
      </trkpt>
      <trkpt lat="49.29257" lon="-0.11857">
        <ele>6.39</ele>
        <time>2019-08-21T09:36:29Z</time>
      </trkpt>
      <trkpt lat="49.29257" lon="-0.1185">
        <ele>6.39</ele>
        <time>2019-08-21T09:36:30Z</time>
      </trkpt>
      <trkpt lat="49.29258" lon="-0.11842">
        <ele>6.39</ele>
        <time>2019-08-21T09:36:31Z</time>
      </trkpt>
      <trkpt lat="49.2926" lon="-0.11835">
        <ele>6.39</ele>
        <time>2019-08-21T09:36:32Z</time>
      </trkpt>
      <trkpt lat="49.29268" lon="-0.11801">
        <ele>6.87</ele>
        <time>2019-08-21T09:36:36Z</time>
      </trkpt>
      <trkpt lat="49.2927" lon="-0.11793">
        <ele>7.35</ele>
        <time>2019-08-21T09:36:37Z</time>
      </trkpt>
      <trkpt lat="49.29292" lon="-0.11698">
        <ele>6.39</ele>
        <time>2019-08-21T09:36:48Z</time>
      </trkpt>
      <trkpt lat="49.293" lon="-0.11667">
        <ele>5.42</ele>
        <time>2019-08-21T09:36:55Z</time>
      </trkpt>
      <trkpt lat="49.29301" lon="-0.11661">
        <ele>5.91</ele>
        <time>2019-08-21T09:36:56Z</time>
      </trkpt>
      <trkpt lat="49.29303" lon="-0.11656">
        <ele>5.91</ele>
        <time>2019-08-21T09:36:57Z</time>
      </trkpt>
      <trkpt lat="49.29304" lon="-0.11649">
        <ele>5.91</ele>
        <time>2019-08-21T09:36:58Z</time>
      </trkpt>
      <trkpt lat="49.29305" lon="-0.11641">
        <ele>5.42</ele>
        <time>2019-08-21T09:36:59Z</time>
      </trkpt>
      <trkpt lat="49.29305" lon="-0.11633">
        <ele>5.42</ele>
        <time>2019-08-21T09:37:00Z</time>
      </trkpt>
      <trkpt lat="49.29306" lon="-0.11597">
        <ele>3.98</ele>
        <time>2019-08-21T09:37:07Z</time>
      </trkpt>
      <trkpt lat="49.29307" lon="-0.11592">
        <ele>3.98</ele>
        <time>2019-08-21T09:37:08Z</time>
      </trkpt>
      <trkpt lat="49.29307" lon="-0.11587">
        <ele>3.5</ele>
        <time>2019-08-21T09:37:09Z</time>
      </trkpt>
      <trkpt lat="49.29306" lon="-0.11581">
        <ele>3.02</ele>
        <time>2019-08-21T09:37:10Z</time>
      </trkpt>
      <trkpt lat="49.29304" lon="-0.11576">
        <ele>2.54</ele>
        <time>2019-08-21T09:37:11Z</time>
      </trkpt>
      <trkpt lat="49.29302" lon="-0.1157">
        <ele>2.06</ele>
        <time>2019-08-21T09:37:12Z</time>
      </trkpt>
      <trkpt lat="49.29301" lon="-0.11563">
        <ele>2.06</ele>
        <time>2019-08-21T09:37:13Z</time>
      </trkpt>
      <trkpt lat="49.29301" lon="-0.11555">
        <ele>2.06</ele>
        <time>2019-08-21T09:37:14Z</time>
      </trkpt>
      <trkpt lat="49.29301" lon="-0.11547">
        <ele>2.06</ele>
        <time>2019-08-21T09:37:15Z</time>
      </trkpt>
      <trkpt lat="49.29301" lon="-0.1154">
        <ele>2.06</ele>
        <time>2019-08-21T09:37:16Z</time>
      </trkpt>
      <trkpt lat="49.29302" lon="-0.11533">
        <ele>2.06</ele>
        <time>2019-08-21T09:37:17Z</time>
      </trkpt>
      <trkpt lat="49.29303" lon="-0.11528">
        <ele>2.06</ele>
        <time>2019-08-21T09:37:18Z</time>
      </trkpt>
      <trkpt lat="49.29304" lon="-0.11524">
        <ele>2.06</ele>
        <time>2019-08-21T09:37:19Z</time>
      </trkpt>
      <trkpt lat="49.29304" lon="-0.1152">
        <ele>2.06</ele>
        <time>2019-08-21T09:37:20Z</time>
      </trkpt>
      <trkpt lat="49.29305" lon="-0.11516">
        <ele>2.06</ele>
        <time>2019-08-21T09:37:21Z</time>
      </trkpt>
      <trkpt lat="49.29308" lon="-0.11512">
        <ele>2.54</ele>
        <time>2019-08-21T09:37:22Z</time>
      </trkpt>
      <trkpt lat="49.29311" lon="-0.11509">
        <ele>3.5</ele>
        <time>2019-08-21T09:37:23Z</time>
      </trkpt>
      <trkpt lat="49.29317" lon="-0.11503">
        <ele>3.02</ele>
        <time>2019-08-21T09:37:25Z</time>
      </trkpt>
      <trkpt lat="49.29318" lon="-0.11497">
        <ele>2.54</ele>
        <time>2019-08-21T09:37:26Z</time>
      </trkpt>
      <trkpt lat="49.29318" lon="-0.11491">
        <ele>1.58</ele>
        <time>2019-08-21T09:37:27Z</time>
      </trkpt>
      <trkpt lat="49.29321" lon="-0.11453">
        <ele>1.1</ele>
        <time>2019-08-21T09:37:32Z</time>
      </trkpt>
      <trkpt lat="49.29321" lon="-0.11448">
        <ele>1.58</ele>
        <time>2019-08-21T09:37:33Z</time>
      </trkpt>
      <trkpt lat="49.29321" lon="-0.11444">
        <ele>1.58</ele>
        <time>2019-08-21T09:37:34Z</time>
      </trkpt>
      <trkpt lat="49.29322" lon="-0.11442">
        <ele>2.06</ele>
        <time>2019-08-21T09:37:35Z</time>
      </trkpt>
      <trkpt lat="49.29322" lon="-0.1144">
        <ele>2.06</ele>
        <time>2019-08-21T09:37:36Z</time>
      </trkpt>
      <trkpt lat="49.29322" lon="-0.11439">
        <ele>1.58</ele>
        <time>2019-08-21T09:37:37Z</time>
      </trkpt>
      <trkpt lat="49.29322" lon="-0.11437">
        <ele>1.58</ele>
        <time>2019-08-21T09:37:38Z</time>
      </trkpt>
      <trkpt lat="49.29322" lon="-0.11434">
        <ele>1.58</ele>
        <time>2019-08-21T09:37:39Z</time>
      </trkpt>
      <trkpt lat="49.29323" lon="-0.11432">
        <ele>1.58</ele>
        <time>2019-08-21T09:37:40Z</time>
      </trkpt>
      <trkpt lat="49.29325" lon="-0.11432">
        <ele>1.58</ele>
        <time>2019-08-21T09:37:41Z</time>
      </trkpt>
      <trkpt lat="49.29327" lon="-0.11433">
        <ele>2.06</ele>
        <time>2019-08-21T09:37:42Z</time>
      </trkpt>
      <trkpt lat="49.29329" lon="-0.11433">
        <ele>2.54</ele>
        <time>2019-08-21T09:37:43Z</time>
      </trkpt>
      <trkpt lat="49.29332" lon="-0.11434">
        <ele>2.54</ele>
        <time>2019-08-21T09:37:44Z</time>
      </trkpt>
      <trkpt lat="49.29336" lon="-0.11436">
        <ele>3.02</ele>
        <time>2019-08-21T09:37:45Z</time>
      </trkpt>
      <trkpt lat="49.2934" lon="-0.11437">
        <ele>3.5</ele>
        <time>2019-08-21T09:37:46Z</time>
      </trkpt>
      <trkpt lat="49.29351" lon="-0.11438">
        <ele>3.98</ele>
        <time>2019-08-21T09:37:48Z</time>
      </trkpt>
      <trkpt lat="49.2939" lon="-0.11445">
        <ele>6.87</ele>
        <time>2019-08-21T09:37:57Z</time>
      </trkpt>
      <trkpt lat="49.29392" lon="-0.11442">
        <ele>6.87</ele>
        <time>2019-08-21T09:37:58Z</time>
      </trkpt>
      <trkpt lat="49.29394" lon="-0.11437">
        <ele>6.87</ele>
        <time>2019-08-21T09:37:59Z</time>
      </trkpt>
      <trkpt lat="49.29401" lon="-0.11409">
        <ele>5.91</ele>
        <time>2019-08-21T09:38:03Z</time>
      </trkpt>
      <trkpt lat="49.29402" lon="-0.11401">
        <ele>5.91</ele>
        <time>2019-08-21T09:38:04Z</time>
      </trkpt>
      <trkpt lat="49.29407" lon="-0.1138">
        <ele>5.42</ele>
        <time>2019-08-21T09:38:07Z</time>
      </trkpt>
      <trkpt lat="49.29408" lon="-0.11374">
        <ele>5.42</ele>
        <time>2019-08-21T09:38:08Z</time>
      </trkpt>
      <trkpt lat="49.2941" lon="-0.11368">
        <ele>5.42</ele>
        <time>2019-08-21T09:38:09Z</time>
      </trkpt>
      <trkpt lat="49.29411" lon="-0.11362">
        <ele>5.42</ele>
        <time>2019-08-21T09:38:10Z</time>
      </trkpt>
      <trkpt lat="49.29412" lon="-0.11356">
        <ele>4.94</ele>
        <time>2019-08-21T09:38:11Z</time>
      </trkpt>
      <trkpt lat="49.29426" lon="-0.11293">
        <ele>5.42</ele>
        <time>2019-08-21T09:38:22Z</time>
      </trkpt>
      <trkpt lat="49.29434" lon="-0.11256">
        <ele>6.87</ele>
        <time>2019-08-21T09:38:27Z</time>
      </trkpt>
      <trkpt lat="49.29435" lon="-0.11249">
        <ele>7.35</ele>
        <time>2019-08-21T09:38:28Z</time>
      </trkpt>
      <trkpt lat="49.29437" lon="-0.11241">
        <ele>7.35</ele>
        <time>2019-08-21T09:38:29Z</time>
      </trkpt>
      <trkpt lat="49.29443" lon="-0.11219">
        <ele>8.31</ele>
        <time>2019-08-21T09:38:32Z</time>
      </trkpt>
      <trkpt lat="49.29453" lon="-0.11165">
        <ele>8.79</ele>
        <time>2019-08-21T09:38:39Z</time>
      </trkpt>
      <trkpt lat="49.29474" lon="-0.11063">
        <ele>7.83</ele>
        <time>2019-08-21T09:38:52Z</time>
      </trkpt>
      <trkpt lat="49.29479" lon="-0.1104">
        <ele>6.87</ele>
        <time>2019-08-21T09:38:55Z</time>
      </trkpt>
      <trkpt lat="49.29481" lon="-0.11032">
        <ele>6.87</ele>
        <time>2019-08-21T09:38:56Z</time>
      </trkpt>
      <trkpt lat="49.29491" lon="-0.10976">
        <ele>4.94</ele>
        <time>2019-08-21T09:39:03Z</time>
      </trkpt>
      <trkpt lat="49.29493" lon="-0.10968">
        <ele>4.94</ele>
        <time>2019-08-21T09:39:04Z</time>
      </trkpt>
      <trkpt lat="49.29497" lon="-0.10952">
        <ele>4.46</ele>
        <time>2019-08-21T09:39:06Z</time>
      </trkpt>
      <trkpt lat="49.29525" lon="-0.10817">
        <ele>2.06</ele>
        <time>2019-08-21T09:39:21Z</time>
      </trkpt>
      <trkpt lat="49.29556" lon="-0.10672">
        <ele>3.98</ele>
        <time>2019-08-21T09:39:37Z</time>
      </trkpt>
      <trkpt lat="49.29563" lon="-0.10635">
        <ele>4.46</ele>
        <time>2019-08-21T09:39:41Z</time>
      </trkpt>
      <trkpt lat="49.29565" lon="-0.10627">
        <ele>4.46</ele>
        <time>2019-08-21T09:39:42Z</time>
      </trkpt>
      <trkpt lat="49.29566" lon="-0.10604">
        <ele>4.46</ele>
        <time>2019-08-21T09:39:46Z</time>
      </trkpt>
      <trkpt lat="49.29564" lon="-0.10602">
        <ele>4.46</ele>
        <time>2019-08-21T09:39:47Z</time>
      </trkpt>
      <trkpt lat="49.29562" lon="-0.10601">
        <ele>4.46</ele>
        <time>2019-08-21T09:39:48Z</time>
      </trkpt>
      <trkpt lat="49.29558" lon="-0.10601">
        <ele>4.94</ele>
        <time>2019-08-21T09:39:49Z</time>
      </trkpt>
      <trkpt lat="49.29553" lon="-0.10602">
        <ele>4.94</ele>
        <time>2019-08-21T09:39:50Z</time>
      </trkpt>
      <trkpt lat="49.29548" lon="-0.10604">
        <ele>4.94</ele>
        <time>2019-08-21T09:39:51Z</time>
      </trkpt>
      <trkpt lat="49.29467" lon="-0.1064">
        <ele>2.06</ele>
        <time>2019-08-21T09:40:06Z</time>
      </trkpt>
      <trkpt lat="49.29392" lon="-0.10676">
        <ele>-1.79</ele>
        <time>2019-08-21T09:40:19Z</time>
      </trkpt>
      <trkpt lat="49.29325" lon="-0.10706">
        <ele>-3.23</ele>
        <time>2019-08-21T09:40:29Z</time>
      </trkpt>
      <trkpt lat="49.29253" lon="-0.10736">
        <ele>-3.23</ele>
        <time>2019-08-21T09:40:40Z</time>
      </trkpt>
      <trkpt lat="49.29247" lon="-0.10738">
        <ele>-3.23</ele>
        <time>2019-08-21T09:40:41Z</time>
      </trkpt>
      <trkpt lat="49.29236" lon="-0.10743">
        <ele>-3.23</ele>
        <time>2019-08-21T09:40:43Z</time>
      </trkpt>
      <trkpt lat="49.29226" lon="-0.1075">
        <ele>-2.75</ele>
        <time>2019-08-21T09:40:45Z</time>
      </trkpt>
      <trkpt lat="49.29142" lon="-0.10842">
        <ele>-1.3</ele>
        <time>2019-08-21T09:41:00Z</time>
      </trkpt>
      <trkpt lat="49.2908" lon="-0.10915">
        <ele>-0.82</ele>
        <time>2019-08-21T09:41:11Z</time>
      </trkpt>
      <trkpt lat="49.29075" lon="-0.10921">
        <ele>-0.82</ele>
        <time>2019-08-21T09:41:12Z</time>
      </trkpt>
      <trkpt lat="49.2907" lon="-0.10926">
        <ele>-0.82</ele>
        <time>2019-08-21T09:41:13Z</time>
      </trkpt>
      <trkpt lat="49.29008" lon="-0.10997">
        <ele>0.14</ele>
        <time>2019-08-21T09:41:26Z</time>
      </trkpt>
      <trkpt lat="49.28933" lon="-0.11083">
        <ele>-0.82</ele>
        <time>2019-08-21T09:41:40Z</time>
      </trkpt>
      <trkpt lat="49.28912" lon="-0.11105">
        <ele>-1.3</ele>
        <time>2019-08-21T09:41:44Z</time>
      </trkpt>
      <trkpt lat="49.28844" lon="-0.11186">
        <ele>-2.27</ele>
        <time>2019-08-21T09:41:57Z</time>
      </trkpt>
      <trkpt lat="49.28813" lon="-0.11225">
        <ele>-2.75</ele>
        <time>2019-08-21T09:42:04Z</time>
      </trkpt>
      <trkpt lat="49.2881" lon="-0.1123">
        <ele>-2.75</ele>
        <time>2019-08-21T09:42:05Z</time>
      </trkpt>
      <trkpt lat="49.28805" lon="-0.11232">
        <ele>-2.75</ele>
        <time>2019-08-21T09:42:06Z</time>
      </trkpt>
      <trkpt lat="49.288" lon="-0.1123">
        <ele>-2.75</ele>
        <time>2019-08-21T09:42:07Z</time>
      </trkpt>
      <trkpt lat="49.28795" lon="-0.11227">
        <ele>-2.75</ele>
        <time>2019-08-21T09:42:08Z</time>
      </trkpt>
      <trkpt lat="49.28789" lon="-0.11224">
        <ele>-2.75</ele>
        <time>2019-08-21T09:42:09Z</time>
      </trkpt>
      <trkpt lat="49.28783" lon="-0.11222">
        <ele>-2.75</ele>
        <time>2019-08-21T09:42:10Z</time>
      </trkpt>
      <trkpt lat="49.28777" lon="-0.1122">
        <ele>-2.75</ele>
        <time>2019-08-21T09:42:11Z</time>
      </trkpt>
      <trkpt lat="49.28708" lon="-0.11212">
        <ele>-0.82</ele>
        <time>2019-08-21T09:42:22Z</time>
      </trkpt>
      <trkpt lat="49.28703" lon="-0.11214">
        <ele>-0.82</ele>
        <time>2019-08-21T09:42:23Z</time>
      </trkpt>
      <trkpt lat="49.28623" lon="-0.11233">
        <ele>1.58</ele>
        <time>2019-08-21T09:42:37Z</time>
      </trkpt>
      <trkpt lat="49.28618" lon="-0.11235">
        <ele>2.06</ele>
        <time>2019-08-21T09:42:38Z</time>
      </trkpt>
      <trkpt lat="49.28614" lon="-0.11237">
        <ele>2.54</ele>
        <time>2019-08-21T09:42:39Z</time>
      </trkpt>
      <trkpt lat="49.28612" lon="-0.11238">
        <ele>3.02</ele>
        <time>2019-08-21T09:42:40Z</time>
      </trkpt>
      <trkpt lat="49.2861" lon="-0.11239">
        <ele>3.5</ele>
        <time>2019-08-21T09:42:41Z</time>
      </trkpt>
      <trkpt lat="49.28607" lon="-0.11241">
        <ele>4.46</ele>
        <time>2019-08-21T09:42:43Z</time>
      </trkpt>
      <trkpt lat="49.28599" lon="-0.11248">
        <ele>4.94</ele>
        <time>2019-08-21T09:42:46Z</time>
      </trkpt>
      <trkpt lat="49.28595" lon="-0.11245">
        <ele>5.42</ele>
        <time>2019-08-21T09:42:47Z</time>
      </trkpt>
      <trkpt lat="49.28593" lon="-0.1124">
        <ele>5.42</ele>
        <time>2019-08-21T09:42:48Z</time>
      </trkpt>
      <trkpt lat="49.28591" lon="-0.11233">
        <ele>5.42</ele>
        <time>2019-08-21T09:42:49Z</time>
      </trkpt>
      <trkpt lat="49.28591" lon="-0.11226">
        <ele>4.94</ele>
        <time>2019-08-21T09:42:50Z</time>
      </trkpt>
      <trkpt lat="49.28589" lon="-0.11219">
        <ele>4.94</ele>
        <time>2019-08-21T09:42:51Z</time>
      </trkpt>
      <trkpt lat="49.28577" lon="-0.11176">
        <ele>5.42</ele>
        <time>2019-08-21T09:42:59Z</time>
      </trkpt>
      <trkpt lat="49.28569" lon="-0.11147">
        <ele>4.46</ele>
        <time>2019-08-21T09:43:03Z</time>
      </trkpt>
      <trkpt lat="49.28537" lon="-0.11021">
        <ele>-0.82</ele>
        <time>2019-08-21T09:43:17Z</time>
      </trkpt>
      <trkpt lat="49.28525" lon="-0.10955">
        <ele>-1.79</ele>
        <time>2019-08-21T09:43:28Z</time>
      </trkpt>
      <trkpt lat="49.28523" lon="-0.10899">
        <ele>-0.82</ele>
        <time>2019-08-21T09:43:39Z</time>
      </trkpt>
      <trkpt lat="49.28522" lon="-0.10875">
        <ele>-0.82</ele>
        <time>2019-08-21T09:43:42Z</time>
      </trkpt>
      <trkpt lat="49.28522" lon="-0.10865">
        <ele>-0.82</ele>
        <time>2019-08-21T09:43:43Z</time>
      </trkpt>
      <trkpt lat="49.28523" lon="-0.10848">
        <ele>-1.3</ele>
        <time>2019-08-21T09:43:45Z</time>
      </trkpt>
      <trkpt lat="49.28526" lon="-0.10842">
        <ele>-1.3</ele>
        <time>2019-08-21T09:43:46Z</time>
      </trkpt>
      <trkpt lat="49.28531" lon="-0.10839">
        <ele>-1.3</ele>
        <time>2019-08-21T09:43:47Z</time>
      </trkpt>
      <trkpt lat="49.28543" lon="-0.10836">
        <ele>-1.79</ele>
        <time>2019-08-21T09:43:49Z</time>
      </trkpt>
      <trkpt lat="49.28549" lon="-0.10833">
        <ele>-1.79</ele>
        <time>2019-08-21T09:43:50Z</time>
      </trkpt>
      <trkpt lat="49.28565" lon="-0.10824">
        <ele>-1.79</ele>
        <time>2019-08-21T09:43:53Z</time>
      </trkpt>
      <trkpt lat="49.28571" lon="-0.10821">
        <ele>-1.3</ele>
        <time>2019-08-21T09:43:54Z</time>
      </trkpt>
      <trkpt lat="49.28598" lon="-0.10806">
        <ele>0.14</ele>
        <time>2019-08-21T09:43:59Z</time>
      </trkpt>
      <trkpt lat="49.28607" lon="-0.10795">
        <ele>0.14</ele>
        <time>2019-08-21T09:44:01Z</time>
      </trkpt>
      <trkpt lat="49.2861" lon="-0.10787">
        <ele>0.62</ele>
        <time>2019-08-21T09:44:02Z</time>
      </trkpt>
      <trkpt lat="49.28612" lon="-0.10779">
        <ele>0.62</ele>
        <time>2019-08-21T09:44:03Z</time>
      </trkpt>
      <trkpt lat="49.28615" lon="-0.10771">
        <ele>0.62</ele>
        <time>2019-08-21T09:44:04Z</time>
      </trkpt>
      <trkpt lat="49.28618" lon="-0.10764">
        <ele>1.1</ele>
        <time>2019-08-21T09:44:05Z</time>
      </trkpt>
      <trkpt lat="49.28623" lon="-0.10757">
        <ele>1.1</ele>
        <time>2019-08-21T09:44:06Z</time>
      </trkpt>
      <trkpt lat="49.28627" lon="-0.10751">
        <ele>1.1</ele>
        <time>2019-08-21T09:44:07Z</time>
      </trkpt>
      <trkpt lat="49.28632" lon="-0.10746">
        <ele>1.58</ele>
        <time>2019-08-21T09:44:08Z</time>
      </trkpt>
      <trkpt lat="49.28637" lon="-0.10741">
        <ele>1.58</ele>
        <time>2019-08-21T09:44:09Z</time>
      </trkpt>
      <trkpt lat="49.28664" lon="-0.1072">
        <ele>1.58</ele>
        <time>2019-08-21T09:44:14Z</time>
      </trkpt>
      <trkpt lat="49.2867" lon="-0.10719">
        <ele>1.58</ele>
        <time>2019-08-21T09:44:15Z</time>
      </trkpt>
      <trkpt lat="49.28675" lon="-0.10717">
        <ele>1.1</ele>
        <time>2019-08-21T09:44:16Z</time>
      </trkpt>
      <trkpt lat="49.28681" lon="-0.10712">
        <ele>1.1</ele>
        <time>2019-08-21T09:44:17Z</time>
      </trkpt>
      <trkpt lat="49.28686" lon="-0.10706">
        <ele>1.1</ele>
        <time>2019-08-21T09:44:18Z</time>
      </trkpt>
      <trkpt lat="49.28744" lon="-0.10608">
        <ele>3.02</ele>
        <time>2019-08-21T09:44:32Z</time>
      </trkpt>
      <trkpt lat="49.28758" lon="-0.10579">
        <ele>3.5</ele>
        <time>2019-08-21T09:44:36Z</time>
      </trkpt>
      <trkpt lat="49.28759" lon="-0.10572">
        <ele>3.5</ele>
        <time>2019-08-21T09:44:37Z</time>
      </trkpt>
      <trkpt lat="49.2876" lon="-0.10564">
        <ele>3.5</ele>
        <time>2019-08-21T09:44:38Z</time>
      </trkpt>
      <trkpt lat="49.28762" lon="-0.10558">
        <ele>3.5</ele>
        <time>2019-08-21T09:44:39Z</time>
      </trkpt>
      <trkpt lat="49.28765" lon="-0.10551">
        <ele>3.02</ele>
        <time>2019-08-21T09:44:40Z</time>
      </trkpt>
      <trkpt lat="49.28768" lon="-0.10544">
        <ele>3.02</ele>
        <time>2019-08-21T09:44:41Z</time>
      </trkpt>
      <trkpt lat="49.28775" lon="-0.10529">
        <ele>3.5</ele>
        <time>2019-08-21T09:44:43Z</time>
      </trkpt>
      <trkpt lat="49.28778" lon="-0.10521">
        <ele>3.5</ele>
        <time>2019-08-21T09:44:44Z</time>
      </trkpt>
      <trkpt lat="49.28781" lon="-0.10513">
        <ele>3.98</ele>
        <time>2019-08-21T09:44:45Z</time>
      </trkpt>
      <trkpt lat="49.28785" lon="-0.10506">
        <ele>3.98</ele>
        <time>2019-08-21T09:44:46Z</time>
      </trkpt>
      <trkpt lat="49.28789" lon="-0.10499">
        <ele>4.46</ele>
        <time>2019-08-21T09:44:47Z</time>
      </trkpt>
      <trkpt lat="49.28837" lon="-0.1042">
        <ele>6.39</ele>
        <time>2019-08-21T09:44:59Z</time>
      </trkpt>
      <trkpt lat="49.28864" lon="-0.10383">
        <ele>6.39</ele>
        <time>2019-08-21T09:45:05Z</time>
      </trkpt>
      <trkpt lat="49.28931" lon="-0.10316">
        <ele>7.35</ele>
        <time>2019-08-21T09:45:19Z</time>
      </trkpt>
      <trkpt lat="49.28953" lon="-0.10275">
        <ele>6.87</ele>
        <time>2019-08-21T09:45:25Z</time>
      </trkpt>
      <trkpt lat="49.28956" lon="-0.10267">
        <ele>6.87</ele>
        <time>2019-08-21T09:45:26Z</time>
      </trkpt>
      <trkpt lat="49.28958" lon="-0.10259">
        <ele>6.87</ele>
        <time>2019-08-21T09:45:27Z</time>
      </trkpt>
      <trkpt lat="49.28962" lon="-0.10252">
        <ele>6.87</ele>
        <time>2019-08-21T09:45:28Z</time>
      </trkpt>
      <trkpt lat="49.28966" lon="-0.10247">
        <ele>6.39</ele>
        <time>2019-08-21T09:45:29Z</time>
      </trkpt>
      <trkpt lat="49.28971" lon="-0.10242">
        <ele>6.39</ele>
        <time>2019-08-21T09:45:30Z</time>
      </trkpt>
      <trkpt lat="49.28976" lon="-0.10236">
        <ele>5.91</ele>
        <time>2019-08-21T09:45:31Z</time>
      </trkpt>
      <trkpt lat="49.2898" lon="-0.1023">
        <ele>5.42</ele>
        <time>2019-08-21T09:45:32Z</time>
      </trkpt>
      <trkpt lat="49.28984" lon="-0.10223">
        <ele>4.94</ele>
        <time>2019-08-21T09:45:33Z</time>
      </trkpt>
      <trkpt lat="49.28988" lon="-0.10217">
        <ele>4.46</ele>
        <time>2019-08-21T09:45:34Z</time>
      </trkpt>
      <trkpt lat="49.29017" lon="-0.10174">
        <ele>3.98</ele>
        <time>2019-08-21T09:45:41Z</time>
      </trkpt>
      <trkpt lat="49.29022" lon="-0.10169">
        <ele>3.98</ele>
        <time>2019-08-21T09:45:42Z</time>
      </trkpt>
      <trkpt lat="49.29072" lon="-0.10113">
        <ele>6.87</ele>
        <time>2019-08-21T09:45:52Z</time>
      </trkpt>
      <trkpt lat="49.2908" lon="-0.10099">
        <ele>6.87</ele>
        <time>2019-08-21T09:45:54Z</time>
      </trkpt>
      <trkpt lat="49.29106" lon="-0.1006">
        <ele>5.91</ele>
        <time>2019-08-21T09:46:00Z</time>
      </trkpt>
      <trkpt lat="49.2911" lon="-0.10054">
        <ele>5.42</ele>
        <time>2019-08-21T09:46:01Z</time>
      </trkpt>
      <trkpt lat="49.29127" lon="-0.10029">
        <ele>5.91</ele>
        <time>2019-08-21T09:46:05Z</time>
      </trkpt>
      <trkpt lat="49.29139" lon="-0.09994">
        <ele>5.42</ele>
        <time>2019-08-21T09:46:12Z</time>
      </trkpt>
      <trkpt lat="49.29141" lon="-0.09994">
        <ele>5.42</ele>
        <time>2019-08-21T09:46:13Z</time>
      </trkpt>
      <trkpt lat="49.29146" lon="-0.1">
        <ele>4.94</ele>
        <time>2019-08-21T09:46:15Z</time>
      </trkpt>
      <trkpt lat="49.29149" lon="-0.10006">
        <ele>4.94</ele>
        <time>2019-08-21T09:46:16Z</time>
      </trkpt>
      <trkpt lat="49.29155" lon="-0.10016">
        <ele>5.42</ele>
        <time>2019-08-21T09:46:18Z</time>
      </trkpt>
      <trkpt lat="49.29158" lon="-0.10019">
        <ele>5.42</ele>
        <time>2019-08-21T09:46:19Z</time>
      </trkpt>
      <trkpt lat="49.29163" lon="-0.10019">
        <ele>5.91</ele>
        <time>2019-08-21T09:46:20Z</time>
      </trkpt>
      <trkpt lat="49.29167" lon="-0.10017">
        <ele>5.91</ele>
        <time>2019-08-21T09:46:21Z</time>
      </trkpt>
      <trkpt lat="49.29171" lon="-0.10014">
        <ele>6.39</ele>
        <time>2019-08-21T09:46:22Z</time>
      </trkpt>
      <trkpt lat="49.29174" lon="-0.10011">
        <ele>5.91</ele>
        <time>2019-08-21T09:46:23Z</time>
      </trkpt>
      <trkpt lat="49.29176" lon="-0.10006">
        <ele>5.91</ele>
        <time>2019-08-21T09:46:24Z</time>
      </trkpt>
      <trkpt lat="49.29178" lon="-0.10001">
        <ele>5.91</ele>
        <time>2019-08-21T09:46:25Z</time>
      </trkpt>
      <trkpt lat="49.29181" lon="-0.09995">
        <ele>6.39</ele>
        <time>2019-08-21T09:46:26Z</time>
      </trkpt>
      <trkpt lat="49.29184" lon="-0.09989">
        <ele>6.39</ele>
        <time>2019-08-21T09:46:27Z</time>
      </trkpt>
      <trkpt lat="49.29187" lon="-0.09983">
        <ele>6.87</ele>
        <time>2019-08-21T09:46:28Z</time>
      </trkpt>
      <trkpt lat="49.29204" lon="-0.0995">
        <ele>6.39</ele>
        <time>2019-08-21T09:46:33Z</time>
      </trkpt>
      <trkpt lat="49.29235" lon="-0.09882">
        <ele>6.39</ele>
        <time>2019-08-21T09:46:43Z</time>
      </trkpt>
      <trkpt lat="49.29251" lon="-0.09836">
        <ele>6.39</ele>
        <time>2019-08-21T09:46:49Z</time>
      </trkpt>
      <trkpt lat="49.2929" lon="-0.09701">
        <ele>4.46</ele>
        <time>2019-08-21T09:47:06Z</time>
      </trkpt>
      <trkpt lat="49.29328" lon="-0.09574">
        <ele>4.94</ele>
        <time>2019-08-21T09:47:22Z</time>
      </trkpt>
      <trkpt lat="49.29363" lon="-0.09452">
        <ele>5.91</ele>
        <time>2019-08-21T09:47:37Z</time>
      </trkpt>
      <trkpt lat="49.29379" lon="-0.09396">
        <ele>4.94</ele>
        <time>2019-08-21T09:47:44Z</time>
      </trkpt>
      <trkpt lat="49.29412" lon="-0.09295">
        <ele>5.91</ele>
        <time>2019-08-21T09:47:58Z</time>
      </trkpt>
      <trkpt lat="49.29417" lon="-0.09288">
        <ele>5.91</ele>
        <time>2019-08-21T09:48:00Z</time>
      </trkpt>
      <trkpt lat="49.2942" lon="-0.09287">
        <ele>5.91</ele>
        <time>2019-08-21T09:48:01Z</time>
      </trkpt>
      <trkpt lat="49.29423" lon="-0.09288">
        <ele>5.91</ele>
        <time>2019-08-21T09:48:02Z</time>
      </trkpt>
      <trkpt lat="49.29426" lon="-0.09291">
        <ele>5.91</ele>
        <time>2019-08-21T09:48:03Z</time>
      </trkpt>
      <trkpt lat="49.29429" lon="-0.09293">
        <ele>5.42</ele>
        <time>2019-08-21T09:48:04Z</time>
      </trkpt>
      <trkpt lat="49.29431" lon="-0.09295">
        <ele>5.42</ele>
        <time>2019-08-21T09:48:05Z</time>
      </trkpt>
      <trkpt lat="49.29433" lon="-0.09297">
        <ele>5.91</ele>
        <time>2019-08-21T09:48:06Z</time>
      </trkpt>
      <trkpt lat="49.29441" lon="-0.09297">
        <ele>6.39</ele>
        <time>2019-08-21T09:48:09Z</time>
      </trkpt>
      <trkpt lat="49.29443" lon="-0.09294">
        <ele>6.39</ele>
        <time>2019-08-21T09:48:10Z</time>
      </trkpt>
      <trkpt lat="49.29445" lon="-0.09291">
        <ele>6.39</ele>
        <time>2019-08-21T09:48:11Z</time>
      </trkpt>
      <trkpt lat="49.29447" lon="-0.09287">
        <ele>6.39</ele>
        <time>2019-08-21T09:48:12Z</time>
      </trkpt>
      <trkpt lat="49.29448" lon="-0.09284">
        <ele>5.91</ele>
        <time>2019-08-21T09:48:13Z</time>
      </trkpt>
      <trkpt lat="49.2945" lon="-0.09281">
        <ele>5.91</ele>
        <time>2019-08-21T09:48:14Z</time>
      </trkpt>
      <trkpt lat="49.29452" lon="-0.09278">
        <ele>5.91</ele>
        <time>2019-08-21T09:48:15Z</time>
      </trkpt>
      <trkpt lat="49.29453" lon="-0.09274">
        <ele>5.91</ele>
        <time>2019-08-21T09:48:16Z</time>
      </trkpt>
      <trkpt lat="49.29455" lon="-0.09271">
        <ele>5.91</ele>
        <time>2019-08-21T09:48:17Z</time>
      </trkpt>
      <trkpt lat="49.29457" lon="-0.09268">
        <ele>5.91</ele>
        <time>2019-08-21T09:48:18Z</time>
      </trkpt>
      <trkpt lat="49.29456" lon="-0.09238">
        <ele>5.42</ele>
        <time>2019-08-21T09:48:28Z</time>
      </trkpt>
      <trkpt lat="49.29443" lon="-0.09203">
        <ele>2.54</ele>
        <time>2019-08-21T09:48:40Z</time>
      </trkpt>
      <trkpt lat="49.29438" lon="-0.09197">
        <ele>2.54</ele>
        <time>2019-08-21T09:48:50Z</time>
      </trkpt>
      <trkpt lat="49.29437" lon="-0.09196">
        <ele>2.54</ele>
        <time>2019-08-21T09:48:55Z</time>
      </trkpt>
      <trkpt lat="49.29444" lon="-0.09173">
        <ele>2.54</ele>
        <time>2019-08-21T09:49:01Z</time>
      </trkpt>
      <trkpt lat="49.29447" lon="-0.09171">
        <ele>2.06</ele>
        <time>2019-08-21T09:49:02Z</time>
      </trkpt>
      <trkpt lat="49.29451" lon="-0.0917">
        <ele>2.54</ele>
        <time>2019-08-21T09:49:03Z</time>
      </trkpt>
      <trkpt lat="49.29454" lon="-0.0917">
        <ele>2.54</ele>
        <time>2019-08-21T09:49:04Z</time>
      </trkpt>
      <trkpt lat="49.29458" lon="-0.0917">
        <ele>2.54</ele>
        <time>2019-08-21T09:49:05Z</time>
      </trkpt>
      <trkpt lat="49.29479" lon="-0.09157">
        <ele>3.5</ele>
        <time>2019-08-21T09:49:14Z</time>
      </trkpt>
      <trkpt lat="49.29493" lon="-0.0912">
        <ele>2.54</ele>
        <time>2019-08-21T09:49:27Z</time>
      </trkpt>
      <trkpt lat="49.29497" lon="-0.09112">
        <ele>2.54</ele>
        <time>2019-08-21T09:49:30Z</time>
      </trkpt>
      <trkpt lat="49.29498" lon="-0.09109">
        <ele>2.54</ele>
        <time>2019-08-21T09:49:31Z</time>
      </trkpt>
      <trkpt lat="49.29497" lon="-0.09106">
        <ele>2.54</ele>
        <time>2019-08-21T09:49:32Z</time>
      </trkpt>
      <trkpt lat="49.29497" lon="-0.09104">
        <ele>2.54</ele>
        <time>2019-08-21T09:49:33Z</time>
      </trkpt>
      <trkpt lat="49.29498" lon="-0.09101">
        <ele>2.54</ele>
        <time>2019-08-21T09:49:34Z</time>
      </trkpt>
      <trkpt lat="49.29496" lon="-0.09059">
        <ele>2.06</ele>
        <time>2019-08-21T09:49:44Z</time>
      </trkpt>
      <trkpt lat="49.29495" lon="-0.09055">
        <ele>2.06</ele>
        <time>2019-08-21T09:49:45Z</time>
      </trkpt>
      <trkpt lat="49.29494" lon="-0.09052">
        <ele>2.06</ele>
        <time>2019-08-21T09:49:46Z</time>
      </trkpt>
      <trkpt lat="49.29492" lon="-0.09052">
        <ele>2.06</ele>
        <time>2019-08-21T09:49:47Z</time>
      </trkpt>
      <trkpt lat="49.2949" lon="-0.09053">
        <ele>1.58</ele>
        <time>2019-08-21T09:49:48Z</time>
      </trkpt>
      <trkpt lat="49.29488" lon="-0.09055">
        <ele>1.58</ele>
        <time>2019-08-21T09:49:49Z</time>
      </trkpt>
      <trkpt lat="49.29486" lon="-0.09058">
        <ele>1.1</ele>
        <time>2019-08-21T09:49:50Z</time>
      </trkpt>
      <trkpt lat="49.29485" lon="-0.09062">
        <ele>1.1</ele>
        <time>2019-08-21T09:49:51Z</time>
      </trkpt>
      <trkpt lat="49.29482" lon="-0.09064">
        <ele>1.1</ele>
        <time>2019-08-21T09:49:52Z</time>
      </trkpt>
      <trkpt lat="49.29479" lon="-0.09065">
        <ele>1.1</ele>
        <time>2019-08-21T09:49:53Z</time>
      </trkpt>
      <trkpt lat="49.29476" lon="-0.09066">
        <ele>1.1</ele>
        <time>2019-08-21T09:49:54Z</time>
      </trkpt>
      <trkpt lat="49.29473" lon="-0.09066">
        <ele>1.58</ele>
        <time>2019-08-21T09:49:55Z</time>
      </trkpt>
      <trkpt lat="49.2947" lon="-0.09066">
        <ele>1.58</ele>
        <time>2019-08-21T09:49:56Z</time>
      </trkpt>
      <trkpt lat="49.2944" lon="-0.09065">
        <ele>3.02</ele>
        <time>2019-08-21T09:50:07Z</time>
      </trkpt>
      <trkpt lat="49.29439" lon="-0.09064">
        <ele>3.98</ele>
        <time>2019-08-21T09:50:15Z</time>
      </trkpt>
      <trkpt lat="49.29439" lon="-0.09062">
        <ele>3.5</ele>
        <time>2019-08-21T09:50:16Z</time>
      </trkpt>
      <trkpt lat="49.29442" lon="-0.09054">
        <ele>3.02</ele>
        <time>2019-08-21T09:50:28Z</time>
      </trkpt>
      <trkpt lat="49.29442" lon="-0.09053">
        <ele>3.5</ele>
        <time>2019-08-21T09:50:31Z</time>
      </trkpt>
      <trkpt lat="49.29442" lon="-0.09042">
        <ele>4.46</ele>
        <time>2019-08-21T09:50:35Z</time>
      </trkpt>
      <trkpt lat="49.29443" lon="-0.0904">
        <ele>4.46</ele>
        <time>2019-08-21T09:50:36Z</time>
      </trkpt>
      <trkpt lat="49.29444" lon="-0.09039">
        <ele>4.46</ele>
        <time>2019-08-21T09:50:37Z</time>
      </trkpt>
      <trkpt lat="49.29445" lon="-0.09036">
        <ele>3.98</ele>
        <time>2019-08-21T09:50:38Z</time>
      </trkpt>
      <trkpt lat="49.29446" lon="-0.09032">
        <ele>3.98</ele>
        <time>2019-08-21T09:50:39Z</time>
      </trkpt>
      <trkpt lat="49.29447" lon="-0.09026">
        <ele>3.5</ele>
        <time>2019-08-21T09:50:40Z</time>
      </trkpt>
      <trkpt lat="49.29449" lon="-0.0902">
        <ele>3.5</ele>
        <time>2019-08-21T09:50:41Z</time>
      </trkpt>
      <trkpt lat="49.29453" lon="-0.09015">
        <ele>3.02</ele>
        <time>2019-08-21T09:50:42Z</time>
      </trkpt>
      <trkpt lat="49.29456" lon="-0.09009">
        <ele>3.02</ele>
        <time>2019-08-21T09:50:43Z</time>
      </trkpt>
      <trkpt lat="49.29473" lon="-0.08976">
        <ele>3.02</ele>
        <time>2019-08-21T09:50:48Z</time>
      </trkpt>
      <trkpt lat="49.29476" lon="-0.08968">
        <ele>3.02</ele>
        <time>2019-08-21T09:50:49Z</time>
      </trkpt>
      <trkpt lat="49.29522" lon="-0.08848">
        <ele>3.02</ele>
        <time>2019-08-21T09:51:04Z</time>
      </trkpt>
      <trkpt lat="49.29593" lon="-0.08756">
        <ele>3.5</ele>
        <time>2019-08-21T09:51:19Z</time>
      </trkpt>
      <trkpt lat="49.2969" lon="-0.08678">
        <ele>3.02</ele>
        <time>2019-08-21T09:51:36Z</time>
      </trkpt>
      <trkpt lat="49.29765" lon="-0.08601">
        <ele>2.06</ele>
        <time>2019-08-21T09:51:51Z</time>
      </trkpt>
      <trkpt lat="49.29849" lon="-0.08514">
        <ele>2.54</ele>
        <time>2019-08-21T09:52:09Z</time>
      </trkpt>
      <trkpt lat="49.299" lon="-0.08463">
        <ele>3.02</ele>
        <time>2019-08-21T09:52:22Z</time>
      </trkpt>
      <trkpt lat="49.29914" lon="-0.08452">
        <ele>5.42</ele>
        <time>2019-08-21T09:52:33Z</time>
      </trkpt>
      <trkpt lat="49.29919" lon="-0.08448">
        <ele>9.75</ele>
        <time>2019-08-21T09:53:00Z</time>
      </trkpt>
      <trkpt lat="49.29943" lon="-0.08426">
        <ele>9.27</ele>
        <time>2019-08-21T09:53:06Z</time>
      </trkpt>
      <trkpt lat="49.29947" lon="-0.08423">
        <ele>9.27</ele>
        <time>2019-08-21T09:53:07Z</time>
      </trkpt>
      <trkpt lat="49.2996" lon="-0.08407">
        <ele>9.27</ele>
        <time>2019-08-21T09:53:10Z</time>
      </trkpt>
      <trkpt lat="49.29963" lon="-0.084">
        <ele>8.79</ele>
        <time>2019-08-21T09:53:11Z</time>
      </trkpt>
      <trkpt lat="49.29966" lon="-0.08393">
        <ele>8.79</ele>
        <time>2019-08-21T09:53:12Z</time>
      </trkpt>
      <trkpt lat="49.2997" lon="-0.08388">
        <ele>8.79</ele>
        <time>2019-08-21T09:53:13Z</time>
      </trkpt>
      <trkpt lat="49.29975" lon="-0.08384">
        <ele>8.79</ele>
        <time>2019-08-21T09:53:14Z</time>
      </trkpt>
      <trkpt lat="49.2998" lon="-0.0838">
        <ele>8.79</ele>
        <time>2019-08-21T09:53:15Z</time>
      </trkpt>
      <trkpt lat="49.30051" lon="-0.08313">
        <ele>8.31</ele>
        <time>2019-08-21T09:53:28Z</time>
      </trkpt>
      <trkpt lat="49.30125" lon="-0.08236">
        <ele>6.39</ele>
        <time>2019-08-21T09:53:42Z</time>
      </trkpt>
      <trkpt lat="49.30132" lon="-0.08226">
        <ele>6.87</ele>
        <time>2019-08-21T09:53:44Z</time>
      </trkpt>
      <trkpt lat="49.30132" lon="-0.0822">
        <ele>6.87</ele>
        <time>2019-08-21T09:53:45Z</time>
      </trkpt>
      <trkpt lat="49.3013" lon="-0.08214">
        <ele>6.39</ele>
        <time>2019-08-21T09:53:46Z</time>
      </trkpt>
      <trkpt lat="49.30124" lon="-0.08203">
        <ele>6.39</ele>
        <time>2019-08-21T09:53:48Z</time>
      </trkpt>
      <trkpt lat="49.30122" lon="-0.08196">
        <ele>6.39</ele>
        <time>2019-08-21T09:53:49Z</time>
      </trkpt>
      <trkpt lat="49.3012" lon="-0.08189">
        <ele>6.39</ele>
        <time>2019-08-21T09:53:50Z</time>
      </trkpt>
      <trkpt lat="49.30117" lon="-0.08182">
        <ele>5.91</ele>
        <time>2019-08-21T09:53:51Z</time>
      </trkpt>
      <trkpt lat="49.30114" lon="-0.08175">
        <ele>5.91</ele>
        <time>2019-08-21T09:53:52Z</time>
      </trkpt>
      <trkpt lat="49.30109" lon="-0.08161">
        <ele>6.39</ele>
        <time>2019-08-21T09:53:54Z</time>
      </trkpt>
      <trkpt lat="49.30105" lon="-0.08146">
        <ele>6.39</ele>
        <time>2019-08-21T09:53:56Z</time>
      </trkpt>
      <trkpt lat="49.30103" lon="-0.08138">
        <ele>6.39</ele>
        <time>2019-08-21T09:53:57Z</time>
      </trkpt>
      <trkpt lat="49.30093" lon="-0.0811">
        <ele>5.42</ele>
        <time>2019-08-21T09:54:01Z</time>
      </trkpt>
      <trkpt lat="49.3009" lon="-0.08104">
        <ele>5.42</ele>
        <time>2019-08-21T09:54:02Z</time>
      </trkpt>
      <trkpt lat="49.30074" lon="-0.08073">
        <ele>5.42</ele>
        <time>2019-08-21T09:54:07Z</time>
      </trkpt>
      <trkpt lat="49.30071" lon="-0.08068">
        <ele>5.42</ele>
        <time>2019-08-21T09:54:08Z</time>
      </trkpt>
      <trkpt lat="49.30069" lon="-0.08061">
        <ele>4.94</ele>
        <time>2019-08-21T09:54:09Z</time>
      </trkpt>
      <trkpt lat="49.30066" lon="-0.08048">
        <ele>4.46</ele>
        <time>2019-08-21T09:54:11Z</time>
      </trkpt>
      <trkpt lat="49.30066" lon="-0.08041">
        <ele>3.98</ele>
        <time>2019-08-21T09:54:12Z</time>
      </trkpt>
      <trkpt lat="49.30066" lon="-0.08035">
        <ele>3.98</ele>
        <time>2019-08-21T09:54:13Z</time>
      </trkpt>
      <trkpt lat="49.30067" lon="-0.08028">
        <ele>3.98</ele>
        <time>2019-08-21T09:54:14Z</time>
      </trkpt>
      <trkpt lat="49.30067" lon="-0.08022">
        <ele>4.46</ele>
        <time>2019-08-21T09:54:15Z</time>
      </trkpt>
      <trkpt lat="49.30068" lon="-0.08014">
        <ele>4.46</ele>
        <time>2019-08-21T09:54:16Z</time>
      </trkpt>
      <trkpt lat="49.30067" lon="-0.07944">
        <ele>4.94</ele>
        <time>2019-08-21T09:54:25Z</time>
      </trkpt>
      <trkpt lat="49.30067" lon="-0.07937">
        <ele>4.94</ele>
        <time>2019-08-21T09:54:26Z</time>
      </trkpt>
      <trkpt lat="49.30065" lon="-0.07917">
        <ele>5.91</ele>
        <time>2019-08-21T09:54:31Z</time>
      </trkpt>
      <trkpt lat="49.30065" lon="-0.07915">
        <ele>6.39</ele>
        <time>2019-08-21T09:54:32Z</time>
      </trkpt>
      <trkpt lat="49.30065" lon="-0.07912">
        <ele>6.39</ele>
        <time>2019-08-21T09:54:33Z</time>
      </trkpt>
      <trkpt lat="49.30065" lon="-0.07908">
        <ele>6.87</ele>
        <time>2019-08-21T09:54:34Z</time>
      </trkpt>
      <trkpt lat="49.30065" lon="-0.07904">
        <ele>6.87</ele>
        <time>2019-08-21T09:54:35Z</time>
      </trkpt>
      <trkpt lat="49.30064" lon="-0.07898">
        <ele>7.35</ele>
        <time>2019-08-21T09:54:36Z</time>
      </trkpt>
      <trkpt lat="49.30063" lon="-0.07892">
        <ele>7.35</ele>
        <time>2019-08-21T09:54:37Z</time>
      </trkpt>
      <trkpt lat="49.30062" lon="-0.07885">
        <ele>6.87</ele>
        <time>2019-08-21T09:54:38Z</time>
      </trkpt>
      <trkpt lat="49.30057" lon="-0.07856">
        <ele>6.39</ele>
        <time>2019-08-21T09:54:42Z</time>
      </trkpt>
      <trkpt lat="49.30055" lon="-0.07849">
        <ele>6.39</ele>
        <time>2019-08-21T09:54:43Z</time>
      </trkpt>
      <trkpt lat="49.30044" lon="-0.07782">
        <ele>8.31</ele>
        <time>2019-08-21T09:54:52Z</time>
      </trkpt>
      <trkpt lat="49.30042" lon="-0.07775">
        <ele>7.83</ele>
        <time>2019-08-21T09:54:53Z</time>
      </trkpt>
      <trkpt lat="49.3004" lon="-0.07768">
        <ele>7.83</ele>
        <time>2019-08-21T09:54:54Z</time>
      </trkpt>
      <trkpt lat="49.30038" lon="-0.07762">
        <ele>8.31</ele>
        <time>2019-08-21T09:54:55Z</time>
      </trkpt>
      <trkpt lat="49.30037" lon="-0.07755">
        <ele>8.31</ele>
        <time>2019-08-21T09:54:56Z</time>
      </trkpt>
      <trkpt lat="49.30027" lon="-0.07697">
        <ele>8.79</ele>
        <time>2019-08-21T09:55:07Z</time>
      </trkpt>
      <trkpt lat="49.30028" lon="-0.07693">
        <ele>8.79</ele>
        <time>2019-08-21T09:55:08Z</time>
      </trkpt>
      <trkpt lat="49.30029" lon="-0.07689">
        <ele>8.31</ele>
        <time>2019-08-21T09:55:09Z</time>
      </trkpt>
      <trkpt lat="49.30032" lon="-0.07687">
        <ele>8.31</ele>
        <time>2019-08-21T09:55:10Z</time>
      </trkpt>
      <trkpt lat="49.30035" lon="-0.07684">
        <ele>8.79</ele>
        <time>2019-08-21T09:55:11Z</time>
      </trkpt>
      <trkpt lat="49.30045" lon="-0.0767">
        <ele>7.83</ele>
        <time>2019-08-21T09:55:15Z</time>
      </trkpt>
      <trkpt lat="49.30048" lon="-0.07667">
        <ele>6.87</ele>
        <time>2019-08-21T09:55:16Z</time>
      </trkpt>
      <trkpt lat="49.30051" lon="-0.07663">
        <ele>6.87</ele>
        <time>2019-08-21T09:55:17Z</time>
      </trkpt>
      <trkpt lat="49.30058" lon="-0.07653">
        <ele>6.39</ele>
        <time>2019-08-21T09:55:21Z</time>
      </trkpt>
      <trkpt lat="49.30059" lon="-0.07651">
        <ele>6.39</ele>
        <time>2019-08-21T09:55:22Z</time>
      </trkpt>
      <trkpt lat="49.30061" lon="-0.07646">
        <ele>6.87</ele>
        <time>2019-08-21T09:55:23Z</time>
      </trkpt>
      <trkpt lat="49.30061" lon="-0.07641">
        <ele>6.87</ele>
        <time>2019-08-21T09:55:24Z</time>
      </trkpt>
      <trkpt lat="49.30061" lon="-0.07635">
        <ele>7.35</ele>
        <time>2019-08-21T09:55:25Z</time>
      </trkpt>
      <trkpt lat="49.30061" lon="-0.07629">
        <ele>7.35</ele>
        <time>2019-08-21T09:55:26Z</time>
      </trkpt>
      <trkpt lat="49.3006" lon="-0.07622">
        <ele>7.35</ele>
        <time>2019-08-21T09:55:27Z</time>
      </trkpt>
      <trkpt lat="49.30059" lon="-0.07615">
        <ele>7.35</ele>
        <time>2019-08-21T09:55:28Z</time>
      </trkpt>
      <trkpt lat="49.30058" lon="-0.07608">
        <ele>7.35</ele>
        <time>2019-08-21T09:55:29Z</time>
      </trkpt>
      <trkpt lat="49.30057" lon="-0.07565">
        <ele>7.35</ele>
        <time>2019-08-21T09:55:35Z</time>
      </trkpt>
      <trkpt lat="49.30057" lon="-0.07544">
        <ele>6.87</ele>
        <time>2019-08-21T09:55:39Z</time>
      </trkpt>
      <trkpt lat="49.30055" lon="-0.07543">
        <ele>6.87</ele>
        <time>2019-08-21T09:55:40Z</time>
      </trkpt>
      <trkpt lat="49.30054" lon="-0.07541">
        <ele>6.87</ele>
        <time>2019-08-21T09:55:41Z</time>
      </trkpt>
      <trkpt lat="49.30052" lon="-0.07541">
        <ele>6.39</ele>
        <time>2019-08-21T09:55:42Z</time>
      </trkpt>
      <trkpt lat="49.30049" lon="-0.07542">
        <ele>6.39</ele>
        <time>2019-08-21T09:55:43Z</time>
      </trkpt>
      <trkpt lat="49.30046" lon="-0.07544">
        <ele>6.39</ele>
        <time>2019-08-21T09:55:44Z</time>
      </trkpt>
      <trkpt lat="49.30029" lon="-0.07554">
        <ele>7.35</ele>
        <time>2019-08-21T09:55:50Z</time>
      </trkpt>
      <trkpt lat="49.3002" lon="-0.07556">
        <ele>7.35</ele>
        <time>2019-08-21T09:55:52Z</time>
      </trkpt>
      <trkpt lat="49.30015" lon="-0.0756">
        <ele>7.83</ele>
        <time>2019-08-21T09:55:53Z</time>
      </trkpt>
      <trkpt lat="49.3001" lon="-0.07563">
        <ele>7.83</ele>
        <time>2019-08-21T09:55:54Z</time>
      </trkpt>
      <trkpt lat="49.29986" lon="-0.07581">
        <ele>7.83</ele>
        <time>2019-08-21T09:55:59Z</time>
      </trkpt>
      <trkpt lat="49.29969" lon="-0.0759">
        <ele>7.35</ele>
        <time>2019-08-21T09:56:02Z</time>
      </trkpt>
      <trkpt lat="49.29937" lon="-0.07611">
        <ele>7.35</ele>
        <time>2019-08-21T09:56:08Z</time>
      </trkpt>
      <trkpt lat="49.2991" lon="-0.07628">
        <ele>7.83</ele>
        <time>2019-08-21T09:56:13Z</time>
      </trkpt>
      <trkpt lat="49.29876" lon="-0.07643">
        <ele>7.83</ele>
        <time>2019-08-21T09:56:19Z</time>
      </trkpt>
      <trkpt lat="49.29866" lon="-0.07649">
        <ele>7.83</ele>
        <time>2019-08-21T09:56:21Z</time>
      </trkpt>
      <trkpt lat="49.29863" lon="-0.07651">
        <ele>7.83</ele>
        <time>2019-08-21T09:56:22Z</time>
      </trkpt>
      <trkpt lat="49.2986" lon="-0.0765">
        <ele>7.83</ele>
        <time>2019-08-21T09:56:23Z</time>
      </trkpt>
      <trkpt lat="49.2986" lon="-0.07647">
        <ele>7.83</ele>
        <time>2019-08-21T09:56:24Z</time>
      </trkpt>
      <trkpt lat="49.29861" lon="-0.07645">
        <ele>7.83</ele>
        <time>2019-08-21T09:56:25Z</time>
      </trkpt>
      <trkpt lat="49.29864" lon="-0.07643">
        <ele>7.83</ele>
        <time>2019-08-21T09:56:26Z</time>
      </trkpt>
      <trkpt lat="49.29867" lon="-0.07642">
        <ele>8.31</ele>
        <time>2019-08-21T09:56:27Z</time>
      </trkpt>
      <trkpt lat="49.29871" lon="-0.07641">
        <ele>8.31</ele>
        <time>2019-08-21T09:56:28Z</time>
      </trkpt>
      <trkpt lat="49.29874" lon="-0.07639">
        <ele>8.31</ele>
        <time>2019-08-21T09:56:29Z</time>
      </trkpt>
      <trkpt lat="49.29877" lon="-0.07637">
        <ele>8.79</ele>
        <time>2019-08-21T09:56:30Z</time>
      </trkpt>
      <trkpt lat="49.29878" lon="-0.07633">
        <ele>8.79</ele>
        <time>2019-08-21T09:56:31Z</time>
      </trkpt>
      <trkpt lat="49.29879" lon="-0.07628">
        <ele>9.27</ele>
        <time>2019-08-21T09:56:32Z</time>
      </trkpt>
      <trkpt lat="49.29878" lon="-0.07622">
        <ele>9.27</ele>
        <time>2019-08-21T09:56:33Z</time>
      </trkpt>
      <trkpt lat="49.29877" lon="-0.07616">
        <ele>9.27</ele>
        <time>2019-08-21T09:56:34Z</time>
      </trkpt>
      <trkpt lat="49.29875" lon="-0.07608">
        <ele>9.27</ele>
        <time>2019-08-21T09:56:35Z</time>
      </trkpt>
      <trkpt lat="49.29848" lon="-0.07504">
        <ele>8.79</ele>
        <time>2019-08-21T09:56:49Z</time>
      </trkpt>
      <trkpt lat="49.29831" lon="-0.07443">
        <ele>8.79</ele>
        <time>2019-08-21T09:56:57Z</time>
      </trkpt>
      <trkpt lat="49.29827" lon="-0.07436">
        <ele>8.79</ele>
        <time>2019-08-21T09:56:58Z</time>
      </trkpt>
      <trkpt lat="49.29823" lon="-0.0743">
        <ele>8.79</ele>
        <time>2019-08-21T09:56:59Z</time>
      </trkpt>
      <trkpt lat="49.29772" lon="-0.0734">
        <ele>9.75</ele>
        <time>2019-08-21T09:57:13Z</time>
      </trkpt>
      <trkpt lat="49.2977" lon="-0.07333">
        <ele>9.75</ele>
        <time>2019-08-21T09:57:14Z</time>
      </trkpt>
      <trkpt lat="49.2975" lon="-0.07246">
        <ele>11.19</ele>
        <time>2019-08-21T09:57:25Z</time>
      </trkpt>
      <trkpt lat="49.29747" lon="-0.07239">
        <ele>11.19</ele>
        <time>2019-08-21T09:57:26Z</time>
      </trkpt>
      <trkpt lat="49.29744" lon="-0.07232">
        <ele>11.67</ele>
        <time>2019-08-21T09:57:27Z</time>
      </trkpt>
      <trkpt lat="49.29732" lon="-0.07206">
        <ele>12.63</ele>
        <time>2019-08-21T09:57:31Z</time>
      </trkpt>
      <trkpt lat="49.2973" lon="-0.07201">
        <ele>13.12</ele>
        <time>2019-08-21T09:57:32Z</time>
      </trkpt>
      <trkpt lat="49.29728" lon="-0.07194">
        <ele>13.6</ele>
        <time>2019-08-21T09:57:33Z</time>
      </trkpt>
      <trkpt lat="49.29726" lon="-0.07188">
        <ele>14.08</ele>
        <time>2019-08-21T09:57:34Z</time>
      </trkpt>
      <trkpt lat="49.29726" lon="-0.07182">
        <ele>14.08</ele>
        <time>2019-08-21T09:57:35Z</time>
      </trkpt>
      <trkpt lat="49.29725" lon="-0.07177">
        <ele>14.56</ele>
        <time>2019-08-21T09:57:36Z</time>
      </trkpt>
      <trkpt lat="49.29719" lon="-0.07164">
        <ele>14.08</ele>
        <time>2019-08-21T09:57:40Z</time>
      </trkpt>
      <trkpt lat="49.29712" lon="-0.07157">
        <ele>13.6</ele>
        <time>2019-08-21T09:57:42Z</time>
      </trkpt>
      <trkpt lat="49.29656" lon="-0.07094">
        <ele>13.12</ele>
        <time>2019-08-21T09:57:55Z</time>
      </trkpt>
      <trkpt lat="49.29578" lon="-0.07002">
        <ele>12.63</ele>
        <time>2019-08-21T09:58:13Z</time>
      </trkpt>
      <trkpt lat="49.29512" lon="-0.06895">
        <ele>13.6</ele>
        <time>2019-08-21T09:58:30Z</time>
      </trkpt>
      <trkpt lat="49.29474" lon="-0.06775">
        <ele>14.56</ele>
        <time>2019-08-21T09:58:46Z</time>
      </trkpt>
      <trkpt lat="49.29471" lon="-0.06743">
        <ele>15.04</ele>
        <time>2019-08-21T09:58:50Z</time>
      </trkpt>
      <trkpt lat="49.29471" lon="-0.06735">
        <ele>15.04</ele>
        <time>2019-08-21T09:58:51Z</time>
      </trkpt>
      <trkpt lat="49.2947" lon="-0.06727">
        <ele>15.52</ele>
        <time>2019-08-21T09:58:52Z</time>
      </trkpt>
      <trkpt lat="49.29469" lon="-0.06719">
        <ele>15.52</ele>
        <time>2019-08-21T09:58:53Z</time>
      </trkpt>
      <trkpt lat="49.29466" lon="-0.06712">
        <ele>16</ele>
        <time>2019-08-21T09:58:54Z</time>
      </trkpt>
      <trkpt lat="49.29465" lon="-0.06705">
        <ele>16.48</ele>
        <time>2019-08-21T09:58:55Z</time>
      </trkpt>
      <trkpt lat="49.29465" lon="-0.06698">
        <ele>16.48</ele>
        <time>2019-08-21T09:58:56Z</time>
      </trkpt>
      <trkpt lat="49.29468" lon="-0.06691">
        <ele>16.48</ele>
        <time>2019-08-21T09:58:57Z</time>
      </trkpt>
      <trkpt lat="49.29473" lon="-0.06676">
        <ele>16.96</ele>
        <time>2019-08-21T09:58:59Z</time>
      </trkpt>
      <trkpt lat="49.29474" lon="-0.06668">
        <ele>16.96</ele>
        <time>2019-08-21T09:59:00Z</time>
      </trkpt>
      <trkpt lat="49.29498" lon="-0.06548">
        <ele>19.36</ele>
        <time>2019-08-21T09:59:15Z</time>
      </trkpt>
      <trkpt lat="49.29531" lon="-0.06389">
        <ele>20.81</ele>
        <time>2019-08-21T09:59:34Z</time>
      </trkpt>
      <trkpt lat="49.29535" lon="-0.06373">
        <ele>20.81</ele>
        <time>2019-08-21T09:59:36Z</time>
      </trkpt>
      <trkpt lat="49.29539" lon="-0.06365">
        <ele>20.81</ele>
        <time>2019-08-21T09:59:37Z</time>
      </trkpt>
      <trkpt lat="49.29564" lon="-0.06313">
        <ele>20.81</ele>
        <time>2019-08-21T09:59:44Z</time>
      </trkpt>
      <trkpt lat="49.29567" lon="-0.06304">
        <ele>20.81</ele>
        <time>2019-08-21T09:59:45Z</time>
      </trkpt>
      <trkpt lat="49.29573" lon="-0.06277">
        <ele>21.29</ele>
        <time>2019-08-21T09:59:48Z</time>
      </trkpt>
      <trkpt lat="49.29572" lon="-0.06155">
        <ele>21.77</ele>
        <time>2019-08-21T10:00:02Z</time>
      </trkpt>
      <trkpt lat="49.29562" lon="-0.06015">
        <ele>22.25</ele>
        <time>2019-08-21T10:00:19Z</time>
      </trkpt>
      <trkpt lat="49.29562" lon="-0.05974">
        <ele>22.25</ele>
        <time>2019-08-21T10:00:24Z</time>
      </trkpt>
      <trkpt lat="49.29553" lon="-0.05847">
        <ele>21.29</ele>
        <time>2019-08-21T10:00:39Z</time>
      </trkpt>
      <trkpt lat="49.29541" lon="-0.05738">
        <ele>23.21</ele>
        <time>2019-08-21T10:00:52Z</time>
      </trkpt>
      <trkpt lat="49.29523" lon="-0.0566">
        <ele>22.73</ele>
        <time>2019-08-21T10:01:02Z</time>
      </trkpt>
      <trkpt lat="49.29521" lon="-0.05652">
        <ele>22.73</ele>
        <time>2019-08-21T10:01:03Z</time>
      </trkpt>
      <trkpt lat="49.29519" lon="-0.05645">
        <ele>22.73</ele>
        <time>2019-08-21T10:01:04Z</time>
      </trkpt>
      <trkpt lat="49.29515" lon="-0.05629">
        <ele>23.21</ele>
        <time>2019-08-21T10:01:06Z</time>
      </trkpt>
      <trkpt lat="49.29497" lon="-0.05551">
        <ele>22.73</ele>
        <time>2019-08-21T10:01:16Z</time>
      </trkpt>
      <trkpt lat="49.29495" lon="-0.05536">
        <ele>22.73</ele>
        <time>2019-08-21T10:01:18Z</time>
      </trkpt>
      <trkpt lat="49.29492" lon="-0.05515">
        <ele>22.73</ele>
        <time>2019-08-21T10:01:21Z</time>
      </trkpt>
      <trkpt lat="49.29492" lon="-0.05508">
        <ele>22.73</ele>
        <time>2019-08-21T10:01:22Z</time>
      </trkpt>
      <trkpt lat="49.29492" lon="-0.05494">
        <ele>22.73</ele>
        <time>2019-08-21T10:01:24Z</time>
      </trkpt>
      <trkpt lat="49.29491" lon="-0.05472">
        <ele>24.17</ele>
        <time>2019-08-21T10:01:27Z</time>
      </trkpt>
      <trkpt lat="49.2949" lon="-0.05465">
        <ele>24.17</ele>
        <time>2019-08-21T10:01:28Z</time>
      </trkpt>
      <trkpt lat="49.29489" lon="-0.05458">
        <ele>24.65</ele>
        <time>2019-08-21T10:01:29Z</time>
      </trkpt>
      <trkpt lat="49.29489" lon="-0.05451">
        <ele>25.13</ele>
        <time>2019-08-21T10:01:30Z</time>
      </trkpt>
      <trkpt lat="49.29489" lon="-0.05444">
        <ele>25.13</ele>
        <time>2019-08-21T10:01:31Z</time>
      </trkpt>
      <trkpt lat="49.29488" lon="-0.05437">
        <ele>25.61</ele>
        <time>2019-08-21T10:01:32Z</time>
      </trkpt>
      <trkpt lat="49.29479" lon="-0.0536">
        <ele>29.46</ele>
        <time>2019-08-21T10:01:43Z</time>
      </trkpt>
      <trkpt lat="49.29474" lon="-0.0534">
        <ele>29.94</ele>
        <time>2019-08-21T10:01:46Z</time>
      </trkpt>
      <trkpt lat="49.29444" lon="-0.05262">
        <ele>32.34</ele>
        <time>2019-08-21T10:01:59Z</time>
      </trkpt>
      <trkpt lat="49.29407" lon="-0.05166">
        <ele>34.74</ele>
        <time>2019-08-21T10:02:15Z</time>
      </trkpt>
      <trkpt lat="49.29391" lon="-0.05097">
        <ele>36.67</ele>
        <time>2019-08-21T10:02:25Z</time>
      </trkpt>
      <trkpt lat="49.2939" lon="-0.0509">
        <ele>36.67</ele>
        <time>2019-08-21T10:02:26Z</time>
      </trkpt>
      <trkpt lat="49.29362" lon="-0.04994">
        <ele>35.23</ele>
        <time>2019-08-21T10:02:38Z</time>
      </trkpt>
      <trkpt lat="49.29343" lon="-0.04944">
        <ele>34.26</ele>
        <time>2019-08-21T10:02:44Z</time>
      </trkpt>
      <trkpt lat="49.29294" lon="-0.04855">
        <ele>33.78</ele>
        <time>2019-08-21T10:02:57Z</time>
      </trkpt>
      <trkpt lat="49.29254" lon="-0.04795">
        <ele>35.71</ele>
        <time>2019-08-21T10:03:08Z</time>
      </trkpt>
      <trkpt lat="49.29251" lon="-0.04789">
        <ele>35.71</ele>
        <time>2019-08-21T10:03:09Z</time>
      </trkpt>
      <trkpt lat="49.29249" lon="-0.04783">
        <ele>36.19</ele>
        <time>2019-08-21T10:03:10Z</time>
      </trkpt>
      <trkpt lat="49.29237" lon="-0.04734">
        <ele>37.63</ele>
        <time>2019-08-21T10:03:20Z</time>
      </trkpt>
      <trkpt lat="49.2923" lon="-0.04667">
        <ele>41.95</ele>
        <time>2019-08-21T10:03:32Z</time>
      </trkpt>
      <trkpt lat="49.29232" lon="-0.04616">
        <ele>47.72</ele>
        <time>2019-08-21T10:03:43Z</time>
      </trkpt>
      <trkpt lat="49.29234" lon="-0.0457">
        <ele>50.13</ele>
        <time>2019-08-21T10:03:53Z</time>
      </trkpt>
      <trkpt lat="49.29241" lon="-0.04533">
        <ele>50.13</ele>
        <time>2019-08-21T10:04:03Z</time>
      </trkpt>
      <trkpt lat="49.29242" lon="-0.04511">
        <ele>49.16</ele>
        <time>2019-08-21T10:04:09Z</time>
      </trkpt>
      <trkpt lat="49.29243" lon="-0.04508">
        <ele>49.16</ele>
        <time>2019-08-21T10:04:10Z</time>
      </trkpt>
      <trkpt lat="49.29244" lon="-0.04504">
        <ele>49.16</ele>
        <time>2019-08-21T10:04:11Z</time>
      </trkpt>
      <trkpt lat="49.29243" lon="-0.04496">
        <ele>49.16</ele>
        <time>2019-08-21T10:04:12Z</time>
      </trkpt>
      <trkpt lat="49.29243" lon="-0.0449">
        <ele>49.65</ele>
        <time>2019-08-21T10:04:13Z</time>
      </trkpt>
      <trkpt lat="49.29243" lon="-0.04485">
        <ele>49.65</ele>
        <time>2019-08-21T10:04:14Z</time>
      </trkpt>
      <trkpt lat="49.29244" lon="-0.0448">
        <ele>50.13</ele>
        <time>2019-08-21T10:04:15Z</time>
      </trkpt>
      <trkpt lat="49.29252" lon="-0.04442">
        <ele>48.68</ele>
        <time>2019-08-21T10:04:26Z</time>
      </trkpt>
      <trkpt lat="49.29259" lon="-0.04402">
        <ele>49.65</ele>
        <time>2019-08-21T10:04:37Z</time>
      </trkpt>
      <trkpt lat="49.29272" lon="-0.04365">
        <ele>56.86</ele>
        <time>2019-08-21T10:04:51Z</time>
      </trkpt>
      <trkpt lat="49.2927" lon="-0.04364">
        <ele>58.78</ele>
        <time>2019-08-21T10:05:02Z</time>
      </trkpt>
      <trkpt lat="49.29268" lon="-0.04363">
        <ele>58.78</ele>
        <time>2019-08-21T10:05:18Z</time>
      </trkpt>
      <trkpt lat="49.29268" lon="-0.04361">
        <ele>60.22</ele>
        <time>2019-08-21T10:05:50Z</time>
      </trkpt>
      <trkpt lat="49.2927" lon="-0.04362">
        <ele>60.7</ele>
        <time>2019-08-21T10:05:52Z</time>
      </trkpt>
      <trkpt lat="49.29276" lon="-0.04353">
        <ele>62.14</ele>
        <time>2019-08-21T10:05:59Z</time>
      </trkpt>
      <trkpt lat="49.29277" lon="-0.04352">
        <ele>62.14</ele>
        <time>2019-08-21T10:06:00Z</time>
      </trkpt>
      <trkpt lat="49.29278" lon="-0.04352">
        <ele>62.62</ele>
        <time>2019-08-21T10:06:01Z</time>
      </trkpt>
      <trkpt lat="49.29279" lon="-0.04351">
        <ele>62.14</ele>
        <time>2019-08-21T10:06:02Z</time>
      </trkpt>
      <trkpt lat="49.2928" lon="-0.0435">
        <ele>62.14</ele>
        <time>2019-08-21T10:06:03Z</time>
      </trkpt>
      <trkpt lat="49.29286" lon="-0.0434">
        <ele>62.14</ele>
        <time>2019-08-21T10:06:11Z</time>
      </trkpt>
      <trkpt lat="49.29286" lon="-0.04339">
        <ele>62.14</ele>
        <time>2019-08-21T10:06:12Z</time>
      </trkpt>
      <trkpt lat="49.29292" lon="-0.04321">
        <ele>64.07</ele>
        <time>2019-08-21T10:06:24Z</time>
      </trkpt>
      <trkpt lat="49.29292" lon="-0.04319">
        <ele>64.07</ele>
        <time>2019-08-21T10:06:42Z</time>
      </trkpt>
      <trkpt lat="49.29291" lon="-0.04318">
        <ele>65.99</ele>
        <time>2019-08-21T10:07:16Z</time>
      </trkpt>
      <trkpt lat="49.2929" lon="-0.04315">
        <ele>65.99</ele>
        <time>2019-08-21T10:07:44Z</time>
      </trkpt>
      <trkpt lat="49.29291" lon="-0.04311">
        <ele>65.99</ele>
        <time>2019-08-21T10:07:55Z</time>
      </trkpt>
      <trkpt lat="49.29291" lon="-0.04312">
        <ele>65.99</ele>
        <time>2019-08-21T10:08:13Z</time>
      </trkpt>
      <trkpt lat="49.29291" lon="-0.0431">
        <ele>65.99</ele>
        <time>2019-08-21T10:08:15Z</time>
      </trkpt>
      <trkpt lat="49.2929" lon="-0.04308">
        <ele>65.99</ele>
        <time>2019-08-21T10:08:16Z</time>
      </trkpt>
      <trkpt lat="49.29278" lon="-0.04263">
        <ele>67.91</ele>
        <time>2019-08-21T10:08:27Z</time>
      </trkpt>
      <trkpt lat="49.29268" lon="-0.04227">
        <ele>68.87</ele>
        <time>2019-08-21T10:08:36Z</time>
      </trkpt>
      <trkpt lat="49.29267" lon="-0.04224">
        <ele>68.87</ele>
        <time>2019-08-21T10:08:37Z</time>
      </trkpt>
      <trkpt lat="49.29266" lon="-0.0422">
        <ele>68.87</ele>
        <time>2019-08-21T10:08:38Z</time>
      </trkpt>
      <trkpt lat="49.29265" lon="-0.04216">
        <ele>68.87</ele>
        <time>2019-08-21T10:08:39Z</time>
      </trkpt>
      <trkpt lat="49.29263" lon="-0.0421">
        <ele>68.87</ele>
        <time>2019-08-21T10:08:40Z</time>
      </trkpt>
      <trkpt lat="49.29246" lon="-0.04148">
        <ele>71.76</ele>
        <time>2019-08-21T10:08:54Z</time>
      </trkpt>
      <trkpt lat="49.29237" lon="-0.04101">
        <ele>77.52</ele>
        <time>2019-08-21T10:09:05Z</time>
      </trkpt>
      <trkpt lat="49.29218" lon="-0.0405">
        <ele>79.93</ele>
        <time>2019-08-21T10:09:18Z</time>
      </trkpt>
      <trkpt lat="49.29197" lon="-0.04017">
        <ele>81.37</ele>
        <time>2019-08-21T10:09:28Z</time>
      </trkpt>
      <trkpt lat="49.29176" lon="-0.0397">
        <ele>82.81</ele>
        <time>2019-08-21T10:09:40Z</time>
      </trkpt>
      <trkpt lat="49.29156" lon="-0.03907">
        <ele>82.33</ele>
        <time>2019-08-21T10:09:54Z</time>
      </trkpt>
      <trkpt lat="49.2914" lon="-0.03861">
        <ele>82.81</ele>
        <time>2019-08-21T10:10:05Z</time>
      </trkpt>
      <trkpt lat="49.29125" lon="-0.03807">
        <ele>82.33</ele>
        <time>2019-08-21T10:10:18Z</time>
      </trkpt>
      <trkpt lat="49.29114" lon="-0.03766">
        <ele>83.29</ele>
        <time>2019-08-21T10:10:28Z</time>
      </trkpt>
      <trkpt lat="49.29098" lon="-0.0372">
        <ele>86.18</ele>
        <time>2019-08-21T10:10:40Z</time>
      </trkpt>
      <trkpt lat="49.29085" lon="-0.03678">
        <ele>90.02</ele>
        <time>2019-08-21T10:10:51Z</time>
      </trkpt>
      <trkpt lat="49.29068" lon="-0.03632">
        <ele>89.06</ele>
        <time>2019-08-21T10:11:04Z</time>
      </trkpt>
      <trkpt lat="49.29054" lon="-0.03597">
        <ele>88.1</ele>
        <time>2019-08-21T10:11:14Z</time>
      </trkpt>
      <trkpt lat="49.29053" lon="-0.03594">
        <ele>87.14</ele>
        <time>2019-08-21T10:11:15Z</time>
      </trkpt>
      <trkpt lat="49.29052" lon="-0.0359">
        <ele>86.66</ele>
        <time>2019-08-21T10:11:16Z</time>
      </trkpt>
      <trkpt lat="49.29036" lon="-0.0356">
        <ele>84.25</ele>
        <time>2019-08-21T10:11:25Z</time>
      </trkpt>
      <trkpt lat="49.29034" lon="-0.03557">
        <ele>83.77</ele>
        <time>2019-08-21T10:11:26Z</time>
      </trkpt>
      <trkpt lat="49.29023" lon="-0.03534">
        <ele>79.93</ele>
        <time>2019-08-21T10:11:32Z</time>
      </trkpt>
      <trkpt lat="49.29022" lon="-0.03531">
        <ele>79.45</ele>
        <time>2019-08-21T10:11:33Z</time>
      </trkpt>
      <trkpt lat="49.2902" lon="-0.03527">
        <ele>79.45</ele>
        <time>2019-08-21T10:11:34Z</time>
      </trkpt>
      <trkpt lat="49.29018" lon="-0.03524">
        <ele>79.45</ele>
        <time>2019-08-21T10:11:35Z</time>
      </trkpt>
      <trkpt lat="49.29017" lon="-0.03521">
        <ele>78.97</ele>
        <time>2019-08-21T10:11:36Z</time>
      </trkpt>
      <trkpt lat="49.29015" lon="-0.03517">
        <ele>78.97</ele>
        <time>2019-08-21T10:11:37Z</time>
      </trkpt>
      <trkpt lat="49.29009" lon="-0.03505">
        <ele>78.48</ele>
        <time>2019-08-21T10:11:41Z</time>
      </trkpt>
      <trkpt lat="49.29006" lon="-0.035">
        <ele>78</ele>
        <time>2019-08-21T10:11:43Z</time>
      </trkpt>
      <trkpt lat="49.28988" lon="-0.03457">
        <ele>77.04</ele>
        <time>2019-08-21T10:11:53Z</time>
      </trkpt>
      <trkpt lat="49.28961" lon="-0.03382">
        <ele>90.5</ele>
        <time>2019-08-21T10:12:06Z</time>
      </trkpt>
      <trkpt lat="49.28949" lon="-0.03339">
        <ele>97.23</ele>
        <time>2019-08-21T10:12:16Z</time>
      </trkpt>
      <trkpt lat="49.28933" lon="-0.03278">
        <ele>104.92</ele>
        <time>2019-08-21T10:12:29Z</time>
      </trkpt>
      <trkpt lat="49.28925" lon="-0.03232">
        <ele>106.84</ele>
        <time>2019-08-21T10:12:40Z</time>
      </trkpt>
      <trkpt lat="49.28912" lon="-0.0317">
        <ele>109.73</ele>
        <time>2019-08-21T10:12:53Z</time>
      </trkpt>
      <trkpt lat="49.28903" lon="-0.03132">
        <ele>109.73</ele>
        <time>2019-08-21T10:13:02Z</time>
      </trkpt>
      <trkpt lat="49.28903" lon="-0.03127">
        <ele>109.73</ele>
        <time>2019-08-21T10:13:03Z</time>
      </trkpt>
      <trkpt lat="49.28905" lon="-0.03124">
        <ele>109.73</ele>
        <time>2019-08-21T10:13:04Z</time>
      </trkpt>
      <trkpt lat="49.28907" lon="-0.03122">
        <ele>109.73</ele>
        <time>2019-08-21T10:13:05Z</time>
      </trkpt>
      <trkpt lat="49.2891" lon="-0.0312">
        <ele>109.73</ele>
        <time>2019-08-21T10:13:06Z</time>
      </trkpt>
      <trkpt lat="49.28938" lon="-0.03094">
        <ele>112.61</ele>
        <time>2019-08-21T10:13:18Z</time>
      </trkpt>
      <trkpt lat="49.28978" lon="-0.03072">
        <ele>115.5</ele>
        <time>2019-08-21T10:13:31Z</time>
      </trkpt>
      <trkpt lat="49.29029" lon="-0.03042">
        <ele>114.05</ele>
        <time>2019-08-21T10:13:45Z</time>
      </trkpt>
      <trkpt lat="49.29033" lon="-0.03039">
        <ele>113.57</ele>
        <time>2019-08-21T10:13:46Z</time>
      </trkpt>
      <trkpt lat="49.29037" lon="-0.03036">
        <ele>113.09</ele>
        <time>2019-08-21T10:13:47Z</time>
      </trkpt>
      <trkpt lat="49.29045" lon="-0.0303">
        <ele>112.13</ele>
        <time>2019-08-21T10:13:49Z</time>
      </trkpt>
      <trkpt lat="49.2905" lon="-0.03028">
        <ele>111.65</ele>
        <time>2019-08-21T10:13:50Z</time>
      </trkpt>
      <trkpt lat="49.29066" lon="-0.0302">
        <ele>110.21</ele>
        <time>2019-08-21T10:13:53Z</time>
      </trkpt>
      <trkpt lat="49.29078" lon="-0.03013">
        <ele>109.73</ele>
        <time>2019-08-21T10:13:55Z</time>
      </trkpt>
      <trkpt lat="49.29085" lon="-0.0301">
        <ele>108.77</ele>
        <time>2019-08-21T10:13:56Z</time>
      </trkpt>
      <trkpt lat="49.29091" lon="-0.03008">
        <ele>108.77</ele>
        <time>2019-08-21T10:13:57Z</time>
      </trkpt>
      <trkpt lat="49.29096" lon="-0.03006">
        <ele>108.29</ele>
        <time>2019-08-21T10:13:58Z</time>
      </trkpt>
      <trkpt lat="49.29103" lon="-0.03002">
        <ele>108.29</ele>
        <time>2019-08-21T10:13:59Z</time>
      </trkpt>
      <trkpt lat="49.29144" lon="-0.02976">
        <ele>105.88</ele>
        <time>2019-08-21T10:14:04Z</time>
      </trkpt>
      <trkpt lat="49.29153" lon="-0.02967">
        <ele>104.92</ele>
        <time>2019-08-21T10:14:05Z</time>
      </trkpt>
      <trkpt lat="49.29161" lon="-0.02956">
        <ele>103.96</ele>
        <time>2019-08-21T10:14:06Z</time>
      </trkpt>
      <trkpt lat="49.29166" lon="-0.02943">
        <ele>103</ele>
        <time>2019-08-21T10:14:07Z</time>
      </trkpt>
      <trkpt lat="49.29169" lon="-0.02928">
        <ele>102.52</ele>
        <time>2019-08-21T10:14:08Z</time>
      </trkpt>
      <trkpt lat="49.2917" lon="-0.02912">
        <ele>102.04</ele>
        <time>2019-08-21T10:14:09Z</time>
      </trkpt>
      <trkpt lat="49.29169" lon="-0.02896">
        <ele>101.56</ele>
        <time>2019-08-21T10:14:10Z</time>
      </trkpt>
      <trkpt lat="49.29167" lon="-0.02879">
        <ele>101.08</ele>
        <time>2019-08-21T10:14:11Z</time>
      </trkpt>
      <trkpt lat="49.29165" lon="-0.02863">
        <ele>100.6</ele>
        <time>2019-08-21T10:14:12Z</time>
      </trkpt>
      <trkpt lat="49.29158" lon="-0.02833">
        <ele>99.15</ele>
        <time>2019-08-21T10:14:14Z</time>
      </trkpt>
      <trkpt lat="49.29146" lon="-0.02803">
        <ele>98.19</ele>
        <time>2019-08-21T10:14:16Z</time>
      </trkpt>
      <trkpt lat="49.29134" lon="-0.02774">
        <ele>96.75</ele>
        <time>2019-08-21T10:14:18Z</time>
      </trkpt>
      <trkpt lat="49.29131" lon="-0.02758">
        <ele>96.27</ele>
        <time>2019-08-21T10:14:19Z</time>
      </trkpt>
      <trkpt lat="49.29131" lon="-0.02741">
        <ele>95.79</ele>
        <time>2019-08-21T10:14:20Z</time>
      </trkpt>
      <trkpt lat="49.29134" lon="-0.02724">
        <ele>95.31</ele>
        <time>2019-08-21T10:14:21Z</time>
      </trkpt>
      <trkpt lat="49.2914" lon="-0.02709">
        <ele>93.87</ele>
        <time>2019-08-21T10:14:22Z</time>
      </trkpt>
      <trkpt lat="49.29149" lon="-0.02698">
        <ele>92.9</ele>
        <time>2019-08-21T10:14:23Z</time>
      </trkpt>
      <trkpt lat="49.2916" lon="-0.02691">
        <ele>91.94</ele>
        <time>2019-08-21T10:14:24Z</time>
      </trkpt>
      <trkpt lat="49.29172" lon="-0.02689">
        <ele>90.98</ele>
        <time>2019-08-21T10:14:25Z</time>
      </trkpt>
      <trkpt lat="49.29184" lon="-0.02692">
        <ele>90.02</ele>
        <time>2019-08-21T10:14:26Z</time>
      </trkpt>
      <trkpt lat="49.29196" lon="-0.02698">
        <ele>89.06</ele>
        <time>2019-08-21T10:14:27Z</time>
      </trkpt>
      <trkpt lat="49.29207" lon="-0.02706">
        <ele>88.1</ele>
        <time>2019-08-21T10:14:28Z</time>
      </trkpt>
      <trkpt lat="49.29215" lon="-0.02717">
        <ele>87.14</ele>
        <time>2019-08-21T10:14:29Z</time>
      </trkpt>
      <trkpt lat="49.29222" lon="-0.02729">
        <ele>86.18</ele>
        <time>2019-08-21T10:14:30Z</time>
      </trkpt>
      <trkpt lat="49.29229" lon="-0.02744">
        <ele>85.21</ele>
        <time>2019-08-21T10:14:31Z</time>
      </trkpt>
      <trkpt lat="49.29235" lon="-0.02759">
        <ele>84.25</ele>
        <time>2019-08-21T10:14:32Z</time>
      </trkpt>
      <trkpt lat="49.29261" lon="-0.02829">
        <ele>81.37</ele>
        <time>2019-08-21T10:14:37Z</time>
      </trkpt>
      <trkpt lat="49.29272" lon="-0.02849">
        <ele>79.93</ele>
        <time>2019-08-21T10:14:39Z</time>
      </trkpt>
      <trkpt lat="49.29279" lon="-0.02854">
        <ele>79.45</ele>
        <time>2019-08-21T10:14:40Z</time>
      </trkpt>
      <trkpt lat="49.29285" lon="-0.02859">
        <ele>78.97</ele>
        <time>2019-08-21T10:14:41Z</time>
      </trkpt>
      <trkpt lat="49.29292" lon="-0.02862">
        <ele>78</ele>
        <time>2019-08-21T10:14:42Z</time>
      </trkpt>
      <trkpt lat="49.29299" lon="-0.02865">
        <ele>77.52</ele>
        <time>2019-08-21T10:14:43Z</time>
      </trkpt>
      <trkpt lat="49.2935" lon="-0.02881">
        <ele>74.16</ele>
        <time>2019-08-21T10:14:49Z</time>
      </trkpt>
      <trkpt lat="49.2936" lon="-0.02881">
        <ele>73.2</ele>
        <time>2019-08-21T10:14:50Z</time>
      </trkpt>
      <trkpt lat="49.2937" lon="-0.02878">
        <ele>72.72</ele>
        <time>2019-08-21T10:14:51Z</time>
      </trkpt>
      <trkpt lat="49.2938" lon="-0.02872">
        <ele>71.76</ele>
        <time>2019-08-21T10:14:52Z</time>
      </trkpt>
      <trkpt lat="49.29388" lon="-0.02863">
        <ele>71.27</ele>
        <time>2019-08-21T10:14:53Z</time>
      </trkpt>
      <trkpt lat="49.29395" lon="-0.02851">
        <ele>70.31</ele>
        <time>2019-08-21T10:14:54Z</time>
      </trkpt>
      <trkpt lat="49.294" lon="-0.02837">
        <ele>69.35</ele>
        <time>2019-08-21T10:14:55Z</time>
      </trkpt>
      <trkpt lat="49.29403" lon="-0.02822">
        <ele>68.87</ele>
        <time>2019-08-21T10:14:56Z</time>
      </trkpt>
      <trkpt lat="49.29406" lon="-0.02807">
        <ele>67.91</ele>
        <time>2019-08-21T10:14:57Z</time>
      </trkpt>
      <trkpt lat="49.29408" lon="-0.02792">
        <ele>66.95</ele>
        <time>2019-08-21T10:14:58Z</time>
      </trkpt>
      <trkpt lat="49.29416" lon="-0.02714">
        <ele>64.07</ele>
        <time>2019-08-21T10:15:05Z</time>
      </trkpt>
      <trkpt lat="49.29424" lon="-0.02651">
        <ele>62.62</ele>
        <time>2019-08-21T10:15:16Z</time>
      </trkpt>
      <trkpt lat="49.29442" lon="-0.02595">
        <ele>67.91</ele>
        <time>2019-08-21T10:15:27Z</time>
      </trkpt>
      <trkpt lat="49.29446" lon="-0.02579">
        <ele>69.83</ele>
        <time>2019-08-21T10:15:31Z</time>
      </trkpt>
      <trkpt lat="49.29447" lon="-0.02574">
        <ele>70.31</ele>
        <time>2019-08-21T10:15:32Z</time>
      </trkpt>
      <trkpt lat="49.29448" lon="-0.0257">
        <ele>70.31</ele>
        <time>2019-08-21T10:15:33Z</time>
      </trkpt>
      <trkpt lat="49.2945" lon="-0.02566">
        <ele>70.79</ele>
        <time>2019-08-21T10:15:34Z</time>
      </trkpt>
      <trkpt lat="49.2945" lon="-0.02562">
        <ele>70.79</ele>
        <time>2019-08-21T10:15:35Z</time>
      </trkpt>
      <trkpt lat="49.29459" lon="-0.02513">
        <ele>72.24</ele>
        <time>2019-08-21T10:15:47Z</time>
      </trkpt>
      <trkpt lat="49.29461" lon="-0.02444">
        <ele>78.48</ele>
        <time>2019-08-21T10:16:00Z</time>
      </trkpt>
      <trkpt lat="49.29461" lon="-0.02391">
        <ele>83.77</ele>
        <time>2019-08-21T10:16:10Z</time>
      </trkpt>
      <trkpt lat="49.2946" lon="-0.02387">
        <ele>83.77</ele>
        <time>2019-08-21T10:16:11Z</time>
      </trkpt>
      <trkpt lat="49.29459" lon="-0.02381">
        <ele>83.77</ele>
        <time>2019-08-21T10:16:12Z</time>
      </trkpt>
      <trkpt lat="49.29459" lon="-0.02376">
        <ele>84.73</ele>
        <time>2019-08-21T10:16:13Z</time>
      </trkpt>
      <trkpt lat="49.29459" lon="-0.0237">
        <ele>85.21</ele>
        <time>2019-08-21T10:16:14Z</time>
      </trkpt>
      <trkpt lat="49.29458" lon="-0.02365">
        <ele>85.21</ele>
        <time>2019-08-21T10:16:15Z</time>
      </trkpt>
      <trkpt lat="49.29458" lon="-0.0236">
        <ele>85.21</ele>
        <time>2019-08-21T10:16:16Z</time>
      </trkpt>
      <trkpt lat="49.29452" lon="-0.02289">
        <ele>89.06</ele>
        <time>2019-08-21T10:16:29Z</time>
      </trkpt>
      <trkpt lat="49.29462" lon="-0.0224">
        <ele>88.58</ele>
        <time>2019-08-21T10:16:40Z</time>
      </trkpt>
      <trkpt lat="49.29482" lon="-0.02214">
        <ele>87.62</ele>
        <time>2019-08-21T10:16:52Z</time>
      </trkpt>
      <trkpt lat="49.29483" lon="-0.02213">
        <ele>87.14</ele>
        <time>2019-08-21T10:16:53Z</time>
      </trkpt>
      <trkpt lat="49.29484" lon="-0.02211">
        <ele>87.14</ele>
        <time>2019-08-21T10:16:54Z</time>
      </trkpt>
      <trkpt lat="49.2949" lon="-0.02209">
        <ele>86.18</ele>
        <time>2019-08-21T10:16:59Z</time>
      </trkpt>
      <trkpt lat="49.29494" lon="-0.02208">
        <ele>86.66</ele>
        <time>2019-08-21T10:17:00Z</time>
      </trkpt>
      <trkpt lat="49.29497" lon="-0.02207">
        <ele>86.66</ele>
        <time>2019-08-21T10:17:01Z</time>
      </trkpt>
      <trkpt lat="49.29548" lon="-0.02227">
        <ele>92.42</ele>
        <time>2019-08-21T10:17:14Z</time>
      </trkpt>
      <trkpt lat="49.29575" lon="-0.02273">
        <ele>97.71</ele>
        <time>2019-08-21T10:17:28Z</time>
      </trkpt>
      <trkpt lat="49.29602" lon="-0.02317">
        <ele>102.04</ele>
        <time>2019-08-21T10:17:42Z</time>
      </trkpt>
      <trkpt lat="49.2963" lon="-0.02343">
        <ele>103.96</ele>
        <time>2019-08-21T10:17:54Z</time>
      </trkpt>
      <trkpt lat="49.29663" lon="-0.0236">
        <ele>108.29</ele>
        <time>2019-08-21T10:18:07Z</time>
      </trkpt>
      <trkpt lat="49.29698" lon="-0.02361">
        <ele>110.21</ele>
        <time>2019-08-21T10:18:20Z</time>
      </trkpt>
      <trkpt lat="49.29731" lon="-0.02358">
        <ele>112.13</ele>
        <time>2019-08-21T10:18:32Z</time>
      </trkpt>
      <trkpt lat="49.29766" lon="-0.02351">
        <ele>115.98</ele>
        <time>2019-08-21T10:18:44Z</time>
      </trkpt>
      <trkpt lat="49.29796" lon="-0.02335">
        <ele>119.34</ele>
        <time>2019-08-21T10:18:56Z</time>
      </trkpt>
      <trkpt lat="49.29798" lon="-0.02333">
        <ele>119.82</ele>
        <time>2019-08-21T10:18:57Z</time>
      </trkpt>
      <trkpt lat="49.29801" lon="-0.02331">
        <ele>119.82</ele>
        <time>2019-08-21T10:18:58Z</time>
      </trkpt>
      <trkpt lat="49.29833" lon="-0.02303">
        <ele>120.78</ele>
        <time>2019-08-21T10:19:11Z</time>
      </trkpt>
      <trkpt lat="49.2986" lon="-0.02283">
        <ele>122.71</ele>
        <time>2019-08-21T10:19:21Z</time>
      </trkpt>
      <trkpt lat="49.29891" lon="-0.02269">
        <ele>123.19</ele>
        <time>2019-08-21T10:19:31Z</time>
      </trkpt>
      <trkpt lat="49.29923" lon="-0.02267">
        <ele>123.67</ele>
        <time>2019-08-21T10:19:42Z</time>
      </trkpt>
      <trkpt lat="49.29954" lon="-0.0227">
        <ele>127.03</ele>
        <time>2019-08-21T10:19:53Z</time>
      </trkpt>
      <trkpt lat="49.29958" lon="-0.02269">
        <ele>127.03</ele>
        <time>2019-08-21T10:19:54Z</time>
      </trkpt>
      <trkpt lat="49.29999" lon="-0.0225">
        <ele>127.99</ele>
        <time>2019-08-21T10:20:08Z</time>
      </trkpt>
      <trkpt lat="49.30039" lon="-0.02228">
        <ele>128.47</ele>
        <time>2019-08-21T10:20:22Z</time>
      </trkpt>
      <trkpt lat="49.30077" lon="-0.02206">
        <ele>129.43</ele>
        <time>2019-08-21T10:20:36Z</time>
      </trkpt>
      <trkpt lat="49.30119" lon="-0.02176">
        <ele>130.4</ele>
        <time>2019-08-21T10:20:51Z</time>
      </trkpt>
      <trkpt lat="49.30126" lon="-0.02168">
        <ele>130.88</ele>
        <time>2019-08-21T10:21:01Z</time>
      </trkpt>
      <trkpt lat="49.30127" lon="-0.02167">
        <ele>130.88</ele>
        <time>2019-08-21T10:21:21Z</time>
      </trkpt>
      <trkpt lat="49.3013" lon="-0.02165">
        <ele>130.4</ele>
        <time>2019-08-21T10:21:23Z</time>
      </trkpt>
      <trkpt lat="49.30132" lon="-0.02166">
        <ele>130.4</ele>
        <time>2019-08-21T10:21:24Z</time>
      </trkpt>
      <trkpt lat="49.30135" lon="-0.02168">
        <ele>129.92</ele>
        <time>2019-08-21T10:21:25Z</time>
      </trkpt>
      <trkpt lat="49.30138" lon="-0.02171">
        <ele>129.92</ele>
        <time>2019-08-21T10:21:26Z</time>
      </trkpt>
      <trkpt lat="49.3014" lon="-0.02174">
        <ele>129.92</ele>
        <time>2019-08-21T10:21:27Z</time>
      </trkpt>
      <trkpt lat="49.30176" lon="-0.02215">
        <ele>130.88</ele>
        <time>2019-08-21T10:21:38Z</time>
      </trkpt>
      <trkpt lat="49.30256" lon="-0.02308">
        <ele>132.32</ele>
        <time>2019-08-21T10:21:58Z</time>
      </trkpt>
      <trkpt lat="49.30303" lon="-0.02363">
        <ele>132.32</ele>
        <time>2019-08-21T10:22:09Z</time>
      </trkpt>
      <trkpt lat="49.30307" lon="-0.02367">
        <ele>132.8</ele>
        <time>2019-08-21T10:22:10Z</time>
      </trkpt>
      <trkpt lat="49.30328" lon="-0.02394">
        <ele>133.28</ele>
        <time>2019-08-21T10:22:15Z</time>
      </trkpt>
      <trkpt lat="49.30401" lon="-0.0248">
        <ele>133.28</ele>
        <time>2019-08-21T10:22:31Z</time>
      </trkpt>
      <trkpt lat="49.30502" lon="-0.02565">
        <ele>131.84</ele>
        <time>2019-08-21T10:22:49Z</time>
      </trkpt>
      <trkpt lat="49.30605" lon="-0.02618">
        <ele>131.36</ele>
        <time>2019-08-21T10:23:05Z</time>
      </trkpt>
      <trkpt lat="49.30679" lon="-0.02646">
        <ele>130.4</ele>
        <time>2019-08-21T10:23:17Z</time>
      </trkpt>
      <trkpt lat="49.30685" lon="-0.02644">
        <ele>130.4</ele>
        <time>2019-08-21T10:23:18Z</time>
      </trkpt>
      <trkpt lat="49.3069" lon="-0.0264">
        <ele>130.4</ele>
        <time>2019-08-21T10:23:19Z</time>
      </trkpt>
      <trkpt lat="49.30695" lon="-0.02636">
        <ele>130.4</ele>
        <time>2019-08-21T10:23:20Z</time>
      </trkpt>
      <trkpt lat="49.307" lon="-0.02631">
        <ele>130.4</ele>
        <time>2019-08-21T10:23:21Z</time>
      </trkpt>
      <trkpt lat="49.30705" lon="-0.02624">
        <ele>130.4</ele>
        <time>2019-08-21T10:23:22Z</time>
      </trkpt>
      <trkpt lat="49.30708" lon="-0.02617">
        <ele>130.4</ele>
        <time>2019-08-21T10:23:23Z</time>
      </trkpt>
      <trkpt lat="49.30711" lon="-0.02608">
        <ele>130.4</ele>
        <time>2019-08-21T10:23:24Z</time>
      </trkpt>
      <trkpt lat="49.30714" lon="-0.02599">
        <ele>130.4</ele>
        <time>2019-08-21T10:23:25Z</time>
      </trkpt>
      <trkpt lat="49.30748" lon="-0.02453">
        <ele>128.47</ele>
        <time>2019-08-21T10:23:41Z</time>
      </trkpt>
      <trkpt lat="49.30786" lon="-0.02312">
        <ele>127.03</ele>
        <time>2019-08-21T10:23:56Z</time>
      </trkpt>
      <trkpt lat="49.30828" lon="-0.02145">
        <ele>126.07</ele>
        <time>2019-08-21T10:24:13Z</time>
      </trkpt>
      <trkpt lat="49.30852" lon="-0.0204">
        <ele>124.63</ele>
        <time>2019-08-21T10:24:23Z</time>
      </trkpt>
      <trkpt lat="49.30855" lon="-0.0203">
        <ele>124.63</ele>
        <time>2019-08-21T10:24:24Z</time>
      </trkpt>
      <trkpt lat="49.3087" lon="-0.01973">
        <ele>124.15</ele>
        <time>2019-08-21T10:24:30Z</time>
      </trkpt>
      <trkpt lat="49.30874" lon="-0.01968">
        <ele>124.15</ele>
        <time>2019-08-21T10:24:31Z</time>
      </trkpt>
      <trkpt lat="49.30879" lon="-0.01966">
        <ele>123.67</ele>
        <time>2019-08-21T10:24:32Z</time>
      </trkpt>
      <trkpt lat="49.30931" lon="-0.01964">
        <ele>122.71</ele>
        <time>2019-08-21T10:24:41Z</time>
      </trkpt>
      <trkpt lat="49.30935" lon="-0.01961">
        <ele>122.22</ele>
        <time>2019-08-21T10:24:42Z</time>
      </trkpt>
      <trkpt lat="49.30938" lon="-0.01957">
        <ele>122.22</ele>
        <time>2019-08-21T10:24:43Z</time>
      </trkpt>
      <trkpt lat="49.30959" lon="-0.01918">
        <ele>121.26</ele>
        <time>2019-08-21T10:24:53Z</time>
      </trkpt>
      <trkpt lat="49.3096" lon="-0.01915">
        <ele>121.26</ele>
        <time>2019-08-21T10:24:54Z</time>
      </trkpt>
      <trkpt lat="49.30963" lon="-0.01912">
        <ele>120.78</ele>
        <time>2019-08-21T10:24:55Z</time>
      </trkpt>
      <trkpt lat="49.30965" lon="-0.01907">
        <ele>120.78</ele>
        <time>2019-08-21T10:24:56Z</time>
      </trkpt>
      <trkpt lat="49.30967" lon="-0.01902">
        <ele>120.3</ele>
        <time>2019-08-21T10:24:57Z</time>
      </trkpt>
      <trkpt lat="49.30969" lon="-0.01896">
        <ele>120.3</ele>
        <time>2019-08-21T10:24:58Z</time>
      </trkpt>
      <trkpt lat="49.3097" lon="-0.0189">
        <ele>120.3</ele>
        <time>2019-08-21T10:24:59Z</time>
      </trkpt>
      <trkpt lat="49.3095" lon="-0.01861">
        <ele>120.3</ele>
        <time>2019-08-21T10:25:06Z</time>
      </trkpt>
      <trkpt lat="49.30946" lon="-0.0186">
        <ele>120.78</ele>
        <time>2019-08-21T10:25:07Z</time>
      </trkpt>
      <trkpt lat="49.30927" lon="-0.01853">
        <ele>120.78</ele>
        <time>2019-08-21T10:25:12Z</time>
      </trkpt>
      <trkpt lat="49.30917" lon="-0.01877">
        <ele>120.78</ele>
        <time>2019-08-21T10:25:19Z</time>
      </trkpt>
      <trkpt lat="49.30917" lon="-0.01885">
        <ele>120.78</ele>
        <time>2019-08-21T10:25:21Z</time>
      </trkpt>
      <trkpt lat="49.30916" lon="-0.01894">
        <ele>121.26</ele>
        <time>2019-08-21T10:25:29Z</time>
      </trkpt>
    </trkseg>
  </trk>
</gpx>